     2.11           OBSERVATION DATA    G (GPS)             RINEX VERSION / TYPE
teqc 2010Oct21 OPUS Account 20111026 15:05:37UTC            PGM / RUN BY / DATE
Q 1522                                                      MARKER NAME
1170                                                        MARKER NUMBER
CSMIDDLETON NGS                                             OBSERVER / AGENCY
0220390614 TRIMBLE R7 2.32                                  REC # / TYPE / VERS
12668881 TRM41249.00 NONE                                   ANT # / TYPE
  -738054.1542 -5496300.8969  3140268.6062                  APPROX POSITION XYZ
        2.0000        0.0000        0.0000                  ANTENNA: DELTA H/E/N
     1     1                                                WAVELENGTH FACT L1/2
     5    L1    L2    C1    P1    P2                        # / TYPES OF OBSERV
    15                                                      LEAP SECONDS
  2011     7    30     0     0   30.0000000     GPS         TIME OF FIRST OBS
                                                            END OF HEADER
 11  7 30  0  0 30.0000000  0  8G09G02G04G17G27G10G28G20
 -27213466.62957 -21038727.17255  22116999.8364                   22116998.7774
 -29027862.60258 -22529180.57056  22075108.9924                   22075105.7734
 -56518906.93758 -43995466.47756  19873360.5944                   19873358.4924
 -72510771.83258 -56428643.69956  21485955.1954                   21485952.6374
 -39503623.38757 -30598895.24655  22395383.4844                   22395382.7544
 -15367808.62956 -11934834.23853  23222326.9924                   23222327.8364
 -60298828.82857 -46943864.80955  21954229.8914                   21954228.2774
 -22385335.39156 -17411943.44153  24351901.7344                   24351901.3674
 11  7 30  0  1  0.0000000  0  8G09G02G04G17G27G10G28G20
 -27329209.39847 -21128916.33645  22094974.7424                   22094974.0004
 -29199883.60948 -22663222.85546  22042374.0394                   22042371.1604
 -56621021.16448 -44075035.99246  19853928.6024                   19853927.1214
 -72576304.88348 -56479708.43046  21473484.3524                   21473482.1054
 -39604568.17647 -30677553.53545  22376173.6484                   22376173.1804
 -15557738.98446 -12082831.85244  23186184.3754                   23186184.4534
 -60340725.50848 -46976511.61745  21946257.4534                   21946255.7344
 -22439660.17646 -17454274.45343  24341564.7424                   24341563.4924
 11  7 30  0  1 30.0000000  0  8G09G02G04G17G27G10G28G20
 -27444310.77747 -21218605.74245  22073072.0314                   22073070.5434
 -29371589.49248 -22797019.59846  22009699.4694                   22009696.3014
 -56722569.33248 -44154164.43446  19834604.8284                   19834602.9804
 -72641750.07448 -56530704.71546  21461030.5164                   21461027.9534
 -39705022.97747 -30755830.03145  22357058.8284                   22357057.4734
 -15747567.41846 -12230750.03944  23150061.1644                   23150061.0354
 -60382247.28947 -47008866.27745  21938355.8204                   21938354.0234
 -22493504.40246 -17496231.03543  24331318.7274                   24331317.6724
 11  7 30  0  2  0.0000000  0  8G09G02G04G17G27G10G28G20
 -27558782.42247 -21307804.43745  22051288.9924                   22051285.9774
 -29542990.87948 -22930579.08246  21977083.1724                   21977079.6644
 -56823564.09448 -44232861.65647  19815386.1484                   19815384.4304
 -72707119.33248 -56581641.82046  21448591.2114                   21448588.8634
 -39804999.95347 -30833734.19145  22338033.6334                   22338032.0744
 -15937302.34447 -12378595.33644  23113955.8204                   23113956.1604
 -60423405.88747 -47040937.96545  21930523.7424                   21930521.7464
 -22546881.05946 -17537823.25843  24321161.8054                   24321160.1764
 11  7 30  0  2 30.0000000  0  8G09G02G04G17G27G10G28G20
 -27672623.27047 -21396511.60245  22029625.3834                   22029623.3244
 -29714085.78148 -23063899.73846  21944524.3364                   21944521.5234
 -56924005.38748 -44311127.59447  19796272.7974                   19796271.1524
 -72772411.97348 -56632519.22746  21436166.6254                   21436164.4064
 -39904498.78147 -30911265.77045  22319099.9144                   22319098.0354
 -16126939.59047 -12526364.56244  23077869.2814                   23077869.3594
 -60464200.80547 -47072726.25445  21922760.8754                   21922758.8484
 -22599790.15646 -17579051.15243  24311092.6804                   24311092.1484
 11  7 30  0  3  0.0000000  0  8G09G02G04G17G27G10G28G20
 -27785828.83647 -21484723.73845  22008083.1414                   22008081.4844
 -29884868.32448 -23196977.00845  21912026.1564                   21912022.4924
 -57023889.05948 -44388959.02046  19777265.9304                   19777263.6604
 -72837623.75448 -56683333.61346  21423757.1024                   21423755.0864
 -40003515.19947 -30988421.44545  22300257.5554                   22300256.1884
 -16316471.12147 -12674051.37944  23041802.2114                   23041802.3874
 -60504627.68447 -47104227.75045  21915068.0314                   21915066.1914
 -22652228.39846 -17619912.15643  24301114.7114                   24301113.4494
 11  7 30  0  3 30.0000000  0  8G09G02G04G17G27G10G28G20
 -27898397.35947 -21572439.49645  21986661.7814                   21986659.8554
 -30055335.92648 -23329808.85945  21879586.6414                   21879583.6174
 -57123214.57448 -44466355.51647  19758364.3054                   19758362.8524
 -72902753.31248 -56734083.92646  21411363.2504                   21411361.2384
 -40102048.20347 -31065200.44145  22281507.5784                   22281506.4494
 -16505892.44147 -12821652.35244  23005756.4774                   23005756.5474
 -60544685.23047 -47135441.45745  21907445.7814                   21907443.7504
 -22704195.19146 -17660405.77343  24291225.1884                   24291224.0864
 11  7 30  0  4  0.0000000  0  8G09G02G04G17G27G10G28G20
 -28010327.27347 -21659657.63745  21965362.3754                   21965360.9104
 -30225485.75048 -23462393.09045  21847208.3754                   21847204.9884
 -57221980.96548 -44543316.34047  19739569.5944                   19739568.2854
 -72967799.12147 -56784768.99246  21398985.3524                   21398983.3554
 -40200096.29747 -31141601.55945  22262848.8914                   22262848.5984
 -16695198.62947 -12969163.58244  22969733.4614                   22969733.4494
 -60584371.78547 -47166366.08645  21899893.2734                   21899891.3954
 -22755689.91446 -17700531.57443  24281425.9534                   24281425.1414
 11  7 30  0  4 30.0000000  0  8G09G02G04G17G27G10G28G20
 -26546195.46147 -20518775.71545  22243977.3914                   22243976.2304
 -28819891.98048 -22367125.18446  22114684.1174                   22114681.0744
 -55744766.77348 -43392240.34847  20020674.1254                   20020672.1604
 -71457339.98848 -55607787.87146  21686416.6414                   21686414.4734
 -38722237.78147 -29990023.52745  22544076.2504                   22544074.9844
 -15308960.75447 -11888978.14544  23233524.8984                   23233525.4614
 -59048267.50047 -45969401.73845  22192204.3284                   22192202.5164
 -21231292.69546 -16512689.60243  24571509.3754                   24571508.7034
 11  7 30  0  5  0.0000000  0  8G09G02G04G17G27G10G28G20
 -26656845.59447 -20604996.60545  22222921.3674                   22222920.5664
 -28989401.08248 -22499210.16046  22082427.5234                   22082424.2704
 -55842415.43048 -43468330.21147  20002092.5864                   20002090.9104
 -71522216.95747 -55658341.37946  21674070.6024                   21674068.9384
 -38819316.07047 -30065668.97345  22525603.3444                   22525601.8244
 -15498024.45747 -12036300.49244  23197547.1414                   23197547.2584
 -59087211.22747 -45999747.55145  22184793.8364                   22184791.4494
 -21281844.23046 -16552080.46143  24561888.6564                   24561888.8054
 11  7 30  0  5 30.0000000  0  8G09G02G04G17G27G10G28G20
 -26766853.98047 -20690717.45345  22201987.9614                   22201986.4494
 -29158586.09448 -22631042.59046  22050232.6724                   22050228.9734
 -55939504.67248 -43543984.16446  19983616.8284                   19983615.0514
 -71587007.72347 -55708827.71146  21661741.3834                   21661739.9494
 -38915908.40647 -30140935.75845  22507222.0394                   22507221.0234
 -15686960.17247 -12183523.03144  23161594.3054                   23161594.3444
 -59125781.88747 -46029802.65245  22177453.9224                   22177451.7544
 -21331923.98846 -16591103.70343  24552359.8284                   24552358.9804
 11  7 30  0  6  0.0000000  0  9G09G12G02G04G17G27G10G28G20
 -26876218.89547 -20775936.87145  22181176.0864                   22181175.8874
   1291508.93456   1046796.44153  24725797.7274                   24725796.6294
 -29327444.14548 -22762620.26246  22018100.0234                   22018096.8404
 -56036033.61348 -43619201.51646  19965248.0164                   19965246.2114
 -71651710.57447 -55759245.54346  21649428.9224                   21649426.9734
 -39012013.25047 -30215822.66845  22488933.8284                   22488932.7074
 -15875762.58647 -12330641.72344  23125666.3674                   23125667.0394
 -59163977.91047 -46059565.82845  22170185.1094                   22170183.5784
 -21381531.20746 -16629758.65243  24542919.7814                   24542919.0004
 11  7 30  0  6 30.0000000  0  9G09G12G02G04G17G27G10G28G20
 -26984945.02747 -20860658.55145  22160486.2894                   22160485.6644
   1096915.63746    895165.38343  24688767.2034                   24688767.0864
 -29495978.98848 -22893946.07846  21986028.7424                   21986025.6564
 -56132007.75448 -43693986.55946  19946984.7274                   19946983.3244
 -71716330.59448 -55809598.80946  21637132.4924                   21637130.3634
 -39107635.97747 -30290333.90645  22470737.5864                   22470736.3794
 -16064433.34447 -12477657.82044  23089763.3134                   23089763.5744
 -59201804.48847 -46089041.13345  22162987.7974                   22162985.0664
 -21430671.87146 -16668050.10243  24533568.5634                   24533567.8244
 11  7 30  0  7  0.0000000  0  9G09G12G02G04G17G27G10G28G20
 -27093037.55948 -20944886.52045  22139917.1094                   22139916.4694
    902294.93846    743512.97743  24651733.5474                   24651731.7154
 -29664194.40648 -23025023.00046  21954018.2814                   21954015.3094
 -56227432.80548 -43768343.74247  19928825.8834                   19928824.2584
 -71780872.53948 -55859891.25446  21624850.4224                   21624847.8444
 -39202781.87947 -30364473.59445  22452632.0084                   22452631.0354
 -16252973.96547 -12624572.52344  23053885.5084                   23053885.6644
 -59239266.68047 -46118232.48845  22155858.3284                   22155856.6214
 -21479351.96946 -16705982.66043  24524304.8914                   24524304.6764
 11  7 30  0  7 30.0000000  0  9G09G12G02G04G17G27G10G28G20
 -27200495.55947 -21028620.04345  22119468.7894                   22119468.1844
    707649.55946    591841.29743  24614694.1484                   24614690.6564
 -29832088.03948 -23155849.17246  21922069.2424                   21922066.2304
 -56322308.66048 -43842272.97747  19910771.7034                   19910770.1374
 -71845335.30948 -55910121.98846  21612583.1724                   21612581.0394
 -39297450.27347 -30438241.19545  22434617.1484                   22434616.3754
 -16441380.07047 -12771382.41444  23018032.6094                   23018032.5394
 -59276363.59047 -46147139.21545  22148799.0004                   22148796.9384
 -21527571.61346 -16743556.44143  24515129.2664                   24515128.7734
 11  7 30  0  8  0.0000000  0  9G09G12G02G04G17G27G10G28G20
 -27307314.92247 -21111855.92645  22099141.3914                   22099140.9694
    512985.18046    440154.83243  24577650.6334                   24577647.1994
 -29999654.99648 -23286420.79746  21890182.4774                   21890179.3834
 -56416632.03948 -43915771.71147  19892822.4454                   19892820.7734
 -71909714.68748 -55960287.77046  21600332.4614                   21600330.1414
 -39391638.10947 -30511634.34445  22416694.0634                   22416693.5124
 -16629644.19947 -12918081.65644  22982207.4384                   22982207.3364
 -59313091.85947 -46175758.68045  22141810.2814                   22141808.2304
 -21575328.16846 -16780769.35943  24506041.4614                   24506041.3914
 11  7 30  0  8 30.0000000  0  9G09G12G02G04G17G27G10G28G20
 -27413492.61347 -21194591.81245  22078936.5634                   22078936.5004
    318306.78546    288457.41843  24540603.7814                   24540601.8324
 -30166890.96148 -23416734.51246  21858358.7664                   21858355.2664
 -56510401.14548 -43988838.53947  19874978.6484                   19874977.2464
 -71974008.38348 -56010386.77746  21588097.9774                   21588096.1454
 -39485342.63347 -30584650.87945  22398862.9774                   22398861.8364
 -16817759.87147 -13064665.21544  22946409.3674                   22946410.3554
 -59349448.56247 -46204088.62945  22134891.2194                   22134889.3244
 -21622619.14546 -16817619.51643  24497043.0004                   24497041.6484
 11  7 30  0  9  0.0000000  0  9G09G12G02G04G17G27G10G28G20
 -27519029.75047 -21276828.55145  22058853.4694                   22058853.3244
    123615.58246    136750.03943  24503555.7034                   24503553.1334
 -30333795.54348 -23546789.98846  21826597.5864                   21826594.5514
 -56603617.22748 -44061474.44946  19857240.5554                   19857238.6804
 -72038217.01247 -56060419.49246  21575879.4844                   21575877.6334
 -39578565.19547 -30657291.88345  22381123.0474                   22381122.1954
 -17005724.43046 -13211131.05144  22910640.7504                   22910640.7974
 -59385434.25047 -46232129.46545  22128043.8754                   22128042.3054
 -21669446.60946 -16854108.50443  24488131.8674                   24488130.5784
 11  7 30  0  9 30.0000000  0  9G09G12G02G04G17G27G10G28G20
 -27623923.25447 -21358563.75445  22038892.3984                   22038893.0314
    -71083.59446    -14963.50844  24466505.7664                   24466504.3524
 -30500364.41048 -23676583.87146  21794900.2664                   21794897.9104
 -56696278.16848 -44133677.77746  19839607.7034                   19839605.6334
 -72102336.81647 -56110382.99646  21563678.1484                   21563676.1844
 -39671303.34047 -30729555.38345  22363475.5394                   22363474.5164
 -17193531.33647 -13357474.01644  22874902.9064                   22874902.3754
 -59421046.51247 -46259879.33245  22121267.3674                   22121265.1954
 -21715808.68046 -16890234.81643  24479309.8984                   24479308.5864
 11  7 30  0 10  0.0000000  0  9G09G12G02G04G17G27G10G28G20
 -27728171.32847 -21439796.03945  22019055.4924                   22019054.6524
   -265786.75846   -166680.18744  24429454.6334                   24429454.7934
 -30666594.37148 -23806113.69146  21763267.5554                   21763264.5234
 -56788382.90248 -44205447.69546  19822080.5394                   19822079.2304
 -72166366.10947 -56160275.98446  21551493.2274                   21551491.6454
 -39763555.35947 -30801440.10245  22345920.6644                   22345919.8874
 -17381174.99246 -13503689.80144  22839195.2274                   22839195.2894
 -59456283.35947 -46287336.64545  22114562.0394                   22114560.0594
 -21761704.54346 -16925997.85943  24470576.0234                   24470574.5394
 11  7 30  0 10 30.0000000  0  9G09G12G02G04G17G27G10G28G20
 -27831771.01647 -21520523.07445  21999341.3054                   21999340.4344
   -460488.99647   -318396.14844  24392404.3204                   24392404.1524
 -30832481.37548 -23935376.27046  21731700.6804                   21731697.6174
 -56879929.00048 -44276782.31646  19804660.4144                   19804658.2704
 -72230301.70747 -56210095.94946  21539326.9224                   21539324.9614
 -39855318.61747 -30872943.97345  22328458.4224                   22328457.8594
 -17568648.71947 -13649773.18044  22803519.8914                   22803519.7114
 -59491142.16847 -46314499.41445  22107928.0004                   22107926.6454
 -21807132.08646 -16961396.02043  24461931.1174                   24461930.9454
 11  7 30  0 11  0.0000000  0  9G09G12G02G04G17G27G10G28G20
 -27934724.19547 -21600746.34445  21979749.1564                   21979749.2934
   -655190.09847   -470111.26244  24355353.9614                   24355353.7504
 -30998025.96148 -24064371.99646  21700198.3524                   21700196.1454
 -56970919.61348 -44347684.09847  19787344.8984                   19787343.4924
 -72294145.08647 -56259844.06246  21527177.6884                   21527176.1994
 -39946595.72347 -30944069.01245  22311089.3284                   22311088.5474
 -17755951.25047 -13795723.12144  22767877.7504                   22767877.1604
 -59525624.77347 -46341369.01245  22101366.5394                   22101365.0234
 -21852094.29346 -16996431.53542  24453374.5084                   24453374.3094
 11  7 30  0 11 30.0000000  0  9G09G12G02G04G17G27G10G28G20
 -28037031.63347 -21680466.42645  21960280.5314                   21960280.2934
   -849888.77746   -621824.45743  24318303.7114                   24318303.9884
 -31163227.51248 -24193100.45346  21668761.7034                   21668758.3874
 -57061355.92248 -44418153.94946  19770135.4534                   19770133.9264
 -72357896.72748 -56309520.69146  21515046.4224                   21515044.6054
 -40037387.63747 -31014815.97345  22293811.8524                   22293810.8594
 -17943079.03147 -13941536.91044  22732268.2344                   22732267.4574
 -59559731.87947 -46367946.01645  22094876.2114                   22094874.7584
 -21896592.74646 -17031105.64842  24444907.2344                   24444906.5904
 11  7 30  0 12  0.0000000  0  9G09G12G02G04G17G27G10G28G20
 -28138690.10247 -21759680.83245  21940936.2034                   21940935.5984
  -1044579.75046   -773531.64543  24281254.6414                   24281255.5514
 -31328081.12148 -24321557.78946  21637391.3204                   21637388.0004
 -57151235.10248 -44488189.67246  19753032.1804                   19753030.5044
 -72421552.93047 -56359122.96146  21502933.1564                   21502931.4614
 -40127691.52047 -31085182.65245  22276627.7114                   22276627.2234
 -18130025.18747 -14087209.17644  22696694.0314                   22696693.1454
 -59593460.75847 -46394228.30145  22088457.8984                   22088456.0784
 -21940625.10946 -17065416.58243  24436527.8754                   24436528.2344
 11  7 30  0 12 30.0000000  0  8G09G12G02G04G17G27G10G28
 -26664277.61747 -20610788.00045  22221507.0634                   22221506.3914
    336164.85946    302373.30143  24544001.8134                   24544001.5784
 -29917161.32048 -23222139.71546  21905880.1254                   21905877.3954
 -55665136.43448 -43330190.71547  20035826.8444                   20035825.5124
 -70909692.42248 -55181049.85546  21790630.8444                   21790628.8714
 -38642085.98447 -29927567.97345  22559328.9384                   22559328.3954
 -16741361.10547 -13005133.19944  22960947.4534                   22960947.4224
 -58051391.16847 -45192615.68445  22381904.0084                   22381901.9534
 11  7 30  0 13  0.0000000  0  8G09G12G02G04G17G27G10G28
 -26764638.48047 -20688991.28945  22202408.9694                   22202408.5744
    141496.64846    150683.85543  24506957.7034                   24506957.6334
 -30081315.19948 -23350051.81246  21874642.5704                   21874639.7274
 -55753904.25848 -43399360.44946  20018935.3524                   20018933.7774
 -70973156.65248 -55230502.53146  21778553.6174                   21778551.9614
 -38731415.09047 -29997175.08245  22542330.3364                   22542329.5744
 -16927933.20347 -13150514.01644  22925444.4774                   22925443.3754
 -58084363.16047 -45218308.18045  22375629.5234                   22375627.6764
 11  7 30  0 13 30.0000000  0  8G09G12G02G04G17G27G10G28
 -26864345.52047 -20766685.07445  22183435.7734                   22183434.6134
    -53151.92646      -990.27743  24469916.2424                   24469917.7154
 -30245112.23048 -23477685.81246  21843473.0314                   21843469.8984
 -55842112.41048 -43468094.07046  20002150.0164                   20002148.4654
 -71036519.04348 -55279875.84446  21766495.7734                   21766494.0864
 -38820252.22347 -30066398.84445  22525424.7734                   22525424.4694
 -17114307.52747 -13295740.69145  22889977.8674                   22889978.2504
 -58116951.66847 -45243701.87545  22369427.9924                   22369426.7774
 11  7 30  0 14  0.0000000  0  8G09G12G02G04G17G27G10G28
 -26963398.60947 -20843869.31645  22164586.3984                   22164585.4574
   -247778.87147   -152647.63743  24432880.0394                   24432879.8914
 -30408551.12948 -23605040.77046  21812371.8204                   21812368.5084
 -55929761.55548 -43536392.11746  19985470.6094                   19985469.3834
 -71099779.29748 -55329169.56646  21754457.9534                   21754456.3364
 -38908597.78547 -30135239.57445  22508613.3444                   22508613.2424
 -17300480.12147 -13440810.17244  22854550.9384                   22854550.7114
 -58149156.64847 -45268796.71145  22363300.1024                   22363298.4574
 11  7 30  0 14 30.0000000  0  8G09G12G02G04G17G27G10G28
 -27061797.16447 -20920543.51245  22145862.2344                   22145860.4804
   -442380.80946   -304285.52043  24395849.4144                   24395848.2274
 -30571629.65248 -23732114.91446  21781338.9384                   21781335.8444
 -56016851.73048 -43604254.59446  19968897.8594                   19968896.1484
 -71162936.42248 -55378382.94146  21742439.7894                   21742437.9774
 -38996451.30147 -30203696.86745  22491895.6254                   22491894.9384
 -17486446.30147 -13585718.82844  22819161.9534                   22819162.6054
 -58180977.60247 -45293592.30545  22357244.9454                   22357243.1414
 11  7 30  0 15  0.0000000  0  8G09G12G02G04G17G27G10G28
 -27159541.77747 -20996708.16445  22127262.5314                   22127260.4454
   -636956.02346   -455902.52043  24358822.4454                   24358822.1724
 -30734346.87148 -23858907.52046  21750374.7274                   21750371.6484
 -56103383.94548 -43671682.28946  19952431.3054                   19952429.8324
 -71225989.99248 -55427515.60946  21730441.3914                   21730439.0234
 -39083813.78547 -30271771.55945  22475271.6414                   22475269.9224
 -17672202.44147 -13730463.80945  22783813.9304                   22783813.9804
 -58212414.86747 -45318088.93045  22351262.0004                   22351260.9224
 11  7 30  0 15 30.0000000  0  8G09G12G02G04G17G27G10G28
 -27256636.80147 -21072366.63745  22108784.8444                   22108783.5474
   -831506.25046   -607500.05544  24321800.8754                   24321800.8284
 -30896705.68748 -23985420.84846  21719478.9774                   21719475.6024
 -56189363.41448 -43738679.28546  19936070.1564                   19936068.6644
 -71288943.95347 -55476570.66446  21718461.8674                   21718459.6174
 -39170689.99247 -30339467.32845  22458739.2664                   22458737.9454
 -17857749.26247 -13875045.65644  22748505.5474                   22748505.6334
 -58243472.89147 -45342290.04345  22345352.1414                   22345350.7424
 11  7 30  0 16  0.0000000  0  8G09G12G02G04G17G27G10G28
 -27353081.32447 -21147518.22345  22090432.3134                   22090431.5204
  -1026028.07847   -759075.46144  24284784.9384                   24284784.4574
 -31058703.55548 -24111652.91446  21688651.7734                   21688648.4734
 -56274789.77348 -43805245.27347  19919814.0394                   19919812.6454
 -71351796.86347 -55525546.97746  21706500.7814                   21706498.9654
 -39257079.16048 -30406783.59045  22442299.8914                   22442298.8444
 -18043081.78547 -14019460.56245  22713238.3054                   22713238.2814
 -58274150.78547 -45366194.95345  22339514.7894                   22339513.1454
 11  7 30  0 16 30.0000000  0  8G09G12G02G04G17G27G10G28
 -27448872.72347 -21222160.89145  22072204.2034                   22072202.7544
  -1220516.32447   -910624.72744  24247775.3134                   24247774.8714
 -31220336.34448 -24237600.51246  21657894.0864                   21657890.5474
 -56359661.19148 -43871378.85246  19903663.5944                   19903662.0594
 -71414545.16847 -55574441.77046  21694560.1644                   21694558.1024
 -39342978.88347 -30473718.46545  22425953.1644                   22425952.5474
 -18228193.53947 -14163703.42645  22678012.1724                   22678012.2974
 -58304445.84847 -45389801.53545  22333749.5944                   22333747.5944
 11  7 30  0 17  0.0000000  0  8G09G12G02G04G17G27G10G28
 -27544011.86747 -21296295.30145  22054099.4064                   22054098.3164
  -1414969.35947  -1062146.53544  24210772.0314                   24210772.4104
 -31381603.21148 -24363262.97746  21627205.8054                   21627202.6054
 -56443978.78948 -43937080.87546  19887618.3364                   19887616.7234
 -71477188.73047 -55623254.96146  21682639.5474                   21682637.6334
 -39428390.07447 -30540272.67645  22409700.7584                   22409699.2934
 -18413081.31647 -14307771.75844  22642829.2114                   22642829.6524
 -58334358.66447 -45413110.27745  22328057.6484                   22328055.6294
 11  7 30  0 17 30.0000000  0  8G09G12G02G04G17G27G10G28
 -27638499.27748 -21369921.87545  22036119.7034                   22036117.6094
  -1609385.00047  -1213639.16444  24173775.9614                   24173775.9774
 -31542503.20348 -24488639.59046  21596587.4614                   21596584.3984
 -56527743.85548 -44002352.36347  19871678.4924                   19871677.2154
 -71539727.24647 -55671986.28946  21670738.6484                   21670736.6214
 -39513313.65247 -30606446.91445  22393539.7504                   22393539.3054
 -18597741.40647 -14451662.67245  22607689.2194                   22607689.6454
 -58363889.50847 -45436121.39845  22322437.8364                   22322436.4024
 11  7 30  0 18  0.0000000  0  8G09G12G02G04G17G27G10G28
 -27732337.37147 -21443042.48845  22018262.1024                   22018261.3914
  -1803763.16047  -1365102.65644  24136787.0474                   24136786.1214
 -31703037.26248 -24613731.03146  21566038.9614                   21566035.5084
 -56610959.34048 -44067195.60947  19855843.2974                   19855841.2034
 -71602162.73047 -55720637.32846  21658857.9614                   21658855.7814
 -39597752.27047 -30672243.27345  22377472.0864                   22377471.0274
 -18782172.02347 -14595374.80144  22572593.2664                   22572593.0164
 -58393040.72747 -45458836.69145  22316890.2814                   22316889.2154
 11  7 30  0 18 30.0000000  0  8G09G12G02G04G17G27G10G28
 -27825527.30547 -21515658.03545  22000529.0314                   22000527.8754
  -1998102.31247  -1516535.71144  24099806.0784                   24099805.4734
 -31863204.97348 -24738537.01646  21535560.2034                   21535556.4494
 -56693627.02348 -44131611.99246  19840111.8754                   19840110.5904
 -71664495.01648 -55769207.95746  21646996.1644                   21646994.2234
 -39681707.31648 -30737662.82045  22361496.1484                   22361494.9024
 -18966370.27747 -14738905.85244  22537541.8984                   22537541.6524
 -58421813.38347 -45481256.99645  22311415.1484                   22311413.6414
 11  7 30  0 19  0.0000000  0  8G09G12G02G04G17G27G10G28
 -27918070.28147 -21587769.46145  21982918.2194                   21982917.4304
  -2192400.57846  -1667936.85944  24062831.2114                   24062831.4024
 -32023005.56648 -24863056.94946  21505150.9064                   21505147.2424
 -56775748.42648 -44195602.69546  19824485.0864                   19824483.3444
 -71726724.83248 -55817698.74246  21635154.7274                   21635152.2034
 -39765180.28147 -30802706.71945  22345611.2114                   22345610.5274
 -19150332.92647 -14882253.31244  22502534.5234                   22502534.4574
 -58450208.37547 -45503383.00845  22306011.8914                   22306010.7974
 11  7 30  0 19 30.0000000  0  8G09G12G02G04G17G27G10G28
 -28009965.62147 -21659376.25045  21965432.1254                   21965430.4734
  -2386654.35247  -1819303.37544  24025866.8834                   24025864.8634
 -32182436.48448 -24987288.80546  21474812.2194                   21474808.7894
 -56857323.44148 -44259167.64546  19808961.6484                   19808959.9064
 -71788850.23848 -55866108.16046  21623332.6254                   21623330.2464
 -39848170.53547 -30867374.49645  22329818.7974                   22329818.1134
 -19334055.18047 -15025413.46545  22467573.8524                   22467573.2894
 -58478224.97347 -45525214.19945  22300680.7894                   22300678.8634
 11  7 30  0 20  0.0000000  0  8G09G12G02G04G17G27G10G28
 -28101215.41447 -21730480.00445  21948067.3754                   21948066.4884
  -2580862.92247  -1970634.63744  23988910.1484                   23988909.1954
 -32341498.58248 -25111233.28146  21444543.7584                   21444540.1374
 -56938354.89148 -44322309.03947  19793541.6884                   19793540.3054
 -71850872.38348 -55914437.11746  21611529.8594                   21611528.2114
 -39930680.46947 -30931667.98845  22314117.8754                   22314117.0634
 -19517535.01647 -15168384.71544  22432658.4144                   22432657.6524
 -58505864.73447 -45546751.74245  22295421.3834                   22295419.5594
 11  7 30  0 20 30.0000000  0  8G09G12G02G04G17G27G10G28
 -26616395.59047 -20573477.54745  22230619.4844                   22230617.8094
  -1199596.91047   -894323.36743  24251755.7344                   24251754.6374
 -30924764.37548 -24007284.52346  21714139.2974                   21714135.9184
 -55443419.78148 -43157424.54746  20078018.5004                   20078016.8594
 -70337367.42648 -54735082.62946  21899540.2584                   21899538.3444
 -38437286.87547 -29767984.69145  22598301.4924                   22598300.1604
 -18125341.08247 -14083558.21945  22697584.6174                   22697583.6174
 -56957706.21147 -44340394.49245  22590025.7814                   22590024.7234
 11  7 30  0 21  0.0000000  0  8G09G12G02G04G17G27G10G28
 -26706352.73847 -20643574.05145  22213500.9224                   22213499.9264
  -1393705.84047  -1045577.01243  24214818.3284                   24214816.1644
 -31083082.47748 -24130649.25446  21684012.0084                   21684009.0084
 -55523364.03548 -43219718.77746  20062805.6174                   20062803.9184
 -70399178.69148 -54783247.26646  21887778.1724                   21887776.0394
 -38518835.45747 -29831529.08645  22582783.0164                   22582782.0864
 -18308321.30547 -14226140.15644  22662764.9384                   22662763.6024
 -56984590.98447 -44361343.74245  22584909.8364                   22584908.2194
 11  7 30  0 21 30.0000000  0  8G09G12G02G04G17G27G10G28
 -26795668.36747 -20713170.65645  22196504.5394                   22196503.4494
  -1587765.14847  -1196791.99243  24177890.1484                   24177887.3714
 -31241030.55148 -24253725.64546  21653955.8284                   21653952.4264
 -55602770.27348 -43281593.78147  20047695.2114                   20047693.5434
 -70460887.50848 -54831332.07446  21876035.7734                   21876033.4534
 -38599908.23847 -29894702.69545  22567355.6174                   22567353.5664
 -18491050.00447 -14368526.10544  22627992.1954                   22627991.7114
 -57011102.44547 -44382002.06644  22579865.1644                   22579863.6254
 11  7 30  0 22  0.0000000  0  8G09G12G02G04G17G27G10G28
 -26884339.25047 -20782264.89145  22179630.8364                   22179630.0664
  -1781768.98047  -1347963.73444  24140972.5554                   24140969.7734
 -31398604.01648 -24376510.13746  21623970.4224                   21623967.3484
 -55681635.63748 -43343047.32046  20032687.3754                   20032686.0084
 -70522489.90648 -54879333.95346  21864312.7734                   21864311.0514
 -38680502.45747 -29957503.42645  22552018.6804                   22552018.1844
 -18673519.80147 -14510710.33645  22593269.4224                   22593268.5594
 -57037237.23047 -44402366.89544  22574892.0784                   22574889.9184
 11  7 30  0 22 30.0000000  0  8G09G12G02G04G17G27G10G28
 -26972368.65247 -20850859.24245  22162879.7734                   22162878.9264
  -1975717.19547  -1499092.21944  24104065.2584                   24104061.9574
 -31555804.00448 -24499003.61346  21594056.0474                   21594052.6884
 -55759963.84448 -43404082.29746  20017782.3984                   20017780.7814
 -70583987.88748 -54927254.46946  21852610.2664                   21852608.4844
 -38760621.10247 -30019933.56645  22536773.3204                   22536771.5784
 -18855729.19147 -14652691.62945  22558595.6954                   22558595.8094
 -57062998.25847 -44422440.48045  22569990.3054                   22569988.2114
 11  7 30  0 23  0.0000000  0  8G09G12G02G04G17G27G10G28
 -27059760.09847 -20918956.50445  22146249.5314                   22146248.4494
  -2169610.28147  -1650177.72343  24067168.5314                   24067165.6484
 -31712632.33248 -24621207.48046  21564212.9384                   21564209.8324
 -55837759.03548 -43464701.92646  20002978.2584                   20002976.6024
 -70645383.49648 -54975095.22346  21840927.2424                   21840925.2194
 -38840268.05548 -30081996.15245  22521616.7504                   22521615.9844
 -19037677.36347 -14794469.38345  22523972.3914                   22523971.8444
 -57088388.96147 -44442225.48444  22565158.0394                   22565156.5394
 11  7 30  0 23 30.0000000  0  8G09G12G02G04G17G27G10G28
 -27146513.47347 -20986556.57445  22129741.5554                   22129740.1564
  -2363444.89147  -1801217.63744  24030282.7344                   24030279.7504
 -31869087.14148 -24743120.29346  21534440.2814                   21534436.9804
 -55915021.40648 -43524906.38346  19988276.0474                   19988274.3364
 -70706675.59848 -55022855.32446  21829263.6724                   21829261.9534
 -38919443.40248 -30143691.25845  22506549.6884                   22506549.1484
 -19219360.02047 -14936040.23445  22489399.5234                   22489398.6334
 -57113408.73447 -44461721.48444  22560397.3364                   22560395.3594
 11  7 30  0 24  0.0000000  0  8G09G12G02G04G17G27G10G28
 -27232631.39848 -21053661.48445  22113353.9384                   22113352.6054
  -2557220.66847  -1952211.75444  23993408.6804                   23993404.9024
 -32025169.38348 -24864742.78946  21504739.0784                   21504735.6994
 -55991754.05548 -43584698.05946  19973674.3134                   19973672.5904
 -70767865.28548 -55070535.62946  21817619.5164                   21817618.1804
 -38998149.71148 -30205020.87145  22491572.9064                   22491572.0904
 -19400775.03947 -15077402.53144  22454877.1564                   22454876.4494
 -57138059.73047 -44480930.12545  22555706.3284                   22555704.7114
 11  7 30  0 24 30.0000000  0  8G09G12G02G04G17G27G10G28
 -27318113.73448 -21120271.11745  22097086.6724                   22097085.6914
  -2750934.48447  -2103157.54344  23956545.6804                   23956543.4774
 -32180877.06248 -24986073.43446  21475108.8284                   21475105.4574
 -56067957.35248 -43644077.26247  19959173.0004                   19959171.5514
 -70828951.20348 -55118135.07046  21805995.0474                   21805993.3364
 -39076386.99647 -30265985.02045  22476684.8984                   22476683.9184
 -19581917.82047 -15218552.70345  22420406.5164                   22420406.1484
 -57162341.84047 -44499851.29744  22551085.6094                   22551085.0824
 11  7 30  0 25  0.0000000  0  8G09G12G02G04G17G27G10G28
 -27402959.22347 -21186384.50845  22080941.2034                   22080940.2074
  -2944581.49246  -2254051.28144  23919695.2664                   23919694.1134
 -32336206.75448 -25107109.52046  21445550.8594                   21445547.2854
 -56143630.24248 -43703043.15647  19944773.0084                   19944771.5864
 -70889930.96547 -55165651.78946  21794391.4064                   21794389.6094
 -39154153.88748 -30326582.64545  22461886.8364                   22461885.4534
 -19762782.43447 -15359486.10945  22385989.3284                   22385988.5594
 -57186253.05547 -44518483.46945  22546536.1564                   22546534.4104
 11  7 30  0 25 30.0000000  0  8G09G12G02G04G17G27G10G28
 -27487170.64848 -21252003.82845  22064916.5084                   22064915.3634
  -3138161.41846  -2404892.71144  23882857.5784                   23882856.9344
 -32491159.83648 -25227852.15246  21416063.6724                   21416060.9304
 -56218776.10948 -43761598.39146  19930473.1174                   19930471.8014
 -70950805.84448 -55213086.77746  21782807.1564                   21782805.4574
 -39231453.62148 -30386816.21945  22447176.9844                   22447175.4654
 -19943367.36347 -15500201.60245  22351625.0004                   22351624.3054
 -57209796.23447 -44536828.85944  22542055.9384                   22542053.6524
 11  7 30  0 26  0.0000000  0  8G09G12G02G04G17G27G10G28
 -27570756.47748 -21317135.68045  22049011.1024                   22049009.9144
  -3331679.27046  -2555685.78744  23846032.0944                   23846032.5784
 -32645742.28548 -25348305.98846  21386647.7344                   21386644.4614
 -56293403.38348 -43819749.52046  19916272.1564                   19916270.8634
 -71011582.82848 -55260445.48846  21771241.3284                   21771240.1954
 -39308294.29348 -30446692.09445  22432554.3364                   22432553.7974
 -20123676.13347 -15640701.88745  22317313.1724                   22317312.9534
 -57232979.19147 -44554893.57844  22537643.7734                   22537642.4264
 11  7 30  0 26 30.0000000  0  8G09G12G02G04G17G27G10G28
 -27653713.28948 -21381777.36345  22033224.2344                   22033223.3594
  -3525128.35946  -2706425.28544  23809219.8834                   23809220.1604
 -32799949.09048 -25468467.10546  21357303.4304                   21357300.0394
 -56367509.21548 -43877494.32846  19902169.9844                   19902168.7274
 -71072256.86748 -55307723.97346  21759695.9304                   21759693.8014
 -39384672.66447 -30506207.75445  22418020.0084                   22418019.5944
 -20303700.73447 -15780980.75045  22283055.6804                   22283055.0864
 -57255797.58647 -44572674.18745  22533301.4304                   22533300.3634
 11  7 30  0 27  0.0000000  0  8G09G12G02G04G17G27G10G28
 -27736043.03948 -21445930.45345  22017557.6024                   22017557.1254
  -3718507.66846  -2857110.38744  23772422.0944                   23772421.1524
 -32953780.53548 -25588335.73846  21328030.0554                   21328026.4804
 -56441096.03548 -43934834.71547  19888167.0234                   19888165.4184
 -71132828.83648 -55354922.94146  21748169.6804                   21748167.6954
 -39460590.82447 -30565364.79745  22403573.6334                   22403572.5314
 -20483438.46947 -15921036.08245  22248852.6724                   22248852.5514
 -57278253.77047 -44590172.58244  22529028.5234                   22529027.5594
 11  7 30  0 27 30.0000000  0  8G09G12G02G04G17G27G10G28
 -27817745.71547 -21509594.88745  22002010.2894                   22002009.4384
  -3911813.42646  -3007738.16844  23735636.6644                   23735637.2384
 -33107234.79748 -25707910.46546  21298828.7194                   21298825.3244
 -56514164.41448 -43991771.12146  19874262.7114                   19874261.1174
 -71193297.13348 -55402041.10946  21736663.2194                   21736660.7194
 -39536048.97347 -30624163.38345  22389214.4304                   22389213.4384
 -20662885.06247 -16060864.55545  22214705.1724                   22214704.6604
 -57300347.27747 -44607388.34844  22524824.0634                   22524822.3634
 11  7 30  0 28  0.0000000  0  8G09G12G02G04G17G27G10G28
 -27898821.93748 -21572771.21145  21986582.0004                   21986581.0704
  -4105043.05147  -3158306.68044  23698867.0394                   23698866.6564
 -33260310.75048 -25827190.39846  21269699.0004                   21269695.6644
 -56586715.28548 -44048304.26646  19860456.3594                   19860455.3364
 -71253661.03148 -55449077.92246  21725176.1484                   21725174.1564
 -39611048.02347 -30682604.23845  22374942.2974                   22374941.5234
 -20842036.52347 -16200463.04745  22180613.5704                   22180613.1374
 -57322078.44147 -44624321.78544  22520688.5634                   22520687.5004
 11  7 30  0 28 30.0000000  0  8G09G12G02G04G17G27G10G28
 -27979272.05548 -21635459.62145  21971273.1174                   21971272.5354
  -4298193.21547  -3308813.27044  23662111.8204                   23662111.6804
 -33413006.56648 -25946174.13346  21240642.1884                   21240639.1024
 -56658749.08648 -44104434.50447  19846749.3444                   19846747.8754
 -71313919.09847 -55496032.28146  21713709.2664                   21713707.1804
 -39685588.15247 -30740687.49245  22360758.3834                   22360757.8634
 -21020888.09047 -16339827.87545  22146579.4454                   22146578.4184
 -57343446.56647 -44640972.36344  22516622.9224                   22516621.6484
 11  7 30  0 29  0.0000000  0  8G09G12G02G04G17G27G10G28
 -26483677.67247 -20470061.41445  22255874.8754                   22255874.1094
  -2915838.09447  -2231653.37544  23925164.8134                   23925165.0634
 -31989899.23048 -24837259.29746  21511450.2894                   21511447.4734
 -55154848.01248 -42932563.53947  20132931.9774                   20132930.6054
 -69798651.65647 -54315304.41846  22002055.1174                   22002052.9414
 -38184250.91847 -29570814.36345  22646453.0704                   22646452.7114
 -19624013.48047 -15251354.09445  22412395.8204                   22412394.9414
 -55789034.85247 -43429742.52344  22812418.0084                   22812416.1254
 11  7 30  0 29 30.0000000  0  8G09G12G02G04G17G27G10G28
 -26562882.03147 -20531779.12145  22240802.4454                   22240801.9264
  -3108824.93047  -2382032.72344  23888441.0234                   23888440.8134
 -32141834.76248 -24955650.60546  21482538.2814                   21482534.8134
 -55225855.01648 -42987893.66846  20119419.4774                   20119418.2034
 -69858699.19947 -54362094.73446  21990628.1414                   21990626.6094
 -38257879.34047 -29628187.16845  22632442.0234                   22632441.5744
 -19802257.43447 -15390245.43445  22378476.1954                   22378476.3324
 -55809682.69947 -43445831.83244  22808488.5634                   22808486.6414
 11  7 30  0 30  0.0000000  0  8G09G12G02G04G17G27G10G28
 -26641468.44147 -20593015.30145  22225848.2424                   22225847.8444
  -3301730.12547  -2532348.48844  23851732.2504                   23851731.0274
 -32293392.24248 -25073747.31646  21453697.5704                   21453694.2544
 -55296354.13748 -43042828.05946  20106004.2974                   20106003.0204
 -69918644.05947 -54408805.04346  21979221.2344                   21979219.3554
 -38331056.95347 -29685208.72745  22618516.7814                   22618516.1414
 -19980195.26247 -15528898.25045  22344616.7034                   22344616.0084
 -55829974.39547 -43461643.59844  22804627.3134                   22804625.6294
 11  7 30  0 30 30.0000000  0  8G09G12G02G04G17G27G10G28
 -26719434.25847 -20653767.91845  22211012.3524                   22211011.2544
  -3494547.07447  -2682595.40644  23815040.2584                   23815039.0274
 -32444567.14848 -25191545.91846  21424930.1804                   21424926.6454
 -55366342.87148 -43097364.73846  20092685.7814                   20092684.4064
 -69978481.55948 -54455431.68046  21967834.5704                   21967832.5554
 -38403781.02747 -29741876.88345  22604677.7274                   22604677.3484
 -20157819.60947 -15667306.80145  22310815.4384                   22310815.4104
 -55849906.89847 -43477175.50444  22800834.1954                   22800832.5314
 11  7 30  0 31  0.0000000  0  8G09G12G02G04G17G27G10G28
 -26796778.61347 -20714036.25045  22196293.5784                   22196292.9964
  -3687271.35947  -2832770.17243  23778365.6174                   23778364.2664
 -32595356.92648 -25309044.42246  21396235.6094                   21396232.0274
 -55435820.68748 -43151503.30546  20079464.7584                   20079463.1844
 -70038209.62948 -54501973.06246  21956468.8524                   21956466.7154
 -38476050.97747 -29798191.16045  22590925.1094                   22590924.5354
 -20335124.80147 -15805466.66445  22277075.6414                   22277075.1374
 -55869479.25847 -43492426.76644  22797109.7424                   22797108.2234
 11  7 30  0 31 30.0000000  0  8G09G12G02G04G17G27G10G28
 -26873506.02747 -20773823.87545  22181693.0084                   22181692.4884
  -3879903.49647  -2982873.14544  23741708.8524                   23741707.0744
 -32745763.34048 -25426244.21146  21367614.1884                   21367610.8754
 -55504792.15248 -43205247.30546  20066339.8754                   20066338.8754
 -70097830.68047 -54548431.04346  21945123.3134                   21945120.9734
 -38547870.74647 -29854154.65645  22577258.8054                   22577257.7734
 -20512110.23047 -15943377.35245  22243396.5704                   22243395.6214
 -55888694.72747 -43507399.92644  22793453.2194                   22793452.1684
 11  7 30  0 32  0.0000000  0  8G09G12G02G04G17G27G10G28
 -26949620.82048 -20833134.12945  22167208.7734                   22167208.4104
  -4072444.53547  -3132905.04344  23705069.5314                   23705068.5704
 -32895789.10948 -25543147.39546  21339065.2114                   21339061.8524
 -55573261.90648 -43258600.37146  20053310.4924                   20053309.6764
 -70157347.37148 -54594807.70346  21933797.8364                   21933795.9224
 -38619244.96547 -29909770.97345  22563676.2194                   22563675.3444
 -20688775.67247 -16081038.68445  22209778.0554                   22209777.2854
 -55907557.37147 -43522098.16444  22789863.4384                   22789862.6994
 11  7 30  0 32 30.0000000  0  8G09G12G02G04G17G27G10G28
 -27025123.48447 -20891967.38345  22152841.6884                   22152840.5904
  -4264890.63347  -3282862.95744  23668448.7274                   23668448.1914
 -33045432.48048 -25659752.60546  21310589.0634                   21310585.3444
 -55641230.68748 -43311563.07046  20040376.9614                   20040375.2034
 -70216758.15248 -54641101.85545  21922491.9384                   21922490.0594
 -38690173.85247 -29965040.27345  22550179.4614                   22550178.4494
 -20865116.37147 -16218446.99245  22176221.5554                   22176220.5594
 -55926067.09847 -43536521.40244  22786341.0864                   22786340.1334
 11  7 30  0 33  0.0000000  0  8G09G12G02G04G17G27G10G28
 -27100013.23048 -20950323.07445  22138590.4454                   22138589.7114
  -4457237.62547  -3432743.66444  23631846.6804                   23631845.1174
 -33194690.41848 -25776057.47346  21282186.5554                   21282182.6334
 -55708697.64148 -43364134.72746  20027538.1484                   20027536.7504
 -70276060.16448 -54687311.24246  21911207.3914                   21911205.3324
 -38760656.64847 -30019961.95745  22536767.0864                   22536765.3954
 -21041126.89147 -16355598.00845  22142727.5784                   22142727.0594
 -55944222.55547 -43550668.57844  22782886.1484                   22782885.7154
 11  7 30  0 33 30.0000000  0  8G09G12G02G04G17G27G10G28
 -27174289.92647 -21008201.03545  22124456.2034                   22124454.6374
  -4649481.41047  -3582543.97744  23595263.5004                   23595262.9844
 -33343560.78948 -25892060.33646  21253857.1254                   21253853.9184
 -55775663.17248 -43416315.66046  20014794.9924                   20014793.5084
 -70335251.43748 -54733434.33645  21899943.8524                   21899941.4344
 -38830693.08647 -30074535.84045  22523438.6954                   22523438.1134
 -21216801.91447 -16492487.60245  22109297.6954                   22109297.2814
 -55962023.02747 -43564539.14844  22779499.5234                   22779498.9264
 11  7 30  0 34  0.0000000  0  8G09G12G02G04G17G27G10G28
 -27247959.19947 -21065605.68445  22110437.3984                   22110435.9774
  -4841623.73847  -3732265.19945  23558700.1724                   23558699.0514
 -33492047.41048 -26007764.18046  21225601.2194                   21225597.5864
 -55842133.09448 -43468110.41846  20002146.1564                   20002144.8594
 -70394335.89148 -54779474.19545  21888699.8834                   21888698.3404
 -38900288.97747 -30128766.43445  22510195.2814                   22510194.5044
 -21392142.12947 -16629116.30145  22075931.5944                   22075931.0554
 -55979473.66047 -43578137.11344  22776179.2344                   22776177.4694
 11  7 30  0 34 30.0000000  0  8G09G12G02G04G17G27G10G28
 -27321019.01248 -21122535.43045  22096534.3914                   22096533.5904
  -5033658.72747  -3881902.80945  23522156.6334                   23522155.5084
 -33640145.85948 -26123165.55146  21197419.1644                   21197415.5124
 -55908105.10548 -43519517.18447  19989591.8914                   19989590.6524
 -70453309.12948 -54825427.39145  21877477.9304                   21877476.0824
 -38969441.83247 -30182651.82444  22497036.1884                   22497035.2624
 -21567140.23447 -16765478.42645  22042630.9844                   22042630.0824
 -55996571.70747 -43591460.33644  22772925.3594                   22772924.6484
 11  7 30  0 35  0.0000000  0  8G09G12G02G04G17G27G10G28
 -27393471.84047 -21178992.21145  22082747.2114                   22082746.3404
  -5225584.91047  -4031455.60244  23485634.0394                   23485633.0944
 -33787856.60948 -26238264.81646  21169310.2734                   21169307.0044
 -55973582.27348 -43570538.36746  19977132.2194                   19977130.5394
 -70512171.63747 -54871294.28545  21866276.8364                   21866274.8834
 -39038154.19147 -30236193.94545  22483960.8754                   22483959.6174
 -21741793.82447 -16901572.10945  22009395.2274                   22009394.9104
 -56013318.89847 -43604510.16044  22769738.8524                   22769737.3524
 11  7 30  0 35 30.0000000  0  8G09G12G02G04G17G27G10G28
 -27465322.98048 -21234980.12945  22069074.3284                   22069073.1334
  -5417403.67647  -4180924.73044  23449131.8984                   23449131.2274
 -33935183.10548 -26353064.66846  21141274.9224                   21141271.5904
 -56038570.00048 -43621178.15646  19964765.3984                   19964764.1374
 -70570927.50447 -54917078.10545  21855096.0084                   21855094.2774
 -39106431.46147 -30289397.06245  22470967.8594                   22470966.9924
 -21916103.51247 -17037397.80945  21976224.6254                   21976224.4384
 -56029720.32047 -43617290.54344  22766617.4614                   22766616.2814
 11  7 30  0 36  0.0000000  0  8G09G12G02G04G17G27G10G28
 -27536569.94947 -21290497.28945  22055516.5944                   22055515.4694
  -5609108.45747  -4330305.01644  23412651.6724                   23412651.1134
 -34082120.59448 -26467561.39846  21113313.7424                   21113310.5004
 -56103066.11348 -43671434.88746  19952492.3674                   19952490.9964
 -70629571.56248 -54962774.79346  21843936.5944                   21843934.6334
 -39174270.98847 -30342259.06245  22458058.9384                   22458058.1374
 -22090061.85547 -17172949.73045  21943122.1334                   21943121.5594
 -56045773.04347 -43629799.21944  22763562.9614                   22763561.8524
 11  7 30  0 36 30.0000000  0  8G09G12G02G04G17G27G10G28
 -27607217.48047 -21345547.31645  22042072.3594                   22042072.1414
  -5800699.94547  -4479597.01644  23376193.5554                   23376193.1764
 -34228671.41048 -26581756.82046  21085426.1024                   21085422.9804
 -56167075.13748 -43721312.05146  19940311.9534                   19940310.2624
 -70688106.38747 -55008386.35946  21832797.7274                   21832796.1454
 -39241677.26647 -30394783.47745  22445231.8204                   22445231.2384
 -22263668.47347 -17308227.57845  21910085.7974                   21910084.9654
 -56061480.64147 -43642038.97744  22760574.0784                   22760572.7894
 11  7 30  0 37  0.0000000  0  8G09G12G02G04G17G27G10G28
 -26101842.59047 -20172527.97345  22328535.9694                   22328535.1804
  -4416746.63347  -3401191.77745  23639551.5554                   23639550.3634
 -32799408.03948 -25468045.09046  21357405.7814                   21357402.0434
 -54655174.29348 -42543207.49647  20228016.7664                   20228015.5944
 -69171107.24647 -53826309.12146  22121472.8524                   22121471.2734
 -37733227.41047 -29219368.03545  22732280.3674                   22732279.2274
 -20861491.37547 -16215622.02345  22176911.2974                   22176910.5394
 -54501421.14547 -42426408.24644  23057443.5474                   23057442.4104
 11  7 30  0 37 30.0000000  0  8G09G12G02G04G17G27G10G28
 -26171294.31647 -20226646.23445  22315320.3594                   22315318.6604
  -4608102.02747  -3550299.85245  23603137.6484                   23603135.6604
 -32945182.31248 -25581635.41046  21329665.7584                   21329662.7154
 -54718212.32048 -42592328.04346  20216021.2894                   20216019.8244
 -69229420.21547 -53871747.84045  22110376.1334                   22110375.3014
 -37799770.07847 -29271219.51645  22719617.6174                   22719615.8794
 -21034381.33647 -16350341.44145  22144011.4304                   22144010.4384
 -54516439.42247 -42438110.88744  23054585.3204                   23054584.2234
 11  7 30  0 38  0.0000000  0  8G09G12G02G04G17G27G10G28
 -26240148.18447 -20280298.60545  22302217.7114                   22302216.6024
  -4799333.33647  -3699311.21545  23566747.1564                   23566746.1174
 -33090564.71548 -25694920.39146  21302000.5234                   21301997.0314
 -54780765.13748 -42641070.50446  20204117.5944                   20204116.2304
 -69287618.71147 -53917097.32845  22099301.4224                   22099300.0904
 -37865880.48847 -29322734.15645  22707037.4694                   22707036.2664
 -21206905.14547 -16484775.53945  22111181.1564                   22111179.6254
 -54531112.11747 -42449544.22344  23051793.8594                   23051792.0164
 11  7 30  0 38 30.0000000  0  8G09G12G02G04G17G27G10G28
 -26308407.48847 -20333487.72745  22289228.0314                   22289227.1294
  -4990440.03547  -3848225.50845  23530381.3594                   23530380.1294
 -33235556.71548 -25807901.14546  21274409.2344                   21274406.1914
 -54842836.16048 -42689437.53947  20192305.9224                   20192304.6414
 -69345704.39547 -53962358.91845  22088248.4774                   22088246.0204
 -37931562.13747 -29373914.71145  22694539.0314                   22694538.3984
 -21379061.55147 -16618923.35545  22078420.7664                   22078419.6054
 -54545442.04747 -42460710.46144  23049065.9384                   23049065.0234
 11  7 30  0 39  0.0000000  0  8G09G12G02G04G17G27G10G28
 -26376075.70747 -20386216.23045  22276351.4144                   22276350.8284
  -5181420.84847  -3997041.67245  23494038.1174                   23494037.8054
 -33380159.43048 -25920578.57446  21246892.2424                   21246889.0474
 -54904428.78148 -42737431.79746  20180585.2504                   20180583.5864
 -69403677.93048 -54007533.11745  22077216.4774                   22077214.3164
 -37996817.94947 -29424763.41445  22682120.8054                   22682120.5274
 -21550848.43047 -16752783.22745  22045730.1884                   22045729.7814
 -54559431.55547 -42471611.44144  23046404.6884                   23046403.7234
 11  7 30  0 39 30.0000000  0  9G09G12G02G04G17G27G10G28G05
 -26443153.48047 -20438484.65245  22263586.2504                   22263586.2034
  -5372272.10547  -4145756.89845  23457720.0314                   23457720.2074
 -33524371.28148 -26032951.43046  21219449.8984                   21219446.3714
 -54965543.50048 -42785053.66446  20168955.5634                   20168954.1604
 -69461537.84048 -54052618.77345  22066205.8594                   22066203.8244
 -38061648.65247 -29475280.88345  22669784.3914                   22669783.4024
 -21722261.15647 -16886351.54745  22013111.6954                   22013111.3834
 -54573080.88347 -42482247.34444  23043807.4694                   23043806.2814
   7583363.59456   5950893.30553  24710660.7424                   24710661.4884
 11  7 30  0 40  0.0000000  0  9G09G12G02G04G17G27G10G28G05
 -26509647.58647 -20490298.28945  22250933.5474                   22250932.9574
  -5562996.28147  -4294373.07444  23421427.0784                   23421426.5634
 -33668196.66448 -26145023.14146  21192080.9144                   21192077.4144
 -55026187.25048 -42832308.55146  20157415.6484                   20157413.9574
 -69519288.70348 -54097619.45745  22055216.6724                   22055214.7234
 -38126060.66847 -29525472.08645  22657526.9774                   22657526.2544
 -21893301.38347 -17019629.60545  21980564.1564                   21980563.4494
 -54586396.03147 -42492622.85544  23041273.0234                   23041272.4654
   7382180.28946   5794127.31343  24672376.6954                   24672377.6374
 11  7 30  0 40 30.0000000  0  9G09G12G02G04G17G27G10G28G05
 -26575564.87547 -20541662.44545  22238390.2734                   22238389.3634
  -5753596.06247  -4442892.35244  23385156.5784                   23385155.9454
 -33811640.31648 -26256797.39846  21164784.2814                   21164781.3244
 -55086367.06248 -42879201.91046  20145963.7504                   20145962.2664
 -69576934.91048 -54142538.58645  22044246.9384                   22044244.7074
 -38190061.02047 -29575342.53145  22645348.3054                   22645347.8094
 -22063970.78147 -17152618.71145  21948086.7424                   21948086.0164
 -54599382.86747 -42502742.54744  23038802.2194                   23038801.2734
   7180924.48846   5637304.77743  24634078.1484                   24634079.8554
 11  7 30  0 41  0.0000000  0  9G09G12G02G04G17G27G10G28G05
 -26640904.44147 -20592576.42245  22225955.7894                   22225955.8404
  -5944066.83247  -4591311.05944  23348911.8834                   23348911.2704
 -33954699.31648 -26368271.94546  21137561.3134                   21137557.7464
 -55146082.05948 -42925733.08646  20134600.3364                   20134598.7934
 -69634473.30548 -54187373.71545  22033297.8204                   22033295.7424
 -38253648.63347 -29624891.35945  22633248.0704                   22633247.6644
 -22234263.23847 -17285314.09845  21915680.7894                   21915680.3524
 -54612039.98847 -42512605.31244  23036394.1954                   23036392.8984
   6979601.75446   5480430.10544  24595767.3754                   24595770.6174
 11  7 30  0 41 30.0000000  0  9G09G12G02G04G17G27G10G28G05
 -26705667.42647 -20643041.12145  22213632.0474                   22213631.1644
  -6134405.00847  -4739626.52044  23312691.7194                   23312690.1884
 -34097372.36748 -26479445.73046  21110411.4384                   21110408.2384
 -55205333.40248 -42971902.97346  20123324.9534                   20123323.9454
 -69691902.54347 -54232123.77745  22022369.5784                   22022367.3834
 -38316824.33647 -29674119.21945  22621225.8134                   22621226.0944
 -22404175.02747 -17417712.86345  21883348.1094                   21883347.2934
 -54624367.96947 -42522211.62544  23034048.0944                   23034046.6764
   6778215.49646   5323505.96944  24557445.3134                   24557446.6684
 11  7 30  0 42  0.0000000  0  9G09G12G02G04G17G27G10G28G05
 -26769853.18447 -20693056.04345  22201418.3364                   22201418.1484
  -6324605.56247  -4887834.73445  23276497.3674                   23276496.0274
 -34239656.31648 -26590316.32046  21083335.5084                   21083332.1454
 -55264120.21148 -43017710.88346  20112138.4534                   20112136.9534
 -69749219.55548 -54276786.39145  22011462.1484                   22011459.8914
 -38379587.08647 -29723025.29345  22609282.6564                   22609282.4494
 -22573699.75447 -17549810.02045  21851088.0164                   21851087.7304
 -54636365.26647 -42531560.25044  23031764.8524                   23031763.7894
   6576771.04747   5166536.44144  24519111.7424                   24519113.1414
 11  7 30  0 42 30.0000000  0  9G09G12G02G04G17G27G10G28G05
 -26833465.47347 -20742624.07845  22189313.1094                   22189312.6254
  -6514667.76647  -5035935.13345  23240329.3204                   23240328.9804
 -34381552.92648 -26700885.08246  21056333.5234                   21056330.1294
 -55322446.27748 -43063159.77346  20101039.2734                   20101037.7704
 -69806425.85248 -54321362.75045  22000575.8364                   22000574.0784
 -38441940.47747 -29771612.39545  22597416.8444                   22597416.8834
 -22742836.25847 -17681604.66845  21818902.5314                   21818902.1804
 -54648034.82047 -42540653.46544  23029544.3284                   23029543.0474
   6375269.31347   5009522.26644  24480767.2974                   24480768.2344
 11  7 30  0 43  0.0000000  0  9G09G12G02G04G17G27G10G28G05
 -26896504.71547 -20791745.59445  22177317.5164                   22177317.1294
  -6704587.31647  -5183924.37144  23204189.3444                   23204188.0664
 -34523060.55548 -26811150.75046  21029405.7274                   21029402.5944
 -55380312.22748 -43108250.13746  20090027.6484                   20090026.2814
 -69863519.24648 -54365851.12545  21989711.7194                   21989709.8524
 -38503884.79747 -29819880.74645  22585629.3204                   22585629.2704
 -22911579.59047 -17813092.94545  21786792.1644                   21786791.2934
 -54659376.27747 -42549491.06244  23027385.9384                   23027385.3364
   6173714.72347   4852466.90244  24442412.5554                   24442413.6524
 11  7 30  0 43 30.0000000  0  9G09G12G02G04G17G27G10G28G05
 -26958974.88347 -20840423.68445  22165429.3834                   22165429.9304
  -6894363.69147  -5331802.01645  23168076.4534                   23168075.5124
 -34664179.93748 -26921113.88746  21002551.0704                   21002547.7734
 -55437721.35948 -43152984.53146  20079103.2034                   20079101.7274
 -69920500.99648 -54410252.51645  21978868.3754                   21978866.4694
 -38565423.45747 -29867832.97745  22573919.1644                   22573918.8444
 -23079927.88347 -17944273.39845  21754756.2974                   21754755.6954
 -54670392.33647 -42558075.07444  23025289.9924                   23025288.7154
   5972108.12547   4695371.04744  24404048.2034                   24404049.5474
 11  7 30  0 44  0.0000000  0  9G09G12G02G04G17G27G10G28G05
 -27020874.32447 -20888657.05145  22153650.2114                   22153650.2274
  -7083990.97747  -5479563.50845  23131990.8054                   23131990.0634
 -34804907.76248 -27030771.91046  20975771.4924                   20975768.0594
 -55494672.18048 -43197361.80946  20068265.7424                   20068264.2384
 -69977366.44148 -54454563.28945  21968047.0164                   21968045.4224
 -38626554.80947 -29915467.83245  22562285.9534                   22562285.8404
 -23247874.62147 -18075140.96145  21722797.1414                   21722796.8524
 -54681081.15247 -42566404.08244  23023255.5784                   23023255.2424
   5770456.02346   4538239.71144  24365673.8754                   24365676.0004
 11  7 30  0 44 30.0000000  0  9G09G12G02G04G17G27G10G28G05
 -27082205.12547 -20936447.30945  22141979.7114                   22141979.8204
  -7273466.57447  -5627206.78945  23095935.2034                   23095933.2424
 -34945243.61348 -27140124.49246  20949066.7504                   20949063.6294
 -55551166.38748 -43241383.27346  20057515.4694                   20057513.7464
 -70034115.67648 -54498783.50845  21957248.5394                   21957246.6764
 -38687280.51647 -29962786.61745  22550730.0234                   22550730.1914
 -23415416.02047 -18205692.66045  21690914.4454                   21690914.4694
 -54691443.46547 -42574478.66844  23021283.6884                   23021283.0394
   5568761.42246   4381075.26643  24327292.9534                   24327293.6524
 11  7 30  0 45  0.0000000  0  9G09G12G02G04G17G27G10G28G05
 -25567544.75847 -19756192.52345  22430210.3674                   22430209.5354
  -5887358.82047  -4547122.78545  23359702.3914                   23359701.2114
 -33509759.80148 -26021565.66046  21222229.8524                   21222226.6214
 -54031781.78948 -42057447.23046  20346644.5004                   20346643.0234
 -68515323.74648 -53315309.31245  22246264.5164                   22246262.9384
 -37172177.89547 -28782187.22345  22839045.0554                   22839044.5864
 -22007120.77047 -17108319.71145  21958904.5084                   21958904.5084
 -53126057.48047 -41354697.48444  23319166.6644                   23319166.4924
   6942456.15646   5451486.92243  24588698.2114                   24588699.3094
 11  7 30  0 45 30.0000000  0  9G09G12G02G04G17G27G10G28G05
 -25627745.52747 -19803102.23845  22418754.3204                   22418753.4534
  -6076524.43447  -4694524.52045  23323705.8834                   23323703.0984
 -33649311.99648 -26130307.61746  21195674.1254                   21195670.5514
 -54087370.48848 -42100763.10546  20336066.5314                   20336064.9064
 -68571839.98447 -53359347.98445  22235510.0234                   22235508.4774
 -37232099.11347 -28828879.10545  22827641.9064                   22827642.4734
 -22173843.23048 -17238233.28545  21927178.4534                   21927177.6724
 -53135771.84847 -41362267.21144  23317318.2034                   23317317.8594
   6740683.23446   5294261.39143  24550302.1484                   24550302.8954
 11  7 30  0 46  0.0000000  0  9G09G12G02G04G17G27G10G28G05
 -25687384.03147 -19849573.84845  22407405.5554                   22407404.8134
  -6265530.69147  -4841802.09045  23287739.0394                   23287736.1804
 -33788471.38748 -26238743.49646  21169193.0474                   21169189.8404
 -54142508.68748 -42143727.93746  20325573.7504                   20325572.7774
 -68628238.25847 -53403294.71945  22224777.7584                   22224776.3444
 -37291620.34447 -28875259.34845  22816315.1414                   22816315.7704
 -22340151.10947 -17367823.80545  21895530.9454                   21895529.9654
 -53145163.93747 -41369585.80544  23315531.3754                   23315531.0004
   6538875.74246   5137008.97343  24511899.0704                   24511900.3094
 11  7 30  0 46 30.0000000  0  9G09G12G02G04G17G27G10G28G05
 -25746464.93747 -19895610.96945  22396162.6024                   22396162.4144
  -6454377.76647  -4988955.61344  23251802.4774                   23251800.0944
 -33927240.42248 -26346875.20346  21142786.2974                   21142782.5084
 -54197201.02048 -42186345.34846  20315166.2424                   20315164.6844
 -68684520.63347 -53447151.16845  22214067.5474                   22214066.4104
 -37350746.01647 -28921331.32444  22805064.2274                   22805064.3014
 -22506043.73047 -17497090.76645  21863962.6804                   21863962.0984
 -53154237.11347 -41376655.88744  23313804.9454                   23313803.9844
   6337034.29746   4979730.09043  24473489.7274                   24473491.1844
 11  7 30  0 47  0.0000000  0  9G09G12G02G04G17G27G10G28G05
 -25804987.69947 -19941213.15645  22385025.4774                   22385025.4574
  -6643060.55147  -5135981.16044  23215897.2274                   23215894.7114
 -34065616.00848 -26454700.32846  21116454.3204                   21116450.2894
 -54251446.71548 -42228614.72746  20304843.7584                   20304842.3134
 -68740683.62548 -53490914.56245  22203379.8524                   22203379.0664
 -37409475.20347 -28967094.37945  22793889.1254                   22793888.8054
 -22671514.71547 -17626029.16845  21832474.7584                   21832473.9614
 -53162990.03547 -41383476.40244  23312139.4534                   23312139.2424
   6135164.54746   4822429.07444  24435075.0784                   24435077.2544
 11  7 30  0 47 30.0000000  0  9G09G12G02G04G17G27G10G28G05
 -25862955.11347 -19986382.61345  22373995.5314                   22373994.9574
  -6831577.14147  -5282877.18444  23180023.7344                   23180021.4804
 -34203598.91048 -26562219.45346  21090196.9144                   21090193.2774
 -54305248.85248 -42270538.48046  20294605.6564                   20294604.2304
 -68796727.64548 -53534585.26245  22192715.1724                   22192713.8914
 -37467810.66847 -29012550.65245  22782787.6954                   22782788.0084
 -22836561.59847 -17754637.09045  21801067.2114                   21801066.5274
 -53171424.90247 -41390049.09844  23310533.8524                   23310534.1604
   5933268.01646   4665107.32843  24396655.7584                   24396656.8634
 11  7 30  0 48  0.0000000  0  9G09G12G02G04G17G27G10G28G05
 -25920369.11347 -20031120.83245  22363069.5784                   22363069.2114
  -7019924.78947  -5429641.54344  23144182.0234                   23144179.8554
 -34341188.45348 -26669432.06246  21064014.0784                   21064011.0984
 -54358608.66048 -42312117.55546  20284451.6484                   20284450.1764
 -68852651.44548 -53578162.27745  22182073.5164                   22182072.3674
 -37525754.00047 -29057701.33244  22771762.0234                   22771761.7464
 -23001180.95348 -17882911.88345  21769740.8204                   21769740.2584
 -53179542.67647 -41396374.73044  23308988.8984                   23308989.6524
   5731347.66846   4507766.98844  24358231.0004                   24358232.4184
 11  7 30  0 48 30.0000000  0  9G09G12G02G04G17G27G10G28G05
 -25977236.22747 -20075432.91845  22352248.4064                   22352247.8524
  -7208104.94147  -5576275.39144  23108371.8914                   23108369.9184
 -34478388.66848 -26776341.30546  21037906.2194                   21037902.6094
 -54411532.48848 -42353356.91446  20274380.6254                   20274379.0354
 -68908459.27748 -53621648.93445  22171453.5084                   22171452.1564
 -37583311.10547 -29102551.07045  22760809.1174                   22760808.9414
 -23165373.85547 -18010854.36745  21738496.4144                   21738495.2074
 -53187348.84047 -41402457.50444  23307503.6954                   23307503.3594
   5529402.70346   4350407.43444  24319801.5314                   24319803.1134
 11  7 30  0 49  0.0000000  0  9G09G12G02G04G17G27G10G28G05
 -26033559.04347 -20119320.87145  22341530.1024                   22341529.9024
  -7396115.49247  -5722777.06245  23072594.7894                   23072592.9774
 -34615199.72348 -26882947.30946  21011871.7974                   21011868.6294
 -54464022.86748 -42394258.51646  20264391.7814                   20264390.3714
 -68964150.57447 -53665044.77745  22160855.6174                   22160854.2234
 -37640484.48447 -29147101.78945  22749929.6644                   22749928.9574
 -23329137.37548 -18138462.27345  21707332.8054                   21707332.0084
 -53194845.05546 -41408298.84043  23306077.7274                   23306077.6954
   5327435.78146   4193030.76644  24281368.6414                   24281369.9614
 11  7 30  0 49 30.0000000  0  9G09G12G02G04G17G27G10G28G05
 -26089336.94547 -20162784.18745  22330916.5004                   22330916.1644
  -7583950.78947  -5869142.18445  23036851.6414                   23036848.4264
 -34751618.67248 -26989247.77046  20985912.3834                   20985908.8754
 -54516078.75848 -42434821.55546  20254486.1724                   20254484.3914
 -69019722.10948 -53708347.29745  22150281.2274                   22150279.3404
 -37697272.96147 -29191352.60244  22739123.1174                   22739123.1024
 -23492465.23047 -18265730.69945  21676253.1954                   21676251.5744
 -53202029.61746 -41413897.24643  23304710.8054                   23304710.1454
   5125452.39147   4035641.30944  24242933.2274                   24242934.3284
 11  7 30  0 50  0.0000000  0  9G09G12G02G04G17G27G10G28G05
 -26144575.48047 -20205827.23445  22320405.0084                   22320404.3134
  -7771611.45747  -6015371.24645  23001141.2734                   23001138.8754
 -34887648.12148 -27095244.73846  20960026.6094                   20960022.9304
 -54567705.40648 -42475050.12146  20244662.0634                   20244660.1954
 -69075176.07047 -53751558.18045  22139728.6334                   22139727.0124
 -37753681.68447 -29235307.50844  22728389.5704                   22728387.9454
 -23655357.68448 -18392659.86345  21645255.3984                   21645254.2464
 -53208907.23846 -41419256.51643  23303401.8444                   23303400.9494
   4923452.32846   3878238.80944  24204493.1564                   24204494.3874
 11  7 30  0 50 30.0000000  0  9G09G12G02G04G17G27G10G28G05
 -26199276.59847 -20248451.52345  22309995.7424                   22309995.1374
  -7959094.89547  -6161462.19945  22965463.7734                   22965461.2894
 -35023288.21148 -27200938.28946  20934215.2734                   20934211.4924
 -54618904.59048 -42514945.60246  20234919.0234                   20234917.5704
 -69130511.65648 -53794676.83245  22129198.6094                   22129196.9414
 -37809712.69147 -29278968.05144  22717726.7664                   22717725.3014
 -23817811.41847 -18519247.15645  21614341.7194                   21614340.5984
 -53215478.95346 -41424377.40243  23302151.0234                   23302150.3244
   4721438.32046   3720825.48844  24166051.4774                   24166052.3324
 11  7 30  0 51  0.0000000  0  9G09G12G02G04G17G27G10G28G05
 -26253436.25047 -20290653.89845  22299689.3754                   22299688.7274
  -8146392.03547  -6307407.99645  22929822.5634                   22929820.3014
 -35158532.38748 -27306323.34846  20908479.2734                   20908475.9494
 -54669672.21548 -42554504.79346  20225258.3674                   20225256.3594
 -69185721.94948 -53837697.85545  22118692.9224                   22118691.0164
 -37865361.57847 -29322330.87944  22707136.6094                   22707136.2154
 -23979816.52748 -18645484.87545  21583512.9064                   21583511.6294
 -53221739.89847 -41429256.15243  23300959.9304                   23300958.8834
   4519420.09846   3563408.87144  24127608.3444                   24127609.2934
 11  7 30  0 51 30.0000000  0  9G09G12G02G04G17G27G10G28G05
 -26307059.56647 -20332438.33645  22289485.3674                   22289484.0984
  -8333503.05947  -6453208.78945  22894215.8284                   22894213.7154
 -35293383.23448 -27411401.91846  20882817.7894                   20882814.3134
 -54720012.85548 -42593731.27746  20215678.7424                   20215677.5124
 -69240809.58648 -53880623.29345  22108210.0554                   22108207.9024
 -37920633.06647 -29365399.60944  22696619.1564                   22696618.9024
 -24141373.07448 -18771373.07045  21552769.6174                   21552768.3134
 -53227694.22747 -41433895.92643  23299827.4774                   23299826.1604
   4317397.26646   3405988.60543  24089164.7344                   24089165.5824
 11  7 30  0 52  0.0000000  0  9G09G12G02G04G17G27G10G28G05
 -26360148.91447 -20373806.69545  22279382.8594                   22279382.3714
  -8520425.58247  -6598862.68445  22858646.1254                   22858643.6294
 -35427840.64548 -27516173.91846  20857231.5864                   20857227.8634
 -54769928.67648 -42632626.73046  20206179.9454                   20206178.7734
 -69295773.59047 -53923452.41045  22097749.9694                   22097748.4454
 -37975529.09447 -29408175.76644  22686173.2424                   22686172.6844
 -24302477.82847 -18896909.21945  21522112.0634                   21522111.3134
 -53233343.47747 -41438298.00443  23298751.6254                   23298751.5124
   4115372.96146   3248567.21943  24050720.3834                   24050720.9454
 11  7 30  0 52 30.0000000  0  9G09G12G02G04G17G27G10G28G05
 -26412708.51247 -20414762.25845  22269381.1254                   22269380.7154
  -8707158.53147  -6744368.84445  22823111.9614                   22823109.8404
 -35561906.44548 -27620640.76646  20831719.6884                   20831715.6294
 -54819423.57048 -42671194.19146  20196761.6024                   20196760.1374
 -69350615.32448 -53966186.22745  22087314.3284                   22087312.7424
 -38030053.35947 -29450662.24644  22675797.1334                   22675796.5744
 -24463129.46948 -19022092.28145  21491541.4304                   21491540.1134
 -53238690.50447 -41442464.60543  23297734.2814                   23297733.2544
   3913348.41546   3091145.67644  24012275.4384                   24012277.3524
 11  7 30  0 53  0.0000000  0  9G09G12G02G04G17G27G10G28G05
 -26464741.20747 -20455307.25045  22259479.5704                   22259479.2274
  -8893699.70347  -6889725.57045  22787614.1094                   22787612.8444
 -35695580.64148 -27724802.46546  20806282.2894                   20806278.4574
 -54868499.93048 -42709435.51646  20187422.8594                   20187420.9654
 -69405334.10948 -54008824.25845  22076901.8444                   22076900.4384
 -38084208.25847 -29492860.92244  22665492.1484                   22665491.4804
 -24623325.09847 -19146920.02045  21461057.1564                   21461055.6954
 -53243737.14147 -41446397.14143  23296774.3524                   23296773.9344
   3711326.11746   2933725.83644  23973831.7814                   23973833.9494
 11  7 30  0 53 30.0000000  0  9G09G12G02G04G17G27G10G28G05
 -24940828.80547 -19267843.09445  22549470.5394                   22549470.0664
  -7504621.53947  -5807326.96145  23051947.0394                   23051945.3094
 -34253440.14548 -26601056.60946  21080712.3914                   21080708.6804
 -53341739.69548 -41519752.22346  20477955.6254                   20477954.3014
 -67884509.34047 -52823765.99245  22366304.9144                   22366303.0084
 -36562575.35247 -28307172.98045  22955049.6644                   22955048.6844
 -23207637.59447 -18043786.86745  21730453.9144                   21730452.2384
 -51673066.19546 -40222497.75844  23595663.2424                   23595663.4494
   5084734.14547   4003914.01243  24235183.8984                   24235183.3524
 11  7 30  0 54  0.0000000  0  9G09G12G02G04G17G27G10G28G05
 -24991817.12147 -19307574.29345  22539767.6094                   22539767.0044
  -7690773.75447  -5952380.61345  23016523.7664                   23016521.9734
 -34386333.66048 -26704609.99246  21055423.4304                   21055420.2584
 -53389987.83648 -41557348.18046  20468773.9064                   20468772.9414
 -67938983.70747 -52866213.55945  22355939.1564                   22355937.4884
 -36616000.16447 -28348802.74645  22944882.8984                   22944882.3674
 -23366914.36347 -18167898.62145  21700144.4224                   21700142.7304
 -51677518.95746 -40225967.47743  23594815.6174                   23594815.3244
   4882722.35947   3846502.36744  24196742.0864                   24196743.5554
 11  7 30  0 54 30.0000000  0  9G09G12G02G04G17G27G10G28G05
 -25042285.45747 -19346900.31245  22530163.9224                   22530163.0594
  -7876726.24247  -6097278.62945  22981138.0084                   22981135.9964
 -34518835.56248 -26807858.20746  21030209.0634                   21030206.2074
 -53437823.53548 -41594622.75846  20459671.0394                   20459669.6804
 -67993332.84047 -52908563.56645  22345596.1804                   22345595.2504
 -36669061.63347 -28390149.39844  22934785.4144                   22934784.5554
 -23525725.64147 -18291647.63745  21669923.6724                   21669921.8874
 -51681675.59846 -40229206.51644  23594025.1024                   23594025.1334
   4680722.03947   3689099.65244  24158302.0784                   24158304.0394
 11  7 30  0 55  0.0000000  0  9G09G12G02G04G17G27G10G28G05
 -25092237.06647 -19385823.68045  22520658.5234                   22520657.7344
  -8062476.48847  -6242019.07045  22945790.3834                   22945788.7854
 -34650945.84848 -26910801.28546  21005069.7424                   21005065.8674
 -53485249.36348 -41631577.96546  20450646.3444                   20450645.4534
 -68047557.60947 -52950816.64845  22335277.5864                   22335276.7034
 -36721762.28147 -28431214.86344  22924757.3054                   22924755.8524
 -23684068.93047 -18415031.98845  21639792.0864                   21639790.3554
 -51685538.09446 -40232216.34843  23593290.3834                   23593289.3014
   4478735.28147   3531707.52044  24119865.5234                   24119867.4144
 11  7 30  0 55 30.0000000  0  9G09G12G02G04G17G27G10G28G05
 -25141678.44147 -19424349.47345  22511250.1954                   22511249.8874
  -8248026.09447  -6386603.12545  22910481.7814                   22910480.1094
 -34782668.76648 -27013442.50846  20980003.4534                   20979999.6054
 -53532271.15248 -41668218.32446  20441698.2974                   20441696.9574
 -68101660.83647 -52992975.02745  22324982.2114                   22324980.8484
 -36774108.21547 -28472003.97345  22914795.7034                   22914796.1844
 -23841945.00447 -18538052.28545  21609748.9614                   21609747.7194
 -51689111.68046 -40235001.02743  23592609.1884                   23592609.7774
   4276760.98047   3374325.06644  24081430.6024                   24081432.2424
 11  7 30  0 56  0.0000000  0  9G09G12G02G04G17G27G10G28G05
 -25190610.50447 -19462478.37145  22501938.4614                   22501937.7974
  -8433370.96547  -6531027.68045  22875211.4844                   22875210.7424
 -34914002.94148 -27115780.81646  20955011.4224                   20955008.0474
 -53578889.93448 -41704544.64846  20432827.1644                   20432825.8794
 -68155640.45347 -53035037.10245  22314710.3754                   22314709.2624
 -36826100.14547 -28512517.21944  22904902.7034                   22904901.9694
 -23999349.40647 -18660705.03545  21579795.6804                   21579794.7734
 -51692396.44146 -40237560.61343  23591984.2194                   23591984.2034
   4074803.61747   3216955.82044  24043000.1024                   24043000.0004
 11  7 30  0 56 30.0000000  0  9G09G12G02G04G17G27G10G28G05
 -25239034.78147 -19500211.60244  22492724.0234                   22492722.8164
  -8618507.16047  -6675289.63745  22839980.5944                   22839979.9304
 -35044947.43748 -27217815.47746  20930093.5314                   20930089.7734
 -53625106.73048 -41740557.74646  20424032.6884                   20424031.2664
 -68209494.83247 -53077001.55945  22304462.4454                   22304460.5594
 -36877739.11747 -28552755.42645  22895075.9614                   22895075.1884
 -24156278.26648 -18782987.23845  21549932.9454                   21549932.1954
 -51695392.75446 -40239895.47743  23591414.0784                   23591414.5314
   3872867.17647   3059602.89544  24004571.8524                   24004573.2544
 11  7 30  0 57  0.0000000  0  9G09G12G02G04G17G27G10G28G05
 -25286954.51247 -19537551.69145  22483605.0784                   22483604.7194
  -8803433.16847  -6819387.79745  22804790.7114                   22804789.6054
 -35175502.85548 -27319546.94546  20905249.8524                   20905246.0784
 -53670924.16848 -41776259.65246  20415313.5634                   20415312.1214
 -68263224.11748 -53118868.54745  22294238.1804                   22294236.2854
 -36929027.94547 -28592720.82444  22885315.1414                   22885315.5784
 -24312729.12547 -18904896.96146  21520161.5474                   21520160.4844
 -51698102.94946 -40242007.41843  23590898.8594                   23590898.7384
   3670953.82447   2902267.94544  23966149.2974                   23966150.8714
 11  7 30  0 57 30.0000000  0  9G09G12G02G04G17G27G10G28G05
 -25334374.04347 -19574502.01645  22474581.4844                   22474581.0434
  -8988147.94147  -6963321.32845  22769641.5944                   22769639.9064
 -35305670.99248 -27420976.65646  20880479.5004                   20880475.5664
 -53716346.24248 -41811653.48446  20406670.0084                   20406668.5354
 -68316829.18047 -53160638.75845  22284037.5634                   22284035.6644
 -36979970.46547 -28632416.32445  22875621.5784                   22875621.7384
 -24468700.88747 -19026433.36345  21490481.1954                   21490479.9734
 -51700530.48446 -40243899.03943  23590436.9924                   23590436.6134
   3469064.95747   2744952.10943  23927730.6414                   23927732.3244
 11  7 30  0 58  0.0000000  0  9G09G12G02G04G17G27G10G28G05
 -25381290.08647 -19611059.99244  22465653.4144                   22465653.3754
  -9172642.90647  -7107083.64545  22734532.8364                   22734531.2074
 -35435446.05548 -27522100.07046  20855784.3134                   20855780.6604
 -53761369.27748 -41846736.36746  20398102.7894                   20398100.7234
 -68370303.80947 -53202307.30545  22273861.9144                   22273860.0124
 -37030563.12947 -28671839.24644  22865994.5394                   22865994.1054
 -24624184.72748 -19147589.55946  21460892.9774                   21460891.8984
 -51702670.95346 -40245567.01643  23590030.0784                   23590030.2774
   3267209.43846   2587662.23844  23889318.6884                   23889320.3284
 11  7 30  0 58 30.0000000  0  9G09G12G02G04G17G27G10G28G05
 -25427708.75847 -19647230.43044  22456820.5944                   22456819.0004
  -9356919.25847  -7250675.57845  22699466.1334                   22699464.6764
 -35564831.67648 -27622920.01246  20831162.3364                   20831159.2234
 -53805998.87948 -41881512.67246  20389609.8594                   20389608.1844
 -68423650.55547 -53243876.23445  22263710.0084                   22263708.6094
 -37080811.69147 -28710994.02744  22856431.5394                   22856431.8954
 -24779181.59848 -19268366.30545  21431398.3444                   21431397.6604
 -51704529.47346 -40247015.28543  23589676.6804                   23589675.8204
   3065386.35946   2430397.65644  23850913.8054                   23850913.4264
 11  7 30  0 59  0.0000000  0  9G09G12G02G04G17G27G10G28G05
 -25473633.14847 -19683015.70344  22448081.6484                   22448080.2114
  -9540974.85947  -7394095.48445  22664441.7814                   22664439.7464
 -35693828.43748 -27723436.94546  20806615.4694                   20806612.0704
 -53850237.95748 -41915984.68046  20381191.3364                   20381189.9454
 -68476869.89148 -53285345.86745  22253583.1174                   22253581.5044
 -37130718.73847 -28749882.69144  22846935.4774                   22846935.4494
 -24933688.71547 -19388761.42245  21401996.6804                   21401995.7854
 -51706108.01246 -40248245.38343  23589376.5634                   23589375.5634
   2863598.26647   2273160.31644  23812513.9614                   23812514.1804
 11  7 30  0 59 30.0000000  0  9G09G12G02G04G17G27G10G28G05
 -25519065.34047 -19718417.43444  22439436.1254                   22439435.1054
  -9724805.75847  -7537340.32845  22629460.0004                   22629457.7814
 -35822435.58248 -27823650.28546  20782142.6094                   20782138.8484
 -53894087.55548 -41950153.20346  20372847.1644                   20372845.7194
 -68529960.20347 -53326714.95745  22243480.1024                   22243478.4964
 -37180285.55947 -28788506.24244  22837502.9224                   22837502.7664
 -25087702.53147 -19508772.14845  21372688.6884                   21372687.8524
 -51707407.30946 -40249257.85543  23589129.5164                   23589128.0634
   2661848.93047   2115953.19944  23774122.6804                   23774122.8284
 11  7 30  1  0  0.0000000  0  9G09G12G02G04G17G27G10G28G05
 -25564008.63747 -19753438.23445  22430883.6414                   22430883.1524
  -9908409.78147  -7680408.39845  22594520.9224                   22594518.5984
 -35950653.77348 -27923560.55546  20757743.2344                   20757739.4104
 -53937550.60948 -41984020.52046  20364576.6174                   20364575.2154
 -68582921.16448 -53367983.27345  22233402.2504                   22233400.3834
 -37229514.90647 -28826866.85245  22828135.4534                   22828135.4144
 -25241220.27047 -19628396.32845  21343475.3674                   21343474.9804
 -51708429.59846 -40250054.48843  23588934.2034                   23588934.1844
   2460141.02747   1958778.33244  23735738.7424                   23735739.0984
 11  7 30  1  0 30.0000000  0  9G09G12G02G04G17G27G10G28G05
 -25608463.77347 -19788078.64145  22422424.1414                   22422423.2544
 -10091782.85547  -7823296.46545  22559626.3754                   22559623.6954
 -36078481.60948 -28023166.64546  20733418.6174                   20733414.8914
 -53980627.44548 -42017586.89146  20356379.0004                   20356377.6994
 -68635750.44547 -53409148.96145  22223348.9224                   22223347.0944
 -37278407.36747 -28864964.89844  22818831.2974                   22818831.0434
 -25394237.53147 -19747630.50845  21314356.4384                   21314356.1214
 -51709174.60547 -40250635.08243  23588793.1484                   23588791.9924
   2258478.91847   1801639.15244  23697363.0164                   23697363.3794
 11  7 30  1  1  0.0000000  0  9G09G12G02G04G17G27G10G28G05
 -25652437.82047 -19822344.16444  22414056.3984                   22414055.5634
 -10274926.68047  -7966005.91445  22524775.1484                   22524773.3634
 -36205923.41448 -28122471.93446  20709167.1094                   20709163.6604
 -54023324.78148 -42050857.55946  20348254.1024                   20348252.6024
 -68688451.82047 -53450214.98845  22213319.9614                   22213317.8134
 -37326969.62547 -28902805.69144  22809590.7424                   22809589.8284
 -25546756.10548 -19866476.12546  21285333.6024                   21285332.4734
 -51709648.34446 -40251004.32843  23588702.7814                   23588702.1094
   2056861.23447   1644534.59044  23658996.6414                   23658997.2774
 11  7 30  1  1 30.0000000  0  9G09G12G02G04G17G27G10G28G05
 -24120507.69947 -18628632.43745  22705572.7114                   22705571.8284
  -8882408.12147  -6880926.49645  22789762.8364                   22789760.1414
 -34757550.76648 -26993869.85946  20984783.0704                   20984779.4224
 -52490218.73448 -40856229.48046  20639994.7344                   20639993.3674
 -67165598.29348 -52263575.88345  22503109.7734                   22503107.6644
 -35799777.81647 -27712786.14144  23100204.7424                   23100205.7274
 -24123343.39547 -18757323.32846  21556200.2504                   21556198.7074
 -50134427.94946 -39023559.89843  23888456.9304                   23888456.6254
   3430722.20347   2715075.68444  23920433.5554                   23920433.5514
 11  7 30  1  2  0.0000000  0  9G09G12G02G04G17G27G10G28G05
 -24163522.68047 -18662150.64845  22697387.2664                   22697386.4884
  -9065080.11347  -7023268.27045  22755001.6564                   22754999.4774
 -34884215.94548 -27092569.97746  20960679.5554                   20960676.3554
 -52532157.90248 -40888909.35546  20632013.8444                   20632012.4494
 -67218036.48848 -52304436.82445  22493130.7114                   22493129.0744
 -35847681.03547 -27750113.38744  23091089.2894                   23091089.6954
 -24274850.17248 -18875380.52045  21527368.9304                   21527368.3324
 -50134358.72346 -39023506.00043  23888470.4224                   23888470.0274
   3229207.82447   2558051.60944  23882086.4454                   23882086.9064
 11  7 30  1  2 30.0000000  0  9G09G12G02G04G17G27G10G28G05
 -24206062.39547 -18695298.53145  22689292.8754                   22689291.6954
  -9247512.31647  -7165423.21545  22720285.3594                   22720283.6994
 -35010493.25848 -27190967.85946  20936649.8524                   20936646.3444
 -52573721.64548 -40921296.69546  20624104.5314                   20624103.1374
 -67270342.34448 -52345194.64545  22483177.7114                   22483175.6414
 -35895258.39547 -27787186.68044  23082035.6094                   23082036.5984
 -24425847.39848 -18993040.66846  21498635.3834                   21498634.2934
 -50134021.03946 -39023242.96143  23888535.0944                   23888534.3094
   3027749.51247   2401071.21144  23843749.8834                   23843751.7934
 11  7 30  1  3  0.0000000  0  9G09G12G02G04G17G27G10G28G05
 -24248129.42647 -18728078.09445  22681287.1804                   22681286.9414
  -9429701.94547  -7307389.10245  22685615.9144                   22685613.7624
 -35136382.77748 -27289063.57446  20912693.6644                   20912690.1524
 -52614911.73848 -40953392.88346  20616266.5554                   20616264.9924
 -67322515.04748 -52385848.71145  22473249.7664                   22473247.9384
 -35942511.94947 -27824007.70345  23073044.3284                   23073043.6804
 -24576331.95748 -19110301.32446  21469999.0474                   21469998.2234
 -50133415.86746 -39022771.45343  23888649.4144                   23888648.5864
   2826350.25847   2244136.77744  23805425.3984                   23805425.1564
 11  7 30  1  3 30.0000000  0  9G09G12G02G04G17G27G10G28G05
 -24289725.86347 -18760490.95345  22673372.1024                   22673370.9534
  -9611645.55147  -7449163.30945  22650993.4144                   22650991.0664
 -35261883.77348 -27386856.55146  20888811.4224                   20888808.1294
 -52655729.70748 -40985199.11346  20608499.0704                   20608497.7544
 -67374553.30548 -52426398.02745  22463347.1484                   22463345.5004
 -35989443.23847 -27860577.56244  23064113.7194                   23064113.1054
 -24726300.44548 -19227159.86346  21441461.4384                   21441460.2584
 -50132544.35546 -39022092.36743  23888815.0634                   23888814.7234
   2625014.08247   2087251.55144  23767112.4384                   23767113.2894
 11  7 30  1  4  0.0000000  0  9G09G12G02G04G17G27G10G28G05
 -24330861.26647 -18792544.59045  22665544.3054                   22665543.3674
  -9793347.33647  -7590749.06645  22616416.1804                   22616415.1954
 -35387003.33648 -27484352.29746  20865002.0314                   20864998.8284
 -52696184.82048 -41016722.59846  20600800.2114                   20600799.5944
 -67426463.39847 -52466847.47745  22453468.1414                   22453467.2074
 -36036061.40647 -27896903.46544  23055242.2894                   23055241.8594
 -24875756.94548 -19343619.43045  21413020.3984                   21413019.5704
 -50131415.01646 -39021212.48843  23889030.3204                   23889030.9574
   2423736.70747   1930412.12544  23728809.6174                   23728810.2974
 11  7 30  1  4 30.0000000  0  9G09G12G02G04G17G27G10G28G05
 -24371534.25847 -18824237.86345  22657804.4304                   22657803.4264
  -9974800.35247  -7732140.99645  22581887.5474                   22581884.8554
 -35511737.69948 -27581547.88346  20841266.0634                   20841262.5664
 -52736274.68048 -41047961.46546  20593171.3524                   20593170.3054
 -67478240.12147 -52507192.98445  22443615.6484                   22443614.0234
 -36082364.36347 -27932983.76244  23046430.9144                   23046431.5784
 -25024694.25848 -19459674.46146  21384678.4304                   21384677.4494
 -50130025.24646 -39020129.66443  23889294.5634                   23889295.3914
   2222525.38347   1773624.18044  23690520.2424                   23690521.1684
 11  7 30  1  5  0.0000000  0  9G09G12G02G04G17G27G10G28G05
 -24411748.11347 -18855573.39545  22650152.1484                   22650151.1994
 -10156002.44147  -7873337.41445  22547405.2814                   22547402.6684
 -35636086.98848 -27678443.41046  20817603.0784                   20817599.7274
 -52776002.03148 -41078917.87146  20585611.9694                   20585610.5634
 -67529883.24248 -52547434.40645  22433788.8754                   22433787.2624
 -36128355.02047 -27968820.67244  23037679.3754                   23037678.8984
 -25173110.09848 -19575323.13346  21356436.0944                   21356434.9184
 -50128377.07846 -39018845.45343  23889608.6804                   23889609.2734
   2021383.03147   1616889.96144  23652244.2734                   23652245.4964
 11  7 30  1  5 30.0000000  0  9G09G12G02G04G17G27G10G28G05
 -24451508.18047 -18886555.32445  22642586.4534                   22642585.2194
 -10336953.28947  -8014338.05145  22512971.6484                   22512968.5204
 -35760054.47348 -27775041.43046  20794012.8054                   20794009.4654
 -52815371.53148 -41109595.41846  20578119.8054                   20578118.9024
 -67581394.74248 -52587573.24645  22423986.3444                   22423984.7814
 -36174038.32447 -28004418.08644  23028985.8914                   23028986.5044
 -25321004.39148 -19690565.41846  21328292.7504                   21328291.9064
 -50126474.63346 -39017363.09443  23889970.8594                   23889971.1844
   1820310.13347   1460209.88344  23613981.2734                   23613982.6174
 11  7 30  1  6  0.0000000  0  9G09G12G02G04G17G27G10G28G05
 -24490818.35547 -18917186.66845  22635105.6024                   22635105.4024
 -10517651.37547  -8155141.75045  22478585.8524                   22478582.9774
 -35883641.53548 -27871343.02046  20770494.9454                   20770491.0984
 -52854386.69148 -41139996.85946  20570695.3984                   20570694.2544
 -67632775.26248 -52627610.02345  22414208.7664                   22414207.4804
 -36219417.72747 -28039778.72744  23020350.9224                   23020350.9774
 -25468375.82048 -19805400.27346  21300248.7344                   21300247.3244
 -50124320.76247 -39015684.82443  23890381.2734                   23890380.9494
   1619308.41847   1303585.26244  23575732.1884                   23575732.8364
 11  7 30  1  6 30.0000000  0  9G09G12G02G04G17G27G10G28G05
 -24529675.88347 -18947465.33645  22627710.9844                   22627711.6374
 -10698088.05547  -8295741.72745  22444249.7664                   22444247.4384
 -36006842.58248 -27967343.80546  20747050.8054                   20747047.1054
 -52893043.84848 -41170119.32846  20563339.2194                   20563338.2274
 -67684018.24648 -52667539.64845  22404457.3914                   22404455.8364
 -36264489.84047 -28074899.89844  23011773.9774                   23011773.8484
 -25615215.95348 -19919821.12146  21272305.8524                   21272304.9454
 -50121911.66846 -39013807.70343  23890839.1724                   23890839.7664
   1418386.67247   1147022.97344  23537498.1884                   23537499.1604
 11  7 30  1  7  0.0000000  0  9G09G12G02G04G17G27G10G28G05
 -24568090.80547 -18977399.09845  22620400.9534                   22620401.1214
 -10878267.77047  -8436141.48445  22409962.8444                   22409960.9534
 -36129664.89848 -28063049.49246  20723678.6024                   20723674.6564
 -52931352.11348 -41199969.94146  20556050.0554                   20556048.5084
 -67735129.81247 -52707366.84445  22394731.2584                   22394729.7234
 -36309263.95347 -28109788.85944  23003253.7194                   23003253.2664
 -25761529.02048 -20033831.26646  21244463.6174                   21244462.2934
 -50119255.99646 -39011738.38343  23891345.1804                   23891345.2344
   1217541.11347    990520.01644  23499278.7344                   23499279.3054
 11  7 30  1  7 30.0000000  0  9G09G12G02G04G17G27G10G28G05
 -24606064.82047 -19006989.28145  22613174.7274                   22613175.0514
 -11058186.54747  -8576337.92645  22375725.3444                   22375723.4064
 -36252107.78148 -28158459.51646  20700378.2274                   20700374.4024
 -52969312.78148 -41229549.70346  20548825.7894                   20548824.9414
 -67786108.37947 -52747090.41445  22385030.3444                   22385029.1334
 -36353741.22747 -28144446.52344  22994790.1484                   22994790.2854
 -25907311.17648 -20147427.71545  21216722.0784                   21216720.7974
 -50116354.25946 -39009477.40543  23891897.3364                   23891897.4304
   1016775.75047    834079.58644  23461074.1954                   23461073.9344
 11  7 30  1  8  0.0000000  0  9G09G12G02G04G17G27G10G28G05
 -24643600.30147 -19036237.77745  22606032.2734                   22606032.3554
 -11237841.38747  -8716328.66045  22341538.8834                   22341535.9264
 -36374170.77748 -28253573.52346  20677150.3754                   20677146.3164
 -53006927.45348 -41258859.83646  20541667.8984                   20541666.4574
 -67836952.72747 -52786709.41845  22375354.7424                   22375353.6564
 -36397923.54347 -28178874.36744  22986382.3914                   22986382.7934
 -26052559.34048 -20260608.07046  21189082.4384                   21189081.0594
 -50113207.61346 -39007025.48443  23892495.6414                   23892495.3594
    816094.41047    677704.58644  23422885.8914                   23422885.7624
 11  7 30  1  8 30.0000000  0  9G09G12G02G04G17G27G10G28G05
 -24680699.16047 -19065146.04745  22598972.9534                   22598972.9304
 -11417228.48847  -8856110.82045  22307401.8914                   22307399.6054
 -36495853.76648 -28348391.41446  20653994.6724                   20653991.3754
 -53044197.55548 -41287901.48046  20534575.9924                   20534574.9104
 -67887661.64847 -52826222.88345  22365706.0314                   22365703.9414
 -36441812.50047 -28213073.61744  22978030.5234                   22978031.0124
 -26197270.25848 -20373369.80146  21161544.6804                   21161543.3754
 -50109817.06646 -39004383.55143  23893140.4844                   23893140.7194
    615500.36747    521397.65645  23384713.8984                   23384714.2624
 11  7 30  1  9  0.0000000  0  9G09G12G02G04G17G27G10G28G05
 -24717364.32847 -19093716.33645  22591994.6024                   22591995.1684
 -11596345.24247  -8995682.29345  22273317.4844                   22273314.4064
 -36617156.59448 -28442913.09046  20630911.8284                   20630908.1294
 -53081124.93748 -41316676.07446  20527549.1254                   20527547.5984
 -67938233.92247 -52865629.86745  22356081.4454                   22356079.9654
 -36485410.15647 -28247045.88744  22969734.9304                   22969733.9494
 -26341441.17648 -20485710.74246  21134109.6804                   21134108.9964
 -50106184.16046 -39001552.78943  23893832.0634                   23893831.9884
    414997.29747    365161.54744  23346559.6724                   23346559.8594
 11  7 30  1  9 30.0000000  0  9G09G12G02G04G17G27G10G28G05
 -24753602.34047 -19121953.78145  22585099.5704                   22585099.7664
 -11775192.66447  -9135043.90645  22239283.7344                   22239281.7704
 -36738083.14548 -28537141.55946  20607899.9844                   20607896.3834
 -53117715.28548 -41345188.03946  20520585.8984                   20520584.4924
 -67988672.23847 -52904932.46945  22346483.5394                   22346482.4774
 -36528722.50847 -28280795.82444  22961493.1254                   22961492.3954
 -26485072.86348 -20597631.50046  21106777.6094                   21106776.2934
 -50102314.18046 -38998537.24243  23894569.4384                   23894568.8014
    214584.56647    208995.88344  23308422.1564                   23308422.4494
 11  7 30  1 10  0.0000000  0  9G09G12G02G04G17G27G10G28G05
 -23213990.69947 -17922256.44945  22878078.1334                   22878077.9224
 -10378337.78947  -8046585.56245  22505096.3284                   22505093.5004
 -35283205.72348 -27403470.84046  20884753.9534                   20884750.3984
 -51578545.59448 -40145835.03546  20813480.1414                   20813479.1804
 -66463550.56647 -51716526.00445  22636704.7034                   22636703.8794
 -34996326.55547 -27086721.12544  23253097.7194                   23253097.9184
 -25052734.07848 -19481523.32446  21379342.3364                   21379341.3634
 -48522785.20346 -37767735.46143  24195144.0554                   24195143.2194
   1589695.93847   1280511.30544  23570096.7034                   23570097.2894
 11  7 30  1 10 30.0000000  0  9G09G12G02G04G17G27G10G28G05
 -23249380.16847 -17949832.69145  22871343.3984                   22871344.1644
 -10556635.18047  -8185518.57445  22471167.3754                   22471165.6454
 -35403378.12148 -27497111.65646  20861886.1094                   20861882.5354
 -51614466.03148 -40173824.99246  20806644.7034                   20806643.7074
 -66513716.76247 -51755616.57445  22627158.4774                   22627156.9224
 -35039072.88747 -27120030.01244  23244962.4924                   23244963.7464
 -25195277.34048 -19592595.95746  21352217.7424                   21352216.2274
 -48518443.82446 -37764352.60543  24195970.0554                   24195969.5004
   1389475.68847   1124495.59444  23531996.6024                   23531996.8554
 11  7 30  1 11  0.0000000  0  9G09G12G02G04G17G27G10G28G05
 -23284348.57447 -17977080.86345  22864689.2034                   22864689.5664
 -10734651.85947  -8324232.85245  22437291.8054                   22437290.1414
 -35523172.56648 -27590457.96946  20839090.0084                   20839086.4184
 -51650053.48448 -40201555.46946  20799872.9924                   20799871.1844
 -66563744.40647 -51794599.18045  22617639.1254                   22617637.3054
 -35081538.38347 -27153120.07044  23236882.7894                   23236882.0864
 -25337271.33648 -19703240.59846  21325196.6954                   21325195.6564
 -48513867.88346 -37760786.98443  24196840.3594                   24196840.3364
   1189357.71147    968559.57844  23493915.0554                   23493915.0664
 11  7 30  1 11 30.0000000  0  9G09G12G02G04G17G27G10G28G05
 -23318902.96947 -18004006.41044  22858113.7034                   22858114.1564
 -10912389.38347  -8462729.60945  22403469.9224                   22403467.9064
 -35642593.55948 -27683513.27346  20816365.3914                   20816361.2774
 -51685314.12948 -40229031.29746  20793162.6724                   20793161.6214
 -66613636.87547 -51833476.45745  22608144.7034                   22608142.9144
 -35123729.65247 -27185996.42244  23228854.1174                   23228854.3444
 -25478717.65248 -19813458.47746  21298280.6484                   21298279.3204
 -48509063.41446 -37757043.28143  24197755.0864                   24197755.2544
    989341.16447    812702.60944  23455852.7274                   23455852.9694
 11  7 30  1 12  0.0000000  0  9G09G12G02G04G17G27G10G28G05
 -23353044.05547 -18030609.89845  22851617.6884                   22851617.5634
 -11089842.81647  -8601004.98445  22369701.3984                   22369699.8134
 -35761639.50848 -27776276.33646  20793711.3204                   20793707.1914
 -51720248.07448 -40256252.57046  20786514.9774                   20786514.3634
 -66663391.33247 -51872246.18745  22598677.0394                   22598674.9184
 -35165646.88347 -27218659.25844  23220877.5394                   23220877.5124
 -25619611.77048 -19923246.06645  21271469.3054                   21271467.6684
 -48504029.96146 -37753121.17643  24198711.6884                   24198712.5904
    789431.29347    656928.74644  23417811.3204                   23417811.2624
 11  7 30  1 12 30.0000000  0  9G09G12G02G04G17G27G10G28G05
 -23386777.08247 -18056895.45344  22845198.1024                   22845198.6094
 -11267011.65647  -8739058.60545  22335987.8444                   22335985.6524
 -35880312.83648 -27868749.05146  20771128.1884                   20771124.6054
 -51754859.72348 -40283222.69146  20779928.7734                   20779927.5474
 -66713009.26247 -51910909.53545  22589234.8054                   22589233.2424
 -35207294.69547 -27251112.18744  23212951.9844                   23212952.2464
 -25759953.11748 -20032602.93446  21244763.2194                   21244761.9024
 -48498771.64846 -37749023.79343  24199713.3524                   24199713.4654
    589628.80547    501238.53544  23379790.1414                   23379790.3594
 11  7 30  1 13  0.0000000  0  9G09G12G02G04G17G27G10G28G05
 -23420105.15247 -18082865.40244  22838856.4144                   22838855.5634
 -11443893.00047  -8876888.21546  22302328.2664                   22302325.9454
 -35998614.19548 -27960931.91046  20748616.2274                   20748612.3324
 -51789151.00048 -40309943.18046  20773402.8834                   20773402.1844
 -66762490.13347 -51949466.09845  22579818.5084                   22579817.0664
 -35248675.62547 -27283357.14544  23205077.8834                   23205077.9304
 -25899739.41848 -20141527.29746  21218162.8594                   21218161.3484
 -48493290.15646 -37744752.52043  24200755.4924                   24200756.8954
    389936.98447    345634.59044  23341790.1414                   23341790.1524
 11  7 30  1 13 30.0000000  0  9G09G12G02G04G17G27G10G28G05
 -23453030.69147 -18108521.73845  22832590.3134                   22832591.1214
 -11620483.75847  -9014491.39845  22268724.2274                   22268721.9144
 -36116542.76648 -28052824.28146  20726175.4694                   20726171.4884
 -51823123.85548 -40336415.55146  20766938.7814                   20766937.1914
 -66811832.46947 -51987914.69545  22570429.4534                   22570428.2544
 -35289791.42247 -27315395.49644  23197253.2894                   23197254.4534
 -26038967.67648 -20250016.82846  21191668.5004                   21191667.3204
 -48487586.61746 -37740308.25843  24201842.0394                   24201842.0784
    190359.31647    190119.59044  23303811.4224                   23303811.5164
 11  7 30  1 14  0.0000000  0  9G09G12G02G04G17G27G10G28G05
 -23485558.78547 -18133868.35944  22826400.5474                   22826400.7624
 -11796783.34447  -9151867.70345  22235175.0234                   22235173.1604
 -36234101.44148 -28144428.42646  20703804.4384                   20703801.3054
 -51856782.50048 -40362643.07046  20760533.8444                   20760532.4184
 -66861037.52347 -52026256.35245  22561065.5004                   22561064.0744
 -35330646.66847 -27347230.81644  23189478.9304                   23189479.0824
 -26177638.14148 -20358071.69946  21165280.3674                   21165278.8134
 -48481664.81646 -37735693.86343  24202969.2504                   24202969.1094
     -9103.19147     34694.34844  23265854.9694                   23265854.7814
 11  7 30  1 14 30.0000000  0  9G09G12G02G04G17G27G10G28G05
 -23517690.24647 -18158905.89844  22820286.1174                   22820286.3754
 -11972786.46547  -9289012.97745  22201682.6024                   22201681.3754
 -36351288.39848 -28235742.94546  20681504.7034                   20681501.1094
 -51890126.71948 -40388625.58646  20754188.2194                   20754187.2734
 -66910102.41047 -52064488.74245  22551729.5234                   22551727.8134
 -35371241.46147 -27378863.19144  23181754.1024                   23181754.7304
 -26315745.71548 -20465687.96946  21138998.8284                   21138997.7974
 -48475524.62146 -37730909.32843  24204136.1724                   24204137.1214
   -208444.95747   -120636.85245  23227921.7504                   23227921.2894
 11  7 30  1 15  0.0000000  0  9G09G12G02G04G17G27G10G28G05
 -23549430.63347 -18183638.75445  22814246.2894                   22814246.6954
 -12148493.18047  -9425927.28546  22168246.7584                   22168245.5554
 -36468106.84848 -28326770.29346  20659274.6094                   20659271.0594
 -51923161.28548 -40414366.82446  20747902.3914                   20747901.6024
 -66959029.30947 -52102613.63345  22542418.6484                   22542417.2894
 -35411581.04347 -27410296.70744  23174077.8674                   23174078.3594
 -26453290.89148 -20572866.00846  21112824.9224                   21112823.9304
 -48469170.40646 -37725958.03543  24205345.5234                   24205346.3364
   -407665.72747   -275873.73045  23190011.2664                   23190011.0744
 11  7 30  1 15 30.0000000  0  9G09G12G02G04G17G27G10G28G05
 -23580781.93047 -18208068.37944  22808280.6724                   22808280.6644
 -12323899.64847  -9562607.62145  22134868.0864                   22134866.8554
 -36584556.04748 -28417509.92246  20637115.2974                   20637111.6024
 -51955887.62148 -40439867.87546  20741674.4064                   20741673.6374
 -67007816.17247 -52140629.39545  22533134.9924                   22533132.9494
 -35451666.79347 -27441532.43044  23166450.5234                   23166450.3204
 -26590270.28948 -20679603.18046  21086758.9534                   21086757.7234
 -48462602.87146 -37720840.48843  24206595.9144                   24206595.8164
   -606761.34447   -431013.09445  23152124.3284                   23152125.0434
 11  7 30  1 16  0.0000000  0  9G09G12G02G04G17G27G10G28G05
 -23611744.41047 -18232195.05144  22802388.4694                   22802387.8404
 -12499000.01247  -9699049.44946  22101548.0004                   22101546.4104
 -36700633.32848 -28507959.73846  20615026.5634                   20615022.6954
 -51988304.44148 -40465127.74646  20735505.9224                   20735504.7894
 -67056459.20347 -52178533.06645  22523878.1724                   22523877.2114
 -35491497.91847 -27472569.75844  23158870.6644                   23158870.8164
 -26726678.40648 -20785895.18746  21060800.8834                   21060799.8364
 -48455820.95345 -37715555.95343  24207886.1334                   24207886.4614
   -805725.39147   -586049.94145  23114262.7034                   23114262.9104
 11  7 30  1 16 30.0000000  0  9G09G12G02G04G17G27G10G28G05
 -23642323.37946 -18256022.87944  22796568.8524                   22796569.8554
 -12673793.83248  -9835252.41046  22068285.5394                   22068283.8444
 -36816341.66448 -28598122.06246  20593008.1024                   20593003.8094
 -52020416.78948 -40490150.36346  20729394.9924                   20729394.0044
 -67104960.10947 -52216325.99645  22514649.0004                   22514647.2624
 -35531079.55547 -27503412.61744  23151338.0004                   23151338.5514
 -26862515.48848 -20891742.24246  21034952.1024                   21034950.9454
 -48448828.78946 -37710107.55142  24209216.5864                   24209216.7274
  -1004557.43447   -740983.91845  23076426.2974                   23076426.7074
 11  7 30  1 17  0.0000000  0  8G09G12G02G04G17G27G10G05
 -23672522.93447 -18279555.03544  22790822.3054                   22790822.4574
 -12848279.81647  -9971215.50045  22035082.2584                   22035080.0984
 -36931682.65248 -28687998.16046  20571059.5474                   20571055.3164
 -52052227.69148 -40514938.09046  20723341.7344                   20723340.2664
 -67153319.38347 -52254008.57445  22505446.3914                   22505444.7424
 -35570415.09047 -27534063.77344  23143853.2114                   23143852.9344
 -26997780.51648 -20997143.52746  21009211.8524                   21009210.9064
  -1203255.58647   -895813.56245  23038615.1174                   23038615.0394
 11  7 30  1 17 30.0000000  0  8G09G12G02G04G17G27G10G05
 -23702348.25047 -18302795.62945  22785146.8054                   22785147.7894
 -13022456.96947 -10106937.93445  22001937.2194                   22001935.4494
 -37046658.52748 -28777589.75846  20549179.8984                   20549176.3014
 -52083741.25848 -40539494.12946  20717345.0704                   20717343.2344
 -67201538.32447 -52291581.77745  22496271.1254                   22496269.6254
 -35609508.92647 -27564526.57844  23136413.7274                   23136414.6684
 -27132473.05948 -21102098.73446  20983580.9694                   20983579.5514
  -1401818.28147  -1050537.66445  23000829.7114                   23000830.3674
 11  7 30  1 18  0.0000000  0  8G09G12G02G04G17G27G10G05
 -22156379.59047 -17098144.78944  23079335.7114                   23079335.2274
 -11620894.66848  -9014811.44145  22268645.7664                   22268643.9264
 -35585843.91848 -27639292.65646  20827164.0784                   20827160.2034
 -50539536.54348 -39336217.73446  21011197.0944                   21011195.9304
 -65674192.40247 -51101442.11745  22786914.7034                   22786913.5784
 -34072940.38347 -26367200.52044  23428812.5864                   23428814.0204
 -25691164.47748 -19979001.11746  21257852.9614                   21257852.0394
    -24813.55147     22453.12545  23262864.7814                   23262865.1174
 11  7 30  1 18 30.0000000  0  8G09G12G02G04G17G27G10G05
 -22185457.72747 -17120803.11345  23073801.7584                   23073801.8794
 -11794437.87947  -9150039.90245  22235621.6724                   22235619.4964
 -35700083.71548 -27728310.67246  20805424.8444                   20805421.4654
 -50570453.99648 -39360309.26246  21005314.1484                   21005312.4454
 -65722120.14147 -51138788.42245  22777794.8524                   22777793.9494
 -34111550.68747 -26397286.53544  23421465.7734                   23421466.5204
 -25824697.85948 -20083053.06246  21232442.0784                   21232440.6174
   -223088.02047   -132046.38345  23225135.0474                   23225134.6844
 11  7 30  1 19  0.0000000  0  8G09G12G02G04G17G27G10G05
 -22214162.23047 -17143170.32044  23068340.0234                   23068339.2774
 -11967655.27748  -9285014.49245  22202659.2034                   22202657.2774
 -35813951.09448 -27817038.50846  20783756.7034                   20783752.6294
 -50601071.82848 -39384167.32446  20999487.3204                   20999486.1954
 -65769896.62947 -51176016.86745  22768703.6804                   22768702.0704
 -34149918.24647 -26427183.39844  23414164.6484                   23414165.5474
 -25957643.77048 -20186647.25046  21207143.6644                   21207142.4344
   -421209.08647   -286426.37145  23187433.7504                   23187433.1884
 11  7 30  1 19 30.0000000  0  8G09G12G02G04G17G27G10G05
 -22242499.73046 -17165251.54344  23062947.0004                   23062948.1564
 -12140547.76248  -9419735.88746  22169758.8914                   22169756.6214
 -35927450.51248 -27905479.57846  20762158.3674                   20762154.6884
 -50631395.89148 -39407796.46946  20993716.8914                   20993715.5164
 -65817524.64847 -51213129.62945  22759639.6334                   22759638.5904
 -34188048.98047 -26456895.72344  23406908.8204                   23406909.3014
 -26090003.40648 -20289784.59846  21181956.0474                   21181954.7424
   -619177.25047   -440687.19545  23149761.8754                   23149761.8404
 11  7 30  1 20  0.0000000  0  8G09G12G02G04G17G27G10G05
 -22270474.11747 -17187049.82844  23057624.3594                   23057624.7774
 -12313112.94148  -9554202.24246  22136920.4774                   22136919.1454
 -36040582.98448 -27993634.74246  20740630.1174                   20740625.9654
 -50661429.09448 -39431198.97746  20988001.8054                   20988000.7814
 -65865004.26247 -51250126.75045  22750605.2034                   22750603.3094
 -34225946.07847 -26486426.01644  23399697.6414                   23399697.8484
 -26221775.71148 -20392464.28546  21156880.6094                   21156879.5474
   -816989.93047   -594826.89145  23112118.3984                   23112118.2074
 11  7 30  1 20 30.0000000  0  8G09G12G02G04G17G27G10G05
 -22298091.87947 -17208570.22344  23052368.5864                   23052368.6844
 -12485352.32048  -9688414.72746  22104144.6174                   22104142.6134
 -36153352.62948 -28081507.17646  20719170.4774                   20719166.8014
 -50691176.92648 -39454379.11746  20982341.3134                   20982339.7894
 -65912337.99647 -51287010.21545  22741597.8754                   22741596.7544
 -34263615.66847 -26515779.00444  23392529.2664                   23392529.3404
 -26352961.86348 -20494687.23046  21131917.0314                   21131915.2664
  -1014647.75847   -748845.88345  23074505.9454                   23074505.8524
 11  7 30  1 21  0.0000000  0  8G09G12G02G04G17G27G10G05
 -22325352.27747 -17229812.14844  23047180.9774                   23047181.8524
 -12657258.85948  -9822367.85946  22071432.1564                   22071429.9184
 -36265756.40248 -28169094.53146  20697780.7974                   20697777.3594
 -50720637.70348 -39477335.57846  20976734.8754                   20976733.3364
 -65959521.51247 -51323776.60245  22732619.4454                   22732617.7344
 -34301056.57446 -26544953.84044  23385404.0084                   23385405.0434
 -26483556.07848 -20596448.91046  21107065.2114                   21107064.3164
  -1212143.63347   -902738.71545  23036923.6414                   23036923.5634
 11  7 30  1 21 30.0000000  0  8G09G12G02G04G17G27G10G05
 -22352262.30547 -17250781.07044  23042060.9454                   23042060.6024
 -12828833.46948  -9956062.32846  22038782.6644                   22038780.3674
 -36377798.39148 -28256399.96946  20676459.9614                   20676456.4304
 -50749817.57448 -39500073.14146  20971182.2734                   20971180.9304
 -66006557.74647 -51360428.24645  22723667.7114                   22723667.1914
 -34338274.80546 -26573955.09444  23378322.6024                   23378322.0234
 -26613560.17648 -20697750.78146  21082326.4774                   21082325.8554
  -1409478.15647  -1056505.79345  22999371.9924                   22999372.1214
 11  7 30  1 22  0.0000000  0  8G09G12G02G04G17G27G10G05
 -22378826.97347 -17271480.88344  23037005.6484                   23037006.3714
 -13000075.22348 -10089497.44146  22006196.0864                   22006194.6374
 -36489480.98048 -28343425.35546  20655207.4534                   20655203.8874
 -50778720.14148 -39522594.63346  20965681.9454                   20965680.5274
 -66053447.75847 -51396965.93045  22714745.5394                   22714744.1094
 -34375274.72746 -26602786.25844  23371280.8054                   23371281.5704
 -26742973.62148 -20798592.39846  21057700.2424                   21057698.6884
  -1606649.76647  -1210145.90645  22961851.8054                   22961851.2974
 11  7 30  1 22 30.0000000  0  8G09G12G02G04G17G27G10G05
 -22405048.12147 -17291912.97744  23032015.9924                   23032016.6374
 -13170980.06248 -10222670.02746  21973674.1024                   21973672.2854
 -36600803.16048 -28430169.90246  20634023.5944                   20634019.4964
 -50807346.41448 -39544900.84446  20960234.6254                   20960233.4774
 -66100189.29747 -51433387.94145  22705850.7974                   22705849.9104
 -34412057.31647 -26631448.09444  23364281.6334                   23364282.0274
 -26871793.01648 -20898971.11746  21033186.6024                   21033185.1174
  -1803653.98447  -1363655.60945  22924362.5554                   22924362.2034
 11  7 30  1 23  0.0000000  0  8G09G12G02G04G17G27G10G05
 -22430931.50047 -17312081.95744  23027090.5234                   23027090.9184
 -13341547.88748 -10355579.99646  21941216.0704                   21941214.2234
 -36711768.65648 -28516636.50846  20612907.4454                   20612903.8834
 -50835700.88348 -39566995.24246  20954839.1484                   20954837.8794
 -66146784.50447 -51469695.92245  22696983.7424                   22696982.4384
 -34448628.14846 -26659944.91844  23357322.3204                   23357323.1454
 -27000019.37948 -20998887.73446  21008785.9614                   21008784.1684
  -2000490.32447  -1517034.48845  22886905.8444                   22886905.4454
 11  7 30  1 23 30.0000000  0  8G09G12G02G04G17G27G10G05
 -22456480.14847 -17331990.02744  23022228.3834                   23022229.7234
 -13511776.13347 -10488225.36346  21908822.7424                   21908820.8444
 -36822377.65648 -28602825.32846  20591859.2344                   20591855.5474
 -50863786.22748 -39588879.94946  20949494.5864                   20949493.1954
 -66193232.67647 -51505889.34045  22688145.1414                   22688144.1174
 -34484989.60246 -26688278.59444  23350403.0394                   23350403.5204
 -27127650.71548 -21098340.69946  20984498.5314                   20984497.0474
  -2197155.97747  -1670280.34845  22849481.7504                   22849481.5554
 11  7 30  1 24  0.0000000  0  8G09G12G02G04G17G27G10G05
 -22481698.11747 -17351640.43444  23017429.7584                   23017429.6954
 -13681662.97748 -10620604.70746  21876494.3364                   21876492.2774
 -36932631.62948 -28688737.50846  20570878.5944                   20570875.2854
 -50891604.91448 -39610556.86346  20944201.1724                   20944199.5634
 -66239533.86347 -51541968.21545  22679334.8834                   22679333.1764
 -34521145.23047 -26716451.88344  23343523.0004                   23343523.6454
 -27254686.22748 -21197329.38746  20960324.1484                   20960323.0354
  -2393648.25047  -1823391.12545  22812090.3204                   22812089.5394
 11  7 30  1 24 30.0000000  0  8G09G12G02G04G17G27G10G05
 -22506589.54747 -17371036.43745  23012692.8984                   23012694.2424
 -13851206.16448 -10752716.27346  21844231.2734                   21844229.7194
 -37042532.06248 -28774374.20347  20549965.6484                   20549961.6334
 -50919160.11348 -39632028.47346  20938957.5004                   20938956.1914
 -66285688.16047 -51577932.62145  22670551.3834                   22670549.9844
 -34557098.34447 -26744467.36744  23336681.9224                   23336682.3674
 -27381124.61748 -21295852.78946  20936263.8754                   20936262.4734
  -2589965.00847  -1976365.10945  22774732.0084                   22774731.8284
 11  7 30  1 25  0.0000000  0  8G09G12G02G04G17G27G10G05
 -22531155.90646 -17390179.13344  23008018.7114                   23008019.3594
 -14020401.04348 -10884556.42246  21812034.8134                   21812033.0864
 -37152077.86348 -28859734.55546  20529119.6644                   20529115.8524
 -50946452.21148 -39653295.05946  20933763.8754                   20933762.7624
 -66331692.80947 -51613780.43745  22661797.4534                   22661795.8554
 -34592849.60547 -26772325.55944  23329877.8914                   23329879.1294
 -27506962.40248 -21393908.18446  20912317.8834                   20912316.5434
  -2786101.35947  -2129198.54745  22737409.4924                   22737407.9024
 11  7 30  1 25 30.0000000  0  8G09G12G02G04G17G27G10G05
 -22555402.34047 -17409072.51244  23003404.6334                   23003405.1334
 -14189247.52348 -11016125.08246  21779904.0864                   21779902.8524
 -37261271.85248 -28944820.77746  20508340.5164                   20508336.3324
 -50973485.43748 -39674359.91846  20928619.5704                   20928618.5234
 -66377549.56647 -51649512.98445  22653071.4304                   22653069.9224
 -34628403.74247 -26800030.18044  23323113.1094                   23323114.1024
 -27632199.75048 -21491495.71546  20888485.7664                   20888484.1564
  -2982055.96547  -2281890.35245  22700119.7504                   22700119.0704
 11  7 30  1 26  0.0000000  0  8G09G12G02G04G17G27G10G05
 -22579328.30147 -17427716.18044  22998851.8284                   22998851.9654
 -14357738.81248 -11147416.96946  21747840.7504                   21747839.6374
 -37370110.85948 -29029630.36346  20487629.1884                   20487625.5274
 -51000257.78148 -39695221.49646  20923525.0234                   20923523.8834
 -66423253.73447 -51685126.64545  22644373.2504                   22644372.3054
 -34663759.48847 -26827580.17644  23316384.7584                   23316385.4534
 -27756831.12948 -21588611.05546  20864769.5164                   20864767.8754
  -3177822.23047  -2434435.40645  22662866.5864                   22662865.9734
 11  7 30  1 26 30.0000000  0  8G09G12G02G04G17G27G10G05
 -21027520.41047 -16218515.30144  23294150.5784                   23294151.8134
 -12950451.06648 -10050829.08246  22015638.9384                   22015637.5864
 -35903176.13748 -27886564.33646  20766777.5784                   20766773.8244
 -49451355.12548 -38488284.38346  21218271.7894                   21218270.3244
 -64893387.44547 -50493023.04745  22935498.0234                   22935495.9454
 -33123502.38747 -25627379.92644  23609486.0004                   23609486.8754
 -26305434.86748 -20457652.92246  21140960.8834                   21140959.1884
  -1797974.84047  -1359229.55545  22925442.9304                   22925441.8754
 11  7 30  1 27  0.0000000  0  8G09G12G02G04G17G27G10G05
 -21050821.07047 -16236671.73844  23289717.0784                   23289717.6994
 -13118230.06648 -10181565.94546  21983711.8364                   21983710.6604
 -36011312.97348 -27970826.79746  20746199.6644                   20746195.7424
 -49477618.68448 -38508749.52346  21213273.7584                   21213272.5984
 -64938790.42247 -50528402.02045  22926857.9224                   22926856.7074
 -33158474.82447 -25654631.24644  23602830.6724                   23602831.9574
 -26428855.02348 -20553824.45346  21117474.7814                   21117473.6414
  -1993360.91047  -1511478.36345  22888262.1564                   22888261.0274
 11  7 30  1 27 30.0000000  0  8G09G12G02G04G17G27G10G05
 -21073814.43447 -16254588.70744  23285341.5634                   23285342.2194
 -13285649.17248 -10312022.37146  21951852.9454                   21951851.8094
 -36119100.52748 -28054817.08246  20725688.6484                   20725684.5514
 -49503631.57048 -38529019.32446  21208323.8364                   21208322.3554
 -64984042.31647 -50563663.26245  22918246.9454                   22918245.5084
 -33193260.26247 -25681736.85544  23596212.0554                   23596212.8094
 -26551667.71548 -20649522.63746  21094104.3054                   21094103.0084
  -2188552.71947  -1663575.80545  22851117.9144                   22851117.6334
 11  7 30  1 28  0.0000000  0  8G09G12G02G04G17G27G10G05
 -21096506.85547 -16272271.15244  23281022.8204                   23281024.1804
 -13452709.08648 -10442198.91446  21920063.0554                   21920061.1374
 -36226542.07448 -28138537.76247  20705242.8984                   20705239.0784
 -49529398.89548 -38549097.77046  21203420.3674                   21203419.5784
 -65029145.39547 -50598808.52745  22909663.7114                   22909662.2304
 -33227864.11747 -25708701.00844  23589627.1094                   23589627.7734
 -26673874.02748 -20744748.32046  21070849.1254                   21070847.5204
  -2383550.24647  -1815521.83645  22814011.2114                   22814010.8954
 11  7 30  1 28 30.0000000  0  8G09G12G02G04G17G27G10G05
 -21118899.74247 -16289720.24244  23276761.6254                   23276762.6804
 -13619405.52347 -10572092.21946  21888341.2664                   21888339.5984
 -36333637.06248 -28221988.39146  20684863.4144                   20684859.2304
 -49554921.21148 -38568985.32046  21198563.9534                   21198562.7774
 -65074097.30147 -50633836.00045  22901109.7974                   22901108.3874
 -33262287.59047 -25735524.53544  23583076.5704                   23583076.9024
 -26795470.79348 -20839499.02046  21047709.8284                   21047708.3714
  -2578348.53547  -1967312.62945  22776942.2194                   22776941.3954
 11  7 30  1 29  0.0000000  0  8G09G12G02G04G17G27G10G05
 -21140995.90647 -16306938.09044  23272557.7344                   23272557.7584
 -13785735.05547 -10701699.63346  21856689.7194                   21856687.7704
 -36440385.59448 -28305169.05546  20664550.2034                   20664545.9964
 -49580200.19148 -38588683.23446  21193753.4064                   21193751.8014
 -65118896.87147 -50668744.76645  22892584.5554                   22892583.4924
 -33296532.79347 -25762209.20744  23576559.6564                   23576560.5554
 -26916455.94548 -20933773.14846  21024687.2814                   21024685.8164
  -2772943.91447  -2118945.32045  22739911.6644                   22739910.9734
 11  7 30  1 29 30.0000000  0  8G09G12G02G04G17G27G10G05
 -21162798.19147 -16323926.95344  23268408.2424                   23268409.1134
 -13951694.41447 -10831018.60246  21825108.4844                   21825107.0594
 -36546787.74648 -28388079.81646  20644302.3594                   20644298.3324
 -49605237.10548 -38608192.53946  21188988.8524                   21188987.3754
 -65163542.75847 -50703533.79345  22884088.6724                   22884087.5124
 -33330601.63346 -25788756.43044  23570076.6414                   23570077.0664
 -27036827.37948 -21027569.05546  21001781.1024                   21001779.5004
  -2967332.69147  -2270417.01245  22702920.7974                   22702920.3134
 11  7 30  1 30  0.0000000  0  8G09G12G02G04G17G27G10G05
 -21184312.54747 -16340691.45344  23264314.6884                   23264314.9304
 -14117283.59448 -10960049.11346  21793598.2894                   21793596.2274
 -36652847.00848 -28470723.39846  20624119.8204                   20624115.9694
 -49630036.96548 -38627517.12546  21184270.0164                   21184268.4454
 -65208036.96147 -50738204.62144  22875622.1024                   22875620.1484
 -33364499.41846 -25815170.33644  23563625.7424                   23563626.5864
 -27156586.27048 -21120887.65246  20978991.9924                   20978990.1604
  -3161514.74247  -2421727.60245  22665969.4774                   22665968.6764
 11  7 30  1 30 30.0000000  0  8G09G12G02G04G17G27G10G05
 -21205540.94547 -16357233.12144  23260274.9534                   23260275.3524
 -14282498.91048 -11088788.30146  21762159.4144                   21762156.9614
 -36758562.89148 -28553099.40646  20604002.4694                   20603998.9224
 -49654600.39848 -38646657.48446  21179595.1954                   21179594.2774
 -65252377.72347 -50772755.88745  22867184.4844                   22867182.5164
 -33398227.32447 -25841451.92644  23557207.5554                   23557208.2274
 -27275729.74648 -21213726.69946  20956319.5944                   20956318.2734
  -3355485.43747  -2572873.52745  22629057.6484                   22629056.4224
 11  7 30  1 31  0.0000000  0  8G09G12G02G04G17G27G10G05
 -21226489.18447 -16373556.52044  23256288.3204                   23256289.5084
 -14447340.40648 -11217236.19546  21730790.6024                   21730788.9264
 -36863938.42648 -28635210.21146  20583950.5554                   20583946.6454
 -49678932.23448 -38665617.38346  21174965.1174                   21174964.3014
 -65296566.74647 -50807188.89845  22858775.2424                   22858774.0314
 -33431790.50446 -25867605.11344  23550820.6414                   23550822.1334
 -27394258.79348 -21306086.98046  20933764.1484                   20933762.6134
  -3549244.18447  -2723854.28945  22592186.1804                   22592186.0984
 11  7 30  1 31 30.0000000  0  8G09G12G02G04G17G27G10G05
 -21247159.26247 -16389663.14844  23252355.5084                   23252356.3634
 -14611803.68048 -11345389.39146  21699494.3594                   21699492.8674
 -36968973.14548 -28717055.44946  20563963.0314                   20563959.3874
 -49703033.17248 -38684397.34846  21170379.2504                   21170377.8484
 -65340602.07447 -50841502.15245  22850395.7194                   22850393.7584
 -33465190.38746 -25893631.08644  23544464.7584                   23544465.9804
 -27512170.59848 -21397966.28546  20911326.3984                   20911324.8204
  -3742786.64147  -2874666.49645  22555356.6094                   22555355.6174
 11  7 30  1 32  0.0000000  0  8G09G12G02G04G17G27G10G05
 -21267552.44947 -16405554.01244  23248475.0084                   23248475.2774
 -14775884.25848 -11473244.35946  21668270.5084                   21668268.9804
 -37073666.11348 -28798634.39846  20544040.6804                   20544036.7504
 -49726903.33248 -38702997.47746  21165836.2584                   21165835.4224
 -65384480.84047 -50875693.41044  22842046.0864                   22842044.2734
 -33498427.62547 -25919530.32444  23538140.3754                   23538141.8484
 -27629461.84048 -21489362.04746  20889006.7034                   20889004.9774
  -3936107.65247  -3025306.16045  22518568.8524                   22518568.4884
 11  7 30  1 32 30.0000000  0  9G09G12G02G04G17G27G10G25G05
 -21287674.47347 -16421233.59844  23244645.6484                   23244646.8984
 -14939582.07048 -11600801.09446  21637119.7734                   21637117.9774
 -37178020.55148 -28879949.53946  20524182.7424                   20524178.7034
 -49750547.37548 -38721421.43046  21161337.1484                   21161336.1644
 -65428205.15647 -50909764.31244  22833725.4384                   22833723.9184
 -33531507.58647 -25945307.01244  23531846.0234                   23531846.6804
 -27746133.80548 -21580275.25046  20866804.7584                   20866803.3204
  17040809.74256  13292949.25453  24563221.2274                   24563223.3094
  -4129206.88747  -3175773.02045  22481823.1644                   22481822.8364
 11  7 30  1 33  0.0000000  0  9G09G12G02G04G17G27G10G25G05
 -21307532.04347 -16436707.07844  23240867.1564                   23240867.7974
 -15102898.09448 -11728060.33646  21606041.8364                   21606039.6024
 -37282040.65248 -28961004.15646  20504388.4224                   20504384.3134
 -49773970.86748 -38739673.52346  21156879.9614                   21156878.5514
 -65471777.77347 -50943717.00844  22825433.7974                   22825432.0744
 -33564436.07046 -25970965.66843  23525579.5704                   23525580.9414
 -27862188.62948 -21670707.56646  20844720.5164                   20844718.4924
  16843103.64147  13138892.61743  24525599.8984                   24525600.5824
  -4322084.39847  -3326067.11345  22445119.6804                   22445119.5824
 11  7 30  1 33 30.0000000  0  9G09G12G02G04G17G27G10G25G05
 -21327131.80147 -16451979.69944  23237137.4844                   23237138.0124
 -15265832.62148 -11855022.29746  21575036.5474                   21575034.6524
 -37385730.21948 -29041801.21946  20484656.6094                   20484652.8674
 -49797179.08648 -38757757.85546  21152463.6804                   21152462.4064
 -65515201.00047 -50977553.30944  22817171.0234                   22817168.7274
 -33597219.15646 -25996510.99643  23519341.6804                   23519342.1844
 -27977627.75848 -21760660.10946  20822752.6334                   20822751.8324
  16645514.12547  12984926.78143  24487998.0944                   24487999.7464
  -4514740.41447  -3476188.60945  22408458.2194                   22408458.0004
 11  7 30  1 34  0.0000000  0  9G09G12G02G04G17G27G10G25G05
 -21346476.52747 -16467053.57444  23233456.2664                   23233456.8914
 -15428382.87148 -11981684.82846  21544103.8834                   21544101.9104
 -37489089.94948 -29122341.25846  20464988.1564                   20464984.0084
 -49820173.64848 -38775675.69946  21148087.7894                   21148087.0664
 -65558473.91847 -51011272.46944  22808936.2424                   22808934.4574
 -33629859.04746 -26021944.78144  23513130.1644                   23513130.9414
 -28092449.58248 -21850131.64546  20800903.0784                   20800901.3714
  16448044.01647  12831054.00043  24450421.5704                   24450421.8244
  -4707171.46547  -3626134.80545  22371840.1884                   22371840.0394
 11  7 30  1 34 30.0000000  0  9G09G12G02G04G17G27G10G25G05
 -19790150.55547 -15254332.11744  23529615.5234                   23529615.8484
 -14015122.39548 -10880442.89146  21813039.2974                   21813036.9774
 -36016698.50848 -27975023.25046  20745174.6884                   20745170.9024
 -48267537.48048 -37565829.35946  21443545.0704                   21443543.8054
 -64026176.18747 -49817274.23044  23100523.1804                   23100521.3284
 -32086938.68746 -24819669.23843  23806738.7504                   23806738.6804
 -26631230.66848 -20711519.48446  21078963.9224                   21078961.8524
  17826121.06347  13904880.30943  24712660.9924                   24712661.1564
  -3323949.47347  -2548299.41445  22635058.3134                   22635057.4884
 11  7 30  1 35  0.0000000  0  9G09G12G02G04G17G27G10G25G05
 -19808998.08647 -15269018.58644  23526029.2424                   23526030.0744
 -14176898.98048 -11006502.55946  21782253.8984                   21782251.6454
 -36119403.17648 -28055052.85246  20725630.6024                   20725626.3874
 -48290113.70748 -37583421.23046  21439248.6484                   21439247.7704
 -64069149.32847 -49850759.82444  23092345.7274                   23092344.6334
 -32119302.51247 -24844887.89843  23800580.4384                   23800579.8754
 -26744817.24248 -20800028.47746  21057348.7664                   21057347.1604
  17628895.12947  13751197.77044  24675129.4694                   24675129.6024
  -3515923.73047  -2697889.68045  22598527.3054                   22598526.3014
 11  7 30  1 35 30.0000000  0  9G09G12G02G04G17G27G10G25G05
 -19827600.01646 -15283513.67644  23522489.2424                   23522490.0514
 -14338282.82048 -11132256.19946  21751543.5394                   21751540.7424
 -36221780.05948 -28134827.03946  20706149.4774                   20706145.3874
 -48312482.06648 -37600851.13746  21434991.8674                   21434990.5004
 -64111969.50047 -49884126.20345  23084196.9844                   23084195.3834
 -32151530.46546 -24870000.64543  23794447.0864                   23794448.2894
 -26857782.25848 -20888053.14846  21035852.4924                   21035850.7704
  17431796.93046  13597614.82043  24637622.8284                   24637623.1134
  -3707663.31247  -2847297.07445  22562040.1484                   22562039.1484
 11  7 30  1 36  0.0000000  0  9G09G12G02G04G17G27G10G25G05
 -19845955.66447 -15297816.82444  23518997.0704                   23518997.3874
 -14499267.57848 -11257698.86746  21720908.7424                   21720906.8324
 -36323825.64148 -28214343.07446  20686730.7504                   20686726.7934
 -48334640.48448 -37618117.45746  21430775.0314                   21430774.4064
 -64154632.07847 -49917369.79744  23076078.5634                   23076077.7774
 -32183621.29347 -24895006.55543  23788340.6334                   23788340.9344
 -26970120.66048 -20975589.53146  21014475.1174                   21014473.4534
  17234833.02047  13444136.46143  24600141.2734                   24600141.2814
  -3899161.04347  -2996516.01645  22525599.0474                   22525598.3324
 11  7 30  1 36 30.0000000  0  9G09G12G02G04G17G27G10G25G05
 -19864068.21947 -15311930.59844  23515549.3204                   23515550.4144
 -14659850.25048 -11382828.23046  21690351.0634                   21690348.6524
 -36425540.83248 -28293601.65246  20667374.6884                   20667370.8244
 -48356591.16448 -37635221.89546  21426598.4224                   21426597.1954
 -64197136.62947 -49950490.24245  23067989.9844                   23067988.9414
 -32215577.46946 -24919907.60243  23782259.6024                   23782259.8204
 -27081831.16448 -21062636.65646  20993217.4384                   20993215.6884
  17038006.23046  13290764.95343  24562686.7974                   24562686.6804
  -4090413.55947  -3145543.89545  22489204.8594                   22489203.8794
 11  7 30  1 37  0.0000000  0  9G09G12G02G04G17G27G10G25G05
 -19881942.47347 -15325858.63744  23512148.2194                   23512149.3794
 -14820030.12148 -11507643.70746  21659870.0944                   21659867.3094
 -36526927.91848 -28372604.55946  20648081.0784                   20648077.6724
 -48378337.10248 -37652166.79345  21422460.5314                   21422458.7934
 -64239483.71147 -49983488.00845  23059931.7814                   23059930.7304
 -32247403.09846 -24944706.87143  23776203.1254                   23776204.1414
 -27192913.73448 -21149194.47746  20972079.1254                   20972077.1094
  16841317.73846  13137501.24644  24525257.6174                   24525258.3284
  -4281419.27047  -3294379.44145  22452857.1484                   22452856.5084
 11  7 30  1 37 30.0000000  0  9G09G12G02G04G17G27G10G25G05
 -19899580.78947 -15339602.85244  23508792.3204                   23508792.7734
 -14979803.59448 -11632142.52346  21629466.0864                   21629464.0434
 -36627986.89148 -28451351.80946  20628850.5164                   20628846.5514
 -48399880.03548 -37668953.50045  21418360.7344                   21418359.4144
 -64281671.96547 -50016361.98445  23051903.9454                   23051902.2384
 -32279100.05946 -24969405.91843  23770172.2664                   23770173.0634
 -27303367.19548 -21235262.09046  20951060.0944                   20951058.9184
  16644771.00447  12984347.91843  24487856.6414                   24487856.7774
  -4472174.36747  -3443019.71145  22416558.1414                   22416556.9884
 11  7 30  1 38  0.0000000  0  9G09G12G02G04G17G27G10G25G05
 -19916987.56647 -15353166.66444  23505479.7814                   23505480.2854
 -15139169.24247 -11756323.53946  21599139.9534                   21599137.4574
 -36728719.55948 -28529844.80546  20609681.3524                   20609677.8014
 -48421222.73048 -37685584.18445  21414299.3054                   21414298.4494
 -64323702.02747 -50049112.71545  23043905.8914                   23043904.2704
 -32310672.00446 -24994007.48444  23764163.2194                   23764164.8094
 -27413191.00848 -21320839.07046  20930161.5314                   20930160.6294
  16448367.56646  12831306.31643  24450481.2814                   24450482.7734
  -4662677.03947  -3591463.30945  22380306.6484                   22380305.7584
 11  7 30  1 38 30.0000000  0  9G09G12G02G04G17G27G10G25G05
 -19934166.03947 -15366552.56644  23502210.7894                   23502211.9184
 -15298124.54748 -11880184.80146  21568891.1564                   21568889.5124
 -36829127.03148 -28608084.38746  20590575.1024                   20590571.2664
 -48442367.10248 -37702060.33646  21410276.0704                   21410274.5434
 -64365572.59847 -50081739.16045  23035937.7194                   23035936.8524
 -32342121.37546 -25018513.58643  23758179.4924                   23758180.9064
 -27522383.91448 -21405924.43046  20909382.9144                   20909380.9344
  16252110.21946  12678378.50043  24413135.0084                   24413135.3164
  -4852923.81247  -3739707.47345  22344103.7114                   22344102.7704
 11  7 30  1 39  0.0000000  0  9G09G12G02G04G17G27G10G25G05
 -19951120.37947 -15379763.83244  23498984.7114                   23498985.0164
 -15456667.33247 -12003724.62946  21538721.6024                   21538719.5354
 -36929210.65648 -28686071.61346  20571529.5164                   20571525.5274
 -48463316.28148 -37718384.38345  21406289.0234                   21406288.0004
 -64407284.17247 -50114241.72345  23028001.0634                   23027999.7544
 -32373451.84046 -25042927.03544  23752217.7424                   23752219.1484
 -27630946.14548 -21490518.35546  20888723.9614                   20888722.6334
  16056000.71546  12525565.91443  24375816.1024                   24375817.4264
  -5042912.50447  -3887750.53945  22307949.9844                   22307949.5704
 11  7 30  1 39 30.0000000  0  9G09G12G02G04G17G27G10G25G05
 -19967852.15247 -15392801.64844  23495800.8134                   23495801.5744
 -15614793.44947 -12126939.77346  21508631.4144                   21508629.5664
 -37028969.61348 -28763805.86746  20552545.5704                   20552541.9104
 -48484070.27048 -37734556.34445  21402340.1094                   21402338.4104
 -64448834.08647 -50146618.29745  23020093.7504                   23020092.7234
 -32404664.17646 -25067248.41043  23746277.7584                   23746278.6134
 -27738874.65248 -21574618.47746  20868185.6724                   20868184.5594
  15860043.55146  12372872.03543  24338526.7974                   24338529.4064
  -5232638.27747  -4035588.73445  22271847.0084                   22271845.9844
 11  7 30  1 40  0.0000000  0  9G09G12G02G04G17G27G10G25G05
 -19984366.48447 -15405670.02744  23492657.9384                   23492658.7384
 -15772502.37948 -12249829.84046  21478620.2274                   21478617.9844
 -37128406.72348 -28841289.32846  20533623.3444                   20533619.8284
 -48504633.05148 -37750579.29745  21398427.2034                   21398425.8324
 -64490223.57047 -50178869.87145  23012217.4224                   23012216.5594
 -32435762.75446 -25091481.21943  23740360.4534                   23740361.5434
 -27846170.29748 -21658225.46146  20847768.0474                   20847766.8444
  15664239.50446  12220297.45343  24301266.6024                   24301268.3554
  -5422100.02047  -4183221.19945  22235793.1644                   22235792.4924
 11  7 30  1 40 30.0000000  0  9G09G12G02G04G17G27G10G25G05
 -20000664.42247 -15418369.80544  23489556.7424                   23489557.4384
 -15929788.96548 -12372390.80946  21448689.7734                   21448687.6024
 -37227520.35248 -28918520.71946  20514762.9774                   20514759.0274
 -48525004.25848 -37766452.99645  21394550.5004                   21394549.0314
 -64531450.17647 -50210994.51645  23004373.0474                   23004371.2664
 -32466748.18046 -25115625.80543  23734464.0394                   23734465.4774
 -27952829.91848 -21741336.82846  20827471.7114                   20827470.2234
  15468593.49246  12067846.03943  24264037.2274                   24264038.9804
  -5611292.25847  -4330643.66045  22199791.1484                   22199790.5044
 11  7 30  1 41  0.0000000  0  9G09G12G02G04G17G27G10G25G05
 -20016750.56647 -15430904.50443  23486496.0084                   23486496.0634
 -16086652.94548 -12494622.47346  21418839.9614                   21418837.5434
 -37326312.90648 -28995501.90646  20495963.3594                   20495959.5474
 -48545187.26248 -37782180.00445  21390709.7504                   21390708.7504
 -64572514.05547 -50242992.35545  22996558.1884                   22996557.4804
 -32497624.27046 -25139685.18044  23728588.6094                   23728589.9694
 -28058853.79748 -21823952.83246  20807295.8594                   20807294.0904
  15273106.88347  11915518.82843  24226837.6334                   24226839.4964
  -5800213.19147  -4477854.71945  22163840.3284                   22163839.3874
 11  7 30  1 41 30.0000000  0  9G09G12G02G04G17G27G10G25G05
 -20032628.34446 -15443276.86744  23483473.4144                   23483475.1604
 -16243091.38347 -12616522.53946  21389070.4924                   21389068.0664
 -37424785.57848 -29072233.85247  20477224.7344                   20477221.2154
 -48565184.32448 -37797762.14546  21386904.2894                   21386902.9804
 -64613415.11747 -50274863.32445  22988775.0234                   22988773.9024
 -32528393.97346 -25163661.70743  23722733.3524                   23722734.3324
 -28164241.57848 -21906073.16446  20787241.0784                   20787239.4454
  15077782.17647  11763317.77744  24189668.3284                   24189670.8014
  -5988860.09847  -4624852.25046  22127942.3444                   22127941.4024
 11  7 30  1 42  0.0000000  0  9G09G12G02G04G17G27G10G25G05
 -20048303.04347 -15455491.01644  23480491.6884                   23480492.1884
 -16399103.32848 -12738090.27346  21359382.2504                   21359379.7774
 -37522941.14148 -29148718.69546  20458546.0164                   20458542.6134
 -48584999.07048 -37813202.21945  21383133.5704                   21383132.4104
 -64654154.09447 -50306607.99245  22981022.8284                   22981022.0514
 -32559061.55946 -25187558.66443  23716897.9304                   23716899.0744
 -28268994.23048 -21987698.58246  20767307.8284                   20767306.0204
  14882620.32447  11611243.66044  24152530.6884                   24152533.0234
  -6177231.69547  -4771635.27045  22092095.9304                   22092095.1884
 11  7 30  1 42 30.0000000  0  9G09G12G02G04G17G27G10G25G05
 -20063777.84847 -15467549.34444  23477546.7734                   23477547.3754
 -16554686.75448 -12859324.09846  21329775.1804                   21329773.3204
 -37620780.12148 -29224956.85946  20439928.2194                   20439924.4384
 -48604633.32448 -37828501.65245  21379397.9384                   21379396.6954
 -64694730.71147 -50338226.16045  22973301.8524                   22973300.3364
 -32589629.70346 -25211378.08644  23711080.2814                   23711082.6994
 -28373110.54348 -22068828.16446  20747494.7894                   20747492.8444
  14687623.96547  11459298.48844  24115424.1484                   24115426.0084
  -6365324.86747  -4918201.30945  22056303.4694                   22056302.2854
 11  7 30  1 43  0.0000000  0  9G09G12G02G04G17G27G10G25G05
 -18503631.41446 -14251850.94944  23774433.2974                   23774433.9654
 -15134410.16048 -11752615.04346  21600045.0634                   21600042.4534
 -36142876.41048 -28073343.57046  20721163.8284                   20721159.8794
 -47048664.68448 -36616058.57846  21675488.5634                   21675487.9264
 -63159719.13747 -49142113.24645  23265404.5944                   23265403.4494
 -31044676.30146 -24007518.35943  24005075.4144                   24005077.7774
 -26901162.57448 -20921855.70346  21027597.1644                   21027595.5274
  16068226.14147  12535092.43444  24378144.2424                   24378146.7894
  -4977706.56647  -3836940.23446  22320358.3204                   22320357.7584
 11  7 30  1 43 30.0000000  0  9G09G12G02G04G17G27G10G25G05
 -18518711.74246 -14263601.94943  23771563.7114                   23771563.4414
 -15289124.74648 -11873171.84446  21570603.9304                   21570601.8984
 -36240081.01648 -28149087.41847  20702666.0474                   20702662.6604
 -47067939.81248 -36631078.17245  21671820.8594                   21671819.4224
 -63199964.56247 -49173473.32845  23257746.1804                   23257744.7424
 -31075049.39546 -24031185.83243  23999295.6884                   23999298.0594
 -27004000.14848 -21001988.85246  21008027.8524                   21008026.3834
  15873573.16047  12383414.82044  24341102.6174                   24341105.0004
  -5165229.60547  -3983062.01645  22284673.4454                   22284672.8444
 11  7 30  1 44  0.0000000  0  9G09G12G02G04G17G27G10G25G05
 -18533605.38347 -14275207.44143  23768729.0164                   23768729.0204
 -15443406.16048 -11993391.11346  21541245.0784                   21541243.0164
 -36336975.37948 -28224589.50846  20684227.8674                   20684224.3754
 -47087043.68748 -36645964.31645  21668185.4454                   21668184.2774
 -63240048.87947 -49204707.86345  23250118.2894                   23250117.2974
 -31105334.39146 -24054784.65643  23993532.9224                   23993535.0634
 -27106202.32848 -21081626.90246  20988579.3204                   20988577.8914
  15679090.46547  12231869.93444  24304093.7114                   24304096.7974
  -5352468.33247  -4128962.27345  22249043.0634                   22249042.1214
 11  7 30  1 44 30.0000000  0  9G09G12G02G04G17G27G10G25G05
 -18548310.10947 -14286665.75043  23765931.1804                   23765931.3674
 -15597246.93748 -12113267.04746  21511970.4844                   21511968.0704
 -36433554.64148 -28299846.06246  20665849.7274                   20665845.8244
 -47105972.71948 -36660714.22745  21664583.4064                   21664582.2344
 -63279965.95747 -49235812.09444  23242521.6334                   23242521.5204
 -31135528.43746 -24078312.60543  23987787.6094                   23987789.2424
 -27207762.98448 -21160765.05946  20969252.5554                   20969251.1764
  15484786.25047  12080464.10544  24267119.2584                   24267121.0944
  -5539414.00447  -4274634.15645  22213468.3594                   22213467.2814
 11  7 30  1 45  0.0000000  0  9G09G12G02G04G17G27G10G25G05
 -18562832.77347 -14297982.16043  23763167.5704                   23763168.0044
 -15750648.12948 -12232800.43446  21482779.2424                   21482777.2814
 -36529823.43448 -28374860.70747  20647530.4384                   20647526.7974
 -47124732.39148 -36675332.17245  21661013.3284                   21661012.0394
 -63319718.69146 -49266788.25044  23234957.3914                   23234956.4104
 -31165637.64146 -24101774.40243  23982057.9694                   23982059.9304
 -27308685.11348 -21239405.66046  20950048.0474                   20950046.5704
  15290659.74646  11929196.77744  24230177.7274                   24230180.2154
  -5726067.40647  -4420078.30545  22177949.4304                   22177948.4344
 11  7 30  1 45 30.0000000  0  9G09G12G02G04G17G27G10G25G05
 -18577176.99247 -14309159.55143  23760437.6564                   23760438.7424
 -15903607.30947 -12351989.39546  21453671.7974                   21453670.2034
 -36625782.94148 -28449634.33246  20629269.8754                   20629266.0944
 -47143324.85248 -36689819.81645  21657475.1174                   21657474.3874
 -63359306.80947 -49297636.14544  23227424.1884                   23227422.5354
 -31195664.97346 -24125172.40643  23976343.9384                   23976345.6644
 -27408968.22748 -21317548.32446  20930964.8444                   20930963.2774
  15096713.34446  11778069.80143  24193270.4064                   24193273.4344
  -5912426.28147  -4565292.94546  22142486.6804                   22142486.1804
 11  7 30  1 46  0.0000000  0  9G09G12G02G04G17G27G10G25G05
 -18591348.03947 -14320202.02344  23757741.4534                   23757741.4804
 -16056124.73848 -12470834.12546  21424648.5634                   21424646.8204
 -36721436.60948 -28524169.64146  20611067.5084                   20611063.5314
 -47161754.28948 -36704180.44545  21653968.2114                   21653967.7934
 -63398732.03947 -49328357.10944  23219921.2734                   23219920.1524
 -31225615.42246 -24148510.55144  23970644.4844                   23970646.4884
 -27508614.34048 -21395194.63346  20912002.8284                   20912001.6454
  14902947.49646  11627083.48843  24156397.5394                   24156400.5044
  -6098489.28947  -4710277.04745  22107080.0234                   22107078.6254
 11  7 30  1 46 30.0000000  0  9G09G12G02G04G17G27G10G25G05
 -18605346.18447 -14331109.77344  23755078.4224                   23755078.2344
 -16208194.39148 -12589329.95346  21395710.9694                   21395708.7704
 -36816781.85248 -28598464.62947  20592924.1564                   20592919.8134
 -47180019.72348 -36718413.27345  21650492.6024                   21650491.7034
 -63437990.47746 -49358948.11744  23212450.9384                   23212449.5204
 -31255488.44146 -24171788.33243  23964960.0234                   23964961.5944
 -27607619.40648 -21472341.41846  20893162.9694                   20893161.1604
  14709367.96547  11476242.39543  24119560.7664                   24119563.2114
  -6284250.07847  -4855025.64545  22071731.0004                   22071729.6454
 11  7 30  1 47  0.0000000  0  9G09G12G02G04G17G27G10G25G05
 -18619177.23447 -14341887.28944  23752445.2424                   23752446.4264
 -16359816.87948 -12707477.32446  21366857.9064                   21366856.1214
 -36911822.33648 -28672522.13747  20574838.2424                   20574834.7194
 -47198125.30548 -36732521.53145  21647047.2664                   21647046.4574
 -63477083.94147 -49389410.53544  23205011.6024                   23205010.6294
 -31285288.86746 -24195009.51643  23959289.2034                   23959291.6254
 -27705985.28148 -21548990.13346  20874444.2894                   20874443.0744
  14515975.27747  11325546.82043  24082759.2504                   24082760.6914
  -6469708.19947  -4999538.41046  22036439.2814                   22036437.7344
 11  7 30  1 47 30.0000000  0  9G09G12G02G04G17G27G10G25G05
 -18632843.01647 -14352536.02744  23749845.5474                   23749846.2034
 -16510988.07448 -12825273.07046  21338091.2664                   21338089.1174
 -37006557.18048 -28746341.49646  20556810.9454                   20556807.4184
 -47216071.21148 -36746505.37545  21643632.3594                   21643631.1684
 -63516010.12147 -49419742.62944  23197604.3284                   23197603.2384
 -31315017.94146 -24218175.07843  23953632.0634                   23953634.3554
 -27803709.96148 -21625139.21946  20855848.3284                   20855846.3754
  14322773.54747  11175000.00843  24045994.8364                   24045995.5434
  -6654859.35947  -5143811.98846  22001206.2274                   22001205.1024
 11  7 30  1 48  0.0000000  0  9G09G12G02G04G17G27G10G25G05
 -18646347.28547 -14363058.91844  23747275.8674                   23747276.6564
 -16661705.69548 -12942715.35946  21309410.3134                   21309408.6804
 -37100988.21948 -28819924.11347  20538841.3674                   20538837.8954
 -47233860.16048 -36760366.90245  21640247.2894                   21640246.0314
 -63554769.43447 -49449944.71144  23190229.0784                   23190227.3554
 -31344678.83246 -24241287.55943  23947987.6564                   23947990.0234
 -27900793.40248 -21700788.64846  20837373.3204                   20837372.3284
  14129764.96147  11024603.72343  24009265.8914                   24009267.2854
  -6839701.10547  -5287844.44945  21966031.5164                   21966030.8444
 11  7 30  1 48 30.0000000  0  9G09G12G02G04G17G27G10G25G05
 -18659693.14847 -14373458.40244  23744736.3984                   23744737.0664
 -16811967.66848 -13059802.60546  21280816.7974                   21280814.5664
 -37195116.10248 -28893270.50847  20520929.4064                   20520925.9494
 -47251493.49648 -36774107.17245  21636891.2504                   21636890.3754
 -63593360.73446 -49480015.87544  23182884.4224                   23182883.3794
 -31374273.99246 -24264348.79343  23942356.6334                   23942357.7464
 -27997235.07847 -21775937.99246  20819021.1174                   20819019.5824
  13936952.48847  10874360.19143  23972575.2664                   23972575.8554
  -7024230.03947  -5431633.18045  21930916.8134                   21930916.0164
 11  7 30  1 49  0.0000000  0  9G09G12G02G04G17G27G10G25G05
 -18672884.85547 -14383737.72744  23742225.6804                   23742227.5004
 -16961772.52048 -13176533.64846  21252309.8834                   21252307.8984
 -37288942.87548 -28966382.27346  20503074.5314                   20503070.6644
 -47268974.41848 -36787728.71145  21633565.0704                   21633564.3794
 -63631784.53947 -49509956.53144  23175573.3834                   23175572.0944
 -31403807.26246 -24287361.83643  23936736.6094                   23936738.4184
 -28093035.66847 -21850587.78546  20800791.1024                   20800789.7774
  13744337.74247  10724270.77343  23935921.9844                   23935923.0514
  -7208444.37947  -5575176.77046  21895861.8284                   21895860.4614
 11  7 30  1 49 30.0000000  0  9G09G12G02G04G17G27G10G25G05
 -18685928.70347 -14393901.82844  23739743.5474                   23739745.4414
 -17111121.25848 -13292909.25846  21223889.8674                   21223886.9344
 -37382472.53548 -29039262.52346  20485276.5864                   20485272.7154
 -47286307.55948 -36801235.08245  21630266.9534                   21630266.2544
 -63670043.46547 -49539768.69544  23168292.7274                   23168291.8914
 -31433284.12946 -24310330.89843  23931127.2114                   23931128.4884
 -28188197.71948 -21924740.01646  20782682.1724                   20782680.7274
  13551920.48847  10574335.23444  23899305.8444                   23899307.6094
  -7392344.23047  -5718475.29346  21860866.8134                   21860866.1764
 11  7 30  1 50  0.0000000  0  9G09G12G02G04G17G27G10G25G05
 -18698824.29747 -14403950.43744  23737289.5394                   23737291.2384
 -17260007.21148 -13408924.29746  21195557.4304                   21195555.1484
 -37475702.17248 -29111908.98046  20467535.6334                   20467532.0004
 -47303491.15648 -36814624.92245  21626996.8204                   21626996.1094
 -63708133.14146 -49569448.96944  23161043.8834                   23161043.5944
 -31462703.60946 -24333255.27743  23925528.5944                   23925530.1414
 -28282717.01248 -21998391.41046  20764696.0474                   20764694.3484
  13359707.27747  10424558.73844  23862729.5164                   23862730.1844
  -7575922.67247  -5861523.36746  21825933.0704                   21825932.3754
 11  7 30  1 50 30.0000000  0  9G09G12G02G04G17G27G10G25G05
 -18711573.16846 -14413884.73444  23734862.8284                   23734865.0274
 -17408426.68048 -13524575.81246  21167314.1334                   21167312.3594
 -37568631.12148 -29184321.13746  20449851.3524                   20449847.7194
 -47320525.47348 -36827898.43045  21623755.4694                   21623754.4574
 -63746050.73047 -49598995.16444  23153829.3284                   23153828.2584
 -31492066.28946 -24356135.37943  23919941.4614                   23919943.0704
 -28376591.49648 -22071540.33246  20746832.2974                   20746830.7154
  13167702.58647  10274944.71144  23826191.2194                   23826192.5664
  -7759174.92647  -6004317.28546  21791060.9614                   21791060.1564
 11  7 30  1 51  0.0000000  0  9G09G12G02G04G17G27G10G25G05
 -18724178.73847 -14423707.33644  23732465.1954                   23732466.6334
 -17556378.08648 -13639862.61346  21139159.7974                   21139158.0314
 -37661260.89848 -29256500.17247  20432224.8204                   20432221.1334
 -47337412.68048 -36841057.28945  21620541.8754                   21620540.9494
 -63783796.69547 -49628407.62544  23146646.4144                   23146645.0314
 -31521375.38346 -24378973.76643  23914364.2114                   23914365.6644
 -28469821.53948 -22144187.10946  20729091.1564                   20729089.5784
  12975908.61747  10125494.83244  23789694.8594                   23789696.4804
  -7942098.79347  -6146855.31246  21756251.8914                   21756250.8404
 11  7 30  1 51 30.0000000  0  9G09G12G02G04G17G27G10G25G05
 -17161225.47346 -13205821.77044  24029885.2894                   24029887.4224
 -16128435.35248 -12527179.93746  21410888.4304                   21410886.6294
 -36178170.47748 -28100845.28546  20714447.4534                   20714443.4884
 -45778735.35948 -35626503.55545  21917148.1724                   21917147.2194
 -62245950.40247 -48430085.86344  23439288.9064                   23439287.5124
 -29975213.98046 -23174172.72743  24208588.9694                   24208590.3594
 -26986985.02348 -20988730.06646  21011265.1954                   21011263.6414
  14359753.19147  11203815.30144  24053031.5704                   24053033.5204
  -6549266.59047  -5061531.45746  22021299.6254                   22021298.0164
 11  7 30  1 52  0.0000000  0  9G09G12G02G04G17G27G10G25G05
 -17173557.99647 -13215431.59444  24027539.0554                   24027539.8094
 -16275446.57448 -12641734.10946  21382913.1414                   21382911.3364
 -36270207.85948 -28172562.70346  20696933.8674                   20696929.7854
 -45795336.93048 -35639439.84445  21913989.0314                   21913987.8054
 -62283353.98847 -48459231.53944  23432171.4844                   23432170.0594
 -30004426.94546 -23196936.19143  24203029.8674                   24203032.0784
 -27078928.54348 -21060374.34446  20993769.3364                   20993767.4224
  14168385.80946  11054697.86744  24016615.5084                   24016617.6524
  -6731527.80547  -5203553.11746  21986615.8674                   21986614.7464
 11  7 30  1 52 30.0000000  0  9G09G12G02G04G17G27G10G25G05
 -17185759.48447 -13224939.33244  24025217.0234                   24025217.8284
 -16421984.34848 -12755919.37546  21355027.8834                   21355025.8794
 -36361951.21948 -28244051.03146  20679475.3914                   20679471.5004
 -45811799.10248 -35652267.53545  21910856.7814                   21910855.6174
 -62320586.46947 -48488243.87544  23425086.1484                   23425084.8404
 -30033596.63346 -23219665.93443  24197478.9844                   24197481.1214
 -27170229.03148 -21131517.57046  20976395.1254                   20976393.3874
  13977235.14547  10905749.32044  23980240.7194                   23980242.7154
  -6913453.98847  -5345313.73446  21951996.4844                   21951995.3634
 11  7 30  1 53  0.0000000  0  9G09G12G02G04G17G27G10G25G05
 -17197831.31246 -13234346.03144  24022919.6954                   24022921.1604
 -16568045.46148 -12869733.21146  21327233.0864                   21327231.4024
 -36453399.77348 -28315309.64546  20662072.9144                   20662069.0234
 -45828121.63348 -35664986.39845  21907750.5084                   21907749.3444
 -62357645.33247 -48517120.91044  23418033.7814                   23418032.5864
 -30062723.60246 -23242362.37943  24191936.2194                   24191938.6484
 -27260884.17647 -21202157.92246  20959144.6564                   20959142.5124
  13786306.04747  10756973.38744  23943908.6094                   23943909.7344
  -7095040.28147  -5486809.48046  21917441.7814                   21917440.6294
 11  7 30  1 53 30.0000000  0  9G09G12G02G04G17G27G10G25G05
 -17209779.57047 -13243656.45744  24020646.8524                   24020647.5314
 -16713629.91448 -12983175.62146  21299529.2504                   21299527.1724
 -36544557.22748 -28386341.41446  20644726.8524                   20644722.7154
 -45844309.11748 -35677600.03945  21904670.2974                   21904668.9804
 -62394532.53147 -48545864.20344  23411014.9844                   23411013.2584
 -30091813.31646 -23265029.79743  24186400.5314                   24186403.2034
 -27350896.84048 -21272297.63346  20942015.4454                   20942013.6724
  13595598.41847  10608370.00444  23907617.3134                   23907619.2234
  -7276286.37147  -5628040.14546  21882951.7274                   21882950.9024
 11  7 30  1 54  0.0000000  0  9G09G12G02G04G17G27G10G25G05
 -17221610.38346 -13252875.32843  24018394.8914                   24018395.9574
 -16858738.69948 -13096247.38746  21271916.0314                   21271914.0354
 -36635427.39148 -28457149.31646  20627434.6024                   20627430.4654
 -45860366.16848 -35690112.02745  21901614.5314                   21901613.3244
 -62431250.48847 -48574475.60544  23404027.9064                   23404026.2074
 -30120871.07046 -23287672.28943  24180871.6644                   24180873.3404
 -27440269.89548 -21341938.96146  20925008.0554                   20925006.3444
  13405112.10247  10459939.13744  23871369.0554                   23871371.1914
  -7457192.46147  -5769005.87946  21848526.4694                   21848525.3524
 11  7 30  1 54 30.0000000  0  9G09G12G02G04G17G27G10G25G05
 -17233321.78946 -13262001.20743  24016166.0784                   24016167.4024
 -17003364.17248 -13208942.53946  21244394.7734                   21244392.9184
 -36726006.28948 -28527730.26246  20610197.5474                   20610193.5824
 -45876289.63748 -35702519.93445  21898584.7274                   21898583.5234
 -62467793.74647 -48602950.88744  23397073.8054                   23397072.1564
 -30149894.50446 -23310288.05943  24175349.0314                   24175350.0084
 -27528997.87948 -21411077.63746  20908123.4384                   20908122.0784
  13214854.98447  10311686.84444  23835164.5704                   23835166.3164
  -7637750.22747  -5909700.19146  21814167.4384                   21814166.0474
 11  7 30  1 55  0.0000000  0  9G09G12G02G04G17G27G10G25G05
 -17244919.09046 -13271038.14543  24013959.1954                   24013960.5004
 -17147506.00448 -13321260.84046  21216965.6644                   21216963.0664
 -36816297.02048 -28598086.66446  20593016.0634                   20593012.4144
 -45892083.32848 -35714826.71945  21895579.0944                   21895577.4694
 -62504163.54746 -48631290.98044  23390152.0474                   23390150.7934
 -30178888.39546 -23332880.79343  24169831.8134                   24169832.9264
 -27617082.62148 -21479715.07046  20891361.6024                   20891360.0864
  13024827.84447  10163613.74244  23799003.8754                   23799005.0474
  -7817959.23847  -6050122.75446  21779875.0784                   21779873.9964
 11  7 30  1 55 30.0000000  0  9G09G12G02G04G17G27G10G25G05
 -17256403.98846 -13279987.46143  24011774.3594                   24011774.6414
 -17291161.14848 -13433199.89546  21189628.9144                   21189626.6214
 -36906298.75848 -28668217.89146  20575889.0554                   20575885.7704
 -45907747.43748 -35727032.52745  21892598.3204                   21892597.4534
 -62540357.80147 -48659494.31244  23383265.2504                   23383264.0554
 -30207853.52746 -23355451.10943  24164320.0084                   24164321.6374
 -27704522.57048 -21547850.08246  20874722.5784                   20874720.7194
  12835034.98047  10015723.20344  23762887.8594                   23762888.9454
  -7997814.72748  -6190269.83246  21745649.6414                   21745648.3794
 11  7 30  1 56  0.0000000  0  9G09G12G02G04G17G27G10G25G05
 -17267782.35247 -13288853.81243  24009608.8674                   24009610.1334
 -17434329.69148 -13544759.78546  21162384.8134                   21162382.2274
 -36996015.33648 -28738126.91446  20558817.0784                   20558813.0784
 -45923286.13348 -35739140.61745  21889641.9534                   21889640.3244
 -62576378.80947 -48687562.64544  23376410.8984                   23376409.3554
 -30236795.10546 -23378003.04743  24158812.0004                   24158813.3674
 -27791320.47748 -21615484.79746  20858205.4384                   20858203.4534
  12645476.65247   9868015.40244  23726816.0554                   23726817.2734
  -8177316.32048  -6330141.16446  21711491.3754                   21711490.0004
 11  7 30  1 56 30.0000000  0  9G09G12G02G04G17G27G10G25G05
 -17279059.75047 -13297641.49644  24007463.0864                   24007464.2734
 -17577011.78548 -13655940.62946  21135233.6024                   21135230.7504
 -37085450.18448 -28807816.39546  20541797.6884                   20541794.0744
 -45938703.80948 -35751154.40245  21886707.6954                   21886706.5704
 -62612228.16847 -48715497.21144  23369588.2894                   23369587.0434
 -30265718.18446 -23400540.59043  24153308.6334                   24153309.6484
 -27877478.84848 -21682621.16846  20841809.7894                   20841807.9574
  12456153.10547   9720490.55144  23690788.8914                   23690790.7734
  -8356464.03948  -6469736.71946  21677400.8134                   21677399.5394
 11  7 30  1 57  0.0000000  0  9G09G12G02G04G17G27G10G25G05
 -17290238.87547 -13306352.57844  24005336.0394                   24005336.8284
 -17719204.82448 -13766740.39546  21108174.8524                   21108172.5864
 -37174603.74648 -28877286.69946  20524832.6954                   20524828.6884
 -45954001.44948 -35763074.64545  21883796.4304                   21883794.9774
 -62647904.93747 -48743297.31244  23362799.4614                   23362798.5744
 -30294624.93746 -23423065.43043  24147809.4304                   24147809.3874
 -27962997.30148 -21749258.90646  20825536.4304                   20825534.4804
  12267067.66847   9573151.29744  23654806.6954                   23654808.8524
  -8535254.17248  -6609053.66446  21643378.1804                   21643377.0004
 11  7 30  1 57 30.0000000  0  9G09G12G02G04G17G27G10G25G05
 -17301319.96147 -13314987.23844  24003228.0864                   24003228.2384
 -17860903.37148 -13877154.83646  21081210.5784                   21081208.1954
 -37263473.64848 -28946535.97747  20507921.2194                   20507917.3914
 -45969177.54747 -35774900.18045  21880908.3204                   21880907.1804
 -62683405.59847 -48770960.16044  23356044.1884                   23356042.8164
 -30323514.94946 -23445577.23843  24142309.5394                   24142311.5234
 -28047872.68048 -21815395.55946  20809384.8284                   20809383.4264
  12078226.35247   9426002.21143  23618871.2504                   23618872.5984
  -8713680.59048  -6748087.19146  21609424.7584                   21609423.3524
 11  7 30  1 58  0.0000000  0  9G09G12G02G04G17G27G10G25G05
 -17312308.52747 -13323549.78944  24001135.6884                   24001137.2344
 -18002108.04348 -13987184.43746  21054340.3444                   21054337.8324
 -37352063.84848 -29015567.29347  20491062.9614                   20491059.4414
 -45984236.43048 -35786634.38745  21878043.0394                   21878041.3484
 -62718731.73447 -48798487.01644  23349321.5314                   23349321.1844
 -30352392.87546 -23468079.62942  24136815.4534                   24136816.4774
 -28132107.06248 -21881032.71946  20793355.8054                   20793354.6414
  11889629.50047   9279043.60944  23582982.3054                   23582982.5784
  -8891742.82048  -6886836.93046  21575540.4304                   21575539.0514
 11  7 30  1 58 30.0000000  0  9G09G12G02G04G17G27G10G25G05
 -17323207.66847 -13332042.71144  23999062.1724                   23999064.0204
 -18142816.62948 -14096827.48046  21027564.3524                   21027562.2234
 -37440375.50048 -29084381.55946  20474257.8284                   20474254.0594
 -45999180.00448 -35798278.72745  21875199.3054                   21875197.7814
 -62753883.12547 -48825877.73844  23342632.8364                   23342631.4494
 -30381261.65646 -23490574.86342  24131321.2584                   24131323.5664
 -28215701.25048 -21946171.03546  20777448.2894                   20777446.5864
  11701279.59447   9132277.53544  23547140.0704                   23547140.9774
  -9069438.24648  -7025300.85246  21541725.9224                   21541724.7774
 11  7 30  1 59  0.0000000  0  9G09G12G02G04G17G27G10G25G05
 -17334019.84847 -13340467.84444  23997004.8284                   23997005.7774
 -18283026.38348 -14206081.83246  21000883.1254                   21000880.8444
 -37528408.43448 -29152978.64546  20457505.7344                   20457501.9494
 -46014008.69948 -35809833.55945  21872377.7034                   21872376.4804
 -62788858.25447 -48853131.09444  23335976.2814                   23335975.5084
 -30410122.75846 -23513064.11742  24125830.0864                   24125831.2584
 -28298654.41448 -22010809.85546  20761662.7424                   20761661.3754
  11513180.60546   8985706.93844  23511345.8054                   23511347.7034
  -9246763.28548  -7163476.15646  21507982.4144                   21507980.8794
 11  7 30  1 59 30.0000000  0  9G09G12G02G04G17G27G10G25G05
 -17344750.41447 -13348829.41044  23994962.3444                   23994964.4184
 -18422737.31248 -14314947.48446  20974296.9694                   20974294.6844
 -37616166.09848 -29221361.23846  20440806.0474                   20440801.9844
 -46028726.71948 -35821302.13745  21869576.8914                   21869575.9574
 -62823659.24647 -48880248.75044  23329354.8674                   23329354.0984
 -30438980.91446 -23535551.10542  24120338.2034                   24120340.8984
 -28380968.81648 -22074950.91846  20745999.1644                   20745997.2894
  11325332.89847   8839332.16044  23475599.3984                   23475602.4224
  -9423717.40248  -7301362.43746  21474308.6564                   21474307.7154
 11  7 30  2  0  0.0000000  0  9G09G12G02G04G17G27G10G25G05
 -15779980.62146 -12129528.34843  24292728.2344                   24292730.1294
 -16986521.43448 -13195818.23046  21247600.1954                   21247597.8634
 -36128224.81248 -28061926.46546  20723951.7974                   20723948.2154
 -44467913.77048 -34605084.27045  22166589.7114                   22166588.6724
 -61282862.54747 -47679627.94544  23622558.2974                   23622557.1914
 -28892416.32846 -22330435.92242  24414640.0394                   24414642.2504
 -26887220.44548 -20910991.14546  21030249.7274                   21030248.0664
  12713167.05547   9920761.44544  23739696.5394                   23739698.9414
  -8024870.34848  -6211351.69546  21740500.6414                   21740499.5124
 11  7 30  2  0 30.0000000  0  9G09G12G02G04G17G27G10G25G05
 -15790554.38746 -12137767.70344  24290716.9304                   24290717.3444
 -17125225.67648 -13303899.44946  21221205.2814                   21221203.0354
 -36215431.39548 -28129879.63346  20707356.9064                   20707353.0084
 -44482412.38348 -34616381.89545  22163830.6564                   22163829.7854
 -61317309.87947 -47706470.02344  23616003.7734                   23616002.5314
 -28921273.43746 -22352922.08643  24409148.6954                   24409151.2384
 -26968255.10248 -20974135.02046  21014829.3524                   21014827.6764
  12525833.38747   9774787.22344  23704047.9774                   23704050.4494
  -8201070.98448  -6348650.83646  21706970.7504                   21706969.5204
 11  7 30  2  1  0.0000000  0  9G09G12G02G04G17G27G10G25G05
 -15801053.98047 -12145949.28944  24288718.4694                   24288720.3674
 -17263422.48848 -13411585.27046  21194907.5474                   21194905.4804
 -36302363.11748 -28197618.62946  20690814.7034                   20690810.7734
 -44496802.69548 -34627595.14545  22161092.2584                   22161091.5004
 -61351578.80547 -47733173.09444  23609482.1804                   23609481.3014
 -28950133.07446 -22375410.19943  24403656.1254                   24403658.8484
 -27048649.49248 -21036779.98046  20999530.9224                   20999529.1294
  12338761.85247   9629017.27744  23668449.6884                   23668451.8134
  -8376889.64848  -6485652.34846  21673513.5634                   21673512.2894
 11  7 30  2  1 30.0000000  0  9G09G12G02G04G17G27G10G25G05
 -15811485.71546 -12154077.99244  24286733.1174                   24286734.8954
 -17401113.68048 -13518877.10546  21168705.3674                   21168703.7974
 -36389024.98048 -28265147.35246  20674323.1254                   20674319.5904
 -44511089.94147 -34638728.09045  22158373.6724                   22158372.9184
 -61385672.03947 -47759739.23844  23602994.3284                   23602993.8404
 -28979001.00046 -22397904.75843  24398162.8524                   24398165.1884
 -27128407.22748 -21098928.85246  20984353.9064                   20984352.3444
  12151951.82447   9483451.08644  23632900.4384                   23632902.3834
  -8552327.08248  -6622356.79346  21640129.1644                   21640127.5864
 11  7 30  2  2  0.0000000  0  9G09G12G02G04G17G27G10G25G05
 -15821851.25446 -12162155.12543  24284761.5474                   24284763.3524
 -17538295.41448 -13625771.95746  21142600.6884                   21142598.4494
 -36475416.31648 -28332465.27046  20657883.6254                   20657879.7464
 -44525274.38347 -34649780.91445  22155674.6414                   22155673.0274
 -61419588.20747 -47786167.44144  23596540.2974                   23596538.6334
 -29007878.50046 -22420406.78543  24392668.3444                   24392670.8324
 -27207527.28148 -21160580.82846  20969297.5944                   20969295.8364
  11965407.34447   9338091.83244  23597402.0554                   23597403.8954
  -8727379.15648  -6758760.96146  21606817.5864                   21606815.7734
 11  7 30  2  2 30.0000000  0  9G09G12G02G04G17G27G10G25G05
 -15832154.61746 -12170183.80543  24282800.6484                   24282802.3484
 -17674966.64848 -13732269.01246  21116592.7114                   21116591.1374
 -36561538.85248 -28399573.73846  20641494.7894                   20641491.1294
 -44539358.27047 -34660755.39545  22152993.8054                   22152993.3914
 -61453327.26647 -47812457.60244  23590120.6804                   23590119.0634
 -29036769.00846 -22442918.89843  24387171.4454                   24387173.2544
 -27286010.65248 -21221736.68746  20954362.5784                   20954361.0554
  11779130.57447   9192941.13744  23561955.1884                   23561956.2664
  -8902043.78548  -6894863.22746  21573580.1254                   21573578.6994
 11  7 30  2  3  0.0000000  0  9G09G12G02G04G17G27G10G25G05
 -15842398.96946 -12178166.48043  24280850.7504                   24280852.5004
 -17811125.26648 -13838366.62146  21090683.1024                   21090680.9104
 -36647393.42648 -28466473.40246  20625156.9924                   20625153.4804
 -44553343.19147 -34671652.73845  22150333.1484                   22150331.9844
 -61486888.77747 -47838609.42244  23583734.1174                   23583732.4844
 -29065674.65645 -22465442.87943  24381670.4614                   24381672.8914
 -27363857.79748 -21282396.78546  20939548.3594                   20939547.2504
  11593124.43047   9048001.32844  23526558.6644                   23526560.9844
  -9076318.04348  -7030661.29346  21540416.4774                   21540414.7814
 11  7 30  2  3 30.0000000  0  9G09G12G02G04G17G27G10G25G05
 -15852587.89846 -12186105.99643  24278911.9694                   24278913.6884
 -17946769.85248 -13944063.69946  21064870.8444                   21064868.3204
 -36732981.79348 -28533165.61746  20608870.4144                   20608866.6954
 -44567231.27747 -34682474.63745  22147689.9304                   22147689.5234
 -61520272.62947 -47864622.81244  23577380.7974                   23577379.3364
 -29094598.57846 -22487981.07043  24376166.5784                   24376168.8014
 -27441069.43448 -21342561.69946  20924856.0864                   20924854.1954
  11407391.09047   8903274.10544  23491215.5784                   23491216.6524
  -9250199.72748  -7166153.46946  21507327.7814                   21507326.2854
 11  7 30  2  4  0.0000000  0  9G09G12G02G04G17G27G10G25G05
 -15862721.65246 -12194002.52743  24276983.3054                   24276984.6024
 -18081895.51248 -14049356.40646  21039157.3914                   21039154.9654
 -36818302.03548 -28599648.91846  20592634.5314                   20592630.7854
 -44581021.01647 -34693219.88345  22145066.1174                   22145064.7274
 -61553475.67647 -47890495.31244  23571062.5084                   23571061.5904
 -29123540.41845 -22510533.24242  24370657.9454                   24370661.8364
 -27517643.32847 -21402229.65646  20910284.0234                   20910282.5904
  11221936.36347   8758763.93444  23455924.2734                   23455925.7074
  -9423683.23848  -7301335.37946  21474315.1334                   21474313.7544
 11  7 30  2  4 30.0000000  0  9G09G12G02G04G17G27G10G25G05
 -15872807.68747 -12201861.86343  24275064.6414                   24275066.1884
 -18216505.17248 -14154247.04746  21013541.9614                   21013539.5784
 -36903359.55948 -28665927.50046  20576448.3444                   20576444.7114
 -44594718.58247 -34703893.32845  22142459.3364                   22142458.3914
 -61586501.93746 -47916230.03944  23564777.8524                   23564776.6954
 -29152507.38345 -22533104.93042  24365146.3594                   24365149.8594
 -27593584.32048 -21461404.45346  20895833.2344                   20895831.4774
  11036758.62947   8614469.61744  23420686.3674                   23420687.5354
  -9596770.23048  -7436208.31246  21441377.2584                   21441376.0704
 11  7 30  2  5  0.0000000  0  9G09G12G02G04G17G27G10G25G05
 -15882847.53146 -12209685.17643  24273154.2584                   24273155.7234
 -18350595.20748 -14258732.78946  20988024.9144                   20988022.6764
 -36988154.02748 -28732001.11746  20560312.8364                   20560309.2304
 -44608323.99247 -34714494.98045  22139870.9144                   22139869.4264
 -61619349.15647 -47941825.24244  23558526.7894                   23558526.3954
 -29181500.43745 -22555697.02342  24359629.1804                   24359633.3444
 -27668891.68448 -21520085.48846  20881502.5634                   20881501.0274
  10851862.03547   8470394.35544  23385502.0164                   23385503.0084
  -9769456.96148  -7570769.36746  21408516.4614                   21408514.8714
 11  7 30  2  5 30.0000000  0  9G09G12G02G04G17G27G10G25G05
 -15892846.71546 -12217476.82043  24271250.4774                   24271253.2854
 -18484166.09848 -14362813.99246  20962607.4534                   20962605.2974
 -37072688.50448 -28797872.12946  20544226.3204                   20544222.5274
 -44621841.14847 -34725027.84045  22137298.6174                   22137297.4734
 -61652019.07447 -47967282.32844  23552310.0634                   23552309.0944
 -29210524.15644 -22578313.02742  24354104.3054                   24354110.2584
 -27743568.07048 -21578274.87546  20867291.7734                   20867290.6804
  10667247.20347   8326538.63744  23350370.4924                   23350371.7734
  -9941742.37948  -7705017.69546  21375731.3674                   21375729.9024
 11  7 30  2  6  0.0000000  0  9G09G12G02G04G17G27G10G25G05
 -15902805.55946 -12225237.05543  24269355.4384                   24269358.1804
 -18617212.79348 -14466486.73046  20937289.6334                   20937287.4184
 -37156961.32048 -28863539.25046  20528189.7504                   20528185.9884
 -44635268.54747 -34735490.74645  22134743.0944                   22134742.4144
 -61684508.54746 -47992598.78144  23546127.5784                   23546127.2074
 -29239577.91045 -22600952.43042  24348576.6564                   24348581.5634
 -27817610.91048 -21635970.58246  20853202.0234                   20853200.4304
  10482919.87547   8182906.98844  23315294.4144                   23315295.6994
 -10113620.94948  -7838949.00446  21343024.4534                   21343022.9224
 11  7 30  2  6 30.0000000  0  9G09G12G02G04G17G27G10G25G05
 -15912728.46546 -12232969.28143  24267468.2974                   24267469.4844
 -18749735.04348 -14569750.80546  20912071.0784                   20912069.2584
 -37240974.90648 -28929004.36746  20512202.1724                   20512198.9304
 -44648609.23847 -34745886.10545  22132204.8284                   22132203.7664
 -61716818.33646 -48017775.24644  23539979.1094                   23539978.3524
 -29268665.96945 -22623618.45342  24343042.9614                   24343046.5514
 -27891022.46548 -21693174.38346  20839232.4384                   20839230.8634
  10298881.42647   8039500.43044  23280272.8284                   23280274.1764
 -10285091.54748  -7972562.41446  21310394.4384                   21310393.0394
 11  7 30  2  7  0.0000000  0  9G09G12G02G04G17G27G10G25G05
 -15922615.65246 -12240673.66443  24265586.6804                   24265589.4414
 -18881728.13348 -14672602.55146  20886954.1644                   20886952.1914
 -37324727.62948 -28994266.21946  20496264.4384                   20496261.2974
 -44661862.05547 -34756213.00845  22129682.6804                   22129681.6094
 -61748945.41846 -48042809.34444  23533866.0004                   23533865.1994
 -29297787.82845 -22646310.91842  24337500.5634                   24337504.3554
 -27963800.39548 -21749884.43746  20825383.0004                   20825381.7114
  10115137.34447   7896323.23044  23245307.1334                   23245309.0824
 -10456148.78948  -8105853.72346  21277842.9144                   21277841.9774
 11  7 30  2  7 30.0000000  0  9G09G12G02G04G17G27G10G25G05
 -15932477.26646 -12248358.12943  24263709.8754                   24263712.0594
 -19013196.96548 -14775045.78546  20861936.4304                   20861933.7304
 -37408227.50448 -29059331.05546  20480375.4924                   20480371.6954
 -44675035.44147 -34766477.99245  22127175.7814                   22127175.4774
 -61780896.42246 -48067706.21944  23527785.2114                   23527784.5664
 -29326953.13345 -22669037.18042  24331950.8984                   24331954.4024
 -28035952.34848 -21806106.73446  20811653.3834                   20811651.5164
   9931683.44147   7753372.18444  23210397.0704                   23210398.9064
 -10626797.07848  -8238826.37146  21245369.6644                   21245368.4884
 11  7 30  2  8  0.0000000  0  9G09G12G02G04G17G27G10G25G05
 -14366896.78946 -11028425.38343  24561630.0784                   24561633.0314
 -17568716.88748 -13649476.87546  21136811.5554                   21136809.9304
 -35916053.49248 -27896598.05146  20764326.7734                   20764322.7734
 -43112711.12147 -33549082.44945  22424476.3594                   22424474.7464
 -60237250.75046 -46864865.44544  23821532.1724                   23821531.0044
 -27780744.02745 -21464198.98042  24626184.3134                   24626187.8754
 -26532057.52048 -20634240.62146  21097834.7584                   21097832.9884
  11323947.84447   8838253.53944  23475336.1564                   23475338.0744
  -9221608.81248  -7143874.44546  21512768.2894                   21512766.6524
 11  7 30  2  8 30.0000000  0  8G09G12G02G04G17G10G25G05
 -14376712.91846 -11036074.41443  24559762.9064                   24559765.3794
 -17699129.83648 -13751097.34846  21111994.9694                   21111993.1024
 -35999047.30148 -27961268.54747  20748533.6484                   20748529.8444
 -43125726.51647 -33559224.32445  22421999.8914                   22421998.8524
 -60268844.89846 -46889484.27744  23815519.8444                   23815518.7114
 -26602956.44548 -20689486.53546  21084343.1414                   21084341.7734
  11141086.22347   8695763.96944  23440538.7274                   23440540.8634
  -9391427.35548  -7276200.54746  21480452.9064                   21480451.2194
 11  7 30  2  9  0.0000000  0  8G09G12G02G04G17G10G25G05
 -14386507.09846 -11043706.31243  24557898.3054                   24557901.0124
 -17829008.20348 -13852301.27046  21087279.7424                   21087277.8484
 -36081786.02048 -28025740.26246  20732788.6484                   20732785.1764
 -43138661.65247 -33569303.64845  22419537.9064                   22419536.8244
 -60300255.98746 -46913960.47244  23809541.6954                   23809541.2154
 -26673226.21548 -20744242.18446  21070971.4224                   21070969.7934
  10958528.57847   8553511.27344  23405799.7974                   23405800.4344
  -9560823.62548  -7408197.58646  21448217.9774                   21448216.1374
 11  7 30  2  9 30.0000000  0  8G09G12G02G04G17G10G25G05
 -14396281.53946 -11051322.81643  24556039.3524                   24556041.3284
 -17958348.86348 -13953086.19946  21062667.0314                   21062664.9344
 -36164269.50448 -28090013.10546  20717092.7664                   20717088.9804
 -43151516.87547 -33579320.72745  22417091.6414                   22417091.0164
 -60331482.66846 -46938292.97744  23803600.3204                   23803599.2034
 -26742866.31248 -20798507.18446  21057719.3984                   21057717.6134
  10776278.82447   8411498.48444  23371118.4144                   23371119.8754
  -9729793.83648  -7539862.65646  21416063.8284                   21416062.0554
 11  7 30  2 10  0.0000000  0  8G09G12G02G04G17G10G25G05
 -14406037.76646 -11058925.16843  24554183.0474                   24554184.7154
 -18087148.89848 -14053449.85946  21038157.4614                   21038155.2344
 -36246497.13348 -28154086.57046  20701445.6804                   20701441.2774
 -43164291.84047 -33589275.25445  22414661.0634                   22414659.5594
 -60362523.03546 -46962480.23844  23797693.5944                   23797692.0704
 -26811876.01248 -20852280.95746  21044587.1644                   21044585.4534
  10594341.41447   8269729.07445  23336497.2034                   23336498.7544
  -9898333.89148  -7671192.52046  21383991.4614                   21383989.6174
 11  7 30  2 10 30.0000000  0  8G09G12G02G04G17G10G25G05
 -14415779.44546 -11066516.19943  24552328.3914                   24552331.4064
 -18215407.54348 -14153391.65246  21013750.3054                   21013748.3324
 -36328470.56648 -28217961.97346  20685846.0864                   20685842.4224
 -43176989.05547 -33599169.21945  22412244.0634                   22412243.7814
 -60393377.34847 -46986522.56244  23791822.0004                   23791821.3284
 -26880256.92248 -20905564.77746  21031574.7274                   21031573.3914
  10412718.20747   8128204.53945  23301935.2584                   23301937.1094
 -10066441.72348  -7802185.60546  21352001.7194                   21352000.2664
 11  7 30  2 11  0.0000000  0  8G09G12G02G04G17G10G25G05
 -14425509.87546 -11074098.45342  24550477.1644                   24550480.1024
 -18343122.98848 -14252910.17246  20989447.3204                   20989444.7114
 -36410191.33248 -28281640.48846  20670295.3284                   20670291.5784
 -43189609.88747 -33609003.66045  22409842.9304                   22409842.1454
 -60424045.64147 -47010419.95344  23785986.1644                   23785985.3914
 -26948010.27748 -20958359.58246  21018681.3674                   21018680.1914
  10231411.86347   7986926.88745  23267433.7344                   23267435.8794
 -10234114.99248  -7932840.07046  21320094.3754                   21320092.9654
 11  7 30  2 11 30.0000000  0  8G09G12G02G04G17G10G25G05
 -14435234.33245 -11081676.02742  24548626.5314                   24548630.0744
 -18470296.06648 -14352006.07046  20965246.9924                   20965244.8634
 -36491663.07448 -28345124.95746  20654791.7814                   20654788.0554
 -43202158.48047 -33618781.80545  22407455.0474                   22407454.0044
 -60454529.73846 -47034173.80944  23780184.8594                   23780184.2424
 -27015139.19548 -21010667.81646  21005907.5554                   21005905.7544
  10050422.73447   7845896.41445  23232992.5864                   23232994.6024
 -10401353.73848  -8063155.93446  21288270.0864                   21288268.1374
 11  7 30  2 12  0.0000000  0  8G09G12G02G04G17G10G25G05
 -14444956.16446 -11089251.59842  24546775.8524                   24546780.1484
 -18596925.59048 -14450678.41846  20941149.5554                   20941148.0124
 -36572886.92648 -28408416.26646  20639335.0474                   20639331.4024
 -43214636.25047 -33628504.74245  22405080.6414                   22405079.4654
 -60484829.69147 -47057784.17644  23774419.8594                   23774418.3444
 -27081644.86748 -21062490.41446  20993252.2664                   20993250.1174
   9869753.26247   7705115.05945  23198612.2664                   23198614.6054
 -10568155.71948  -8193131.46146  21256528.8914                   21256526.6564
 11  7 30  2 12 30.0000000  0  8G09G12G02G04G17G10G25G05
 -14454679.91446 -11096828.61343  24544927.0864                   24544929.5984
 -18723010.81248 -14548926.63746  20917156.7504                   20917154.7274
 -36653865.18748 -28471516.20746  20623925.5784                   20623921.5704
 -43227046.21547 -33638174.87945  22402719.3134                   22402718.2544
 -60514946.39146 -47081251.74644  23768687.6564                   23768687.1844
 -27147529.64548 -21113829.18446  20980714.2274                   20980712.7304
   9689404.89847   7564583.89145  23164293.1414                   23164294.5554
 -10734519.55548  -8322765.57846  21224870.5784                   21224869.1174
 11  7 30  2 13  0.0000000  0  8G09G12G02G04G17G10G25G05
 -14464408.87546 -11104409.65642  24543075.2034                   24543077.6724
 -18848551.21148 -14646750.31246  20893267.0234                   20893265.2504
 -36734599.62548 -28534426.15246  20608562.3444                   20608558.6684
 -43239390.27347 -33647793.63745  22400370.3134                   22400368.9614
 -60544879.87547 -47104576.51244  23762992.1024                   23762991.0434
 -27212794.55548 -21164684.94946  20968294.5634                   20968293.4924
   9509379.98847   7424304.74244  23130035.0314                   23130037.0044
 -10900443.52748  -8452056.94146  21193296.4844                   21193294.4654
 11  7 30  2 13 30.0000000  0  8G09G12G02G04G17G10G25G05
 -14474146.93046 -11111997.83243  24541222.0704                   24541224.2424
 -18973545.98048 -14744148.81646  20869481.4924                   20869479.6604
 -36815091.64548 -28597147.20346  20593245.4224                   20593241.5944
 -43251670.30147 -33657362.50845  22398033.1414                   22398031.8954
 -60574630.53947 -47127758.84044  23757330.0234                   23757329.3674
 -27277441.69948 -21215059.34446  20955992.8284                   20955991.3244
   9329680.43047   7284279.15644  23095840.0704                   23095840.7274
 -11065925.68048  -8581004.03946  21161806.0864                   21161804.1564
 11  7 30  2 14  0.0000000  0  8G09G12G02G04G17G10G25G05
 -14483897.58246 -11119595.78943  24539366.1334                   24539369.0394
 -19097993.80148 -14841121.12946  20845799.8054                   20845797.6094
 -36895343.38748 -28659681.03546  20577973.7114                   20577969.9494
 -43263888.62147 -33666883.30544  22395708.4304                   22395707.3404
 -60604198.73446 -47150798.98444  23751703.5784                   23751703.2384
 -27341472.85548 -21264953.74246  20943808.0634                   20943806.7234
   9150308.43447   7144508.76645  23061706.4694                   23061707.5474
 -11230964.26648  -8709605.50446  21130399.9844                   21130398.1254
 11  7 30  2 14 30.0000000  0  8G09G12G02G04G17G10G25G05
 -14493661.96946 -11127204.48443  24537508.2734                   24537511.7704
 -19221891.66048 -14937664.90246  20822223.0314                   20822220.5044
 -36975353.89148 -28722026.87146  20562748.5314                   20562744.7384
 -43276044.71147 -33676355.58644  22393395.0004                   22393393.4454
 -60633582.32446 -47173695.29344  23746111.8984                   23746111.2114
 -27404887.27748 -21314367.57046  20931740.9224                   20931739.3164
   8971268.59847   7004997.21145  23027636.4924                   23027637.2584
 -11395554.90248  -8837857.89846  21099079.6094                   21099077.9734
 11  7 30  2 15  0.0000000  0  8G09G12G02G04G17G10G25G05
 -14503441.91846 -11134825.30943  24535647.6954                   24535649.5594
 -19345237.03948 -15033778.16446  20798750.9454                   20798749.0554
 -37055122.95748 -28784184.58246  20547568.7034                   20547565.1454
 -43288138.80547 -33685779.56244  22391093.8984                   22391092.7624
 -60662779.91446 -47196446.66044  23740556.4774                   23740555.2194
 -27467685.00848 -21363300.85946  20919791.3284                   20919789.1804
   8792564.52347   6865747.32445  22993629.6094                   22993631.3874
 -11559694.35248  -8965758.73846  21067844.7894                   21067843.3834
 11  7 30  2 15 30.0000000  0  8G09G12G02G04G17G10G25G05
 -14513244.28146 -11142463.59443  24533782.4224                   24533784.8244
 -19468031.74248 -15129462.33246  20775383.7974                   20775381.6254
 -37134655.44948 -28846157.94946  20532434.2034                   20532430.2814
 -43300175.92247 -33695159.13744  22388803.2974                   22388800.7854
 -60691794.89146 -47219055.72344  23735035.1414                   23735034.3874
 -27529870.34848 -21411756.94546  20907957.0864                   20907955.5474
   8614195.60247   6726758.58245  22959687.3984                   22959688.5744
 -11723383.37948  -9093308.58646  21036695.8984                   21036694.0904
 11  7 30  2 16  0.0000000  0  8G09G12G02G04G17G10G25G05
 -14523073.04746 -11150122.44943  24531911.8134                   24531914.7624
 -19590275.62948 -15224717.29346  20752121.4924                   20752119.2074
 -37213953.66848 -28907948.76246  20517344.4614                   20517340.6684
 -43312158.54347 -33704496.24644  22386522.6484                   22386521.4734
 -60720627.80946 -47241522.94544  23729547.6174                   23729547.4454
 -27591445.65648 -21459737.70346  20896239.9224                   20896238.6994
   8436163.34047   6588032.17245  22925809.4534                   22925810.2934
 -11886620.78948  -9220506.54346  21005632.8364                   21005631.3404
 11  7 30  2 16 30.0000000  0  8G09G12G02G04G17G10G25G05
 -12957508.37146  -9930201.93743  24829829.4534                   24829830.9694
 -18136540.36348 -14091936.55546  21028758.3914                   21028756.3794
 -35717593.33248 -27741953.68446  20802092.4774                   20802088.7304
 -41748665.05547 -32486189.62945  22684045.8284                   22684044.5204
 -59173854.99646 -46036245.40244  24023888.7504                   24023888.6484
 -26076987.52748 -20279640.45346  21184431.4304                   21184430.0434
   9833898.95747   7677176.83245  23191789.4844                   23191790.5434
 -10473976.53948  -8119744.75046  21274449.8444                   21274448.6254
 11  7 30  2 17  0.0000000  0  8G09G12G02G04G17G10G25G05
 -12967394.36346  -9937905.37543  24827948.3834                   24827949.9304
 -18257673.64548 -14186326.10246  21005707.6254                   21005705.2034
 -35796421.41048 -27803378.15646  20787091.6484                   20787088.3874
 -41760538.19547 -32495441.42245  22681786.2034                   22681785.1254
 -59202318.43746 -46058424.71144  24018472.5554                   24018471.9924
 -26137341.73448 -20326669.69146  21172946.5164                   21172945.2544
   9656552.69547   7538984.97345  23158041.2584                   23158043.0784
 -10636299.43448  -8246230.09046  21243560.8754                   21243559.2304
 11  7 30  2 17 30.0000000  0  8G09G12G02G04G17G10G25G05
 -12977315.95746  -9945636.56642  24826060.3284                   24826062.3674
 -18378252.49248 -14280283.62946  20982762.0944                   20982759.4774
 -35875018.49648 -27864622.63746  20772135.1484                   20772131.7624
 -41772361.39547 -32504654.35544  22679536.0784                   22679535.6884
 -59230599.56246 -46080461.97344  24013091.5084                   24013090.6644
 -26197090.02348 -20373226.79346  21161576.7274                   21161575.2814
   9479550.84847   7401061.50845  23124358.4844                   23124361.0124
 -10798163.84848  -8372358.16846  21212759.4144                   21212757.6804
 11  7 30  2 18  0.0000000  0  8G09G12G02G04G17G10G25G05
 -12987273.47345  -9953395.81642  24824165.7504                   24824168.5044
 -18498272.77348 -14373805.90246  20959923.0314                   20959920.5084
 -35953383.32048 -27925686.12146  20757222.9304                   20757218.9534
 -41784133.34847 -32513827.31244  22677296.0944                   22677295.5274
 -59258695.44146 -46102354.89144  24007744.7584                   24007743.6454
 -26256230.80148 -20419310.50046  21150322.6484                   21150321.3054
   9302898.66047   7263410.47745  23090743.5474                   23090745.4574
 -10959565.32048  -8498125.51646  21182045.6174                   21182043.6094
 11  7 30  2 18 30.0000000  0  8G09G12G02G04G17G10G25G05
 -12997272.34445  -9961187.12542  24822261.2894                   24822266.1764
 -18617735.37148 -14466893.62546  20937189.9384                   20937187.5314
 -36031519.53548 -27986571.48046  20742353.5704                   20742350.1914
 -41795857.53547 -32522963.07444  22675065.2424                   22675064.9534
 -59286607.97746 -46124104.91443  24002432.3914                   24002432.0234
 -26314767.75048 -20464923.69146  21139183.5234                   21139181.9264
   9126596.69547   7126032.35945  23057194.1644                   23057195.7664
 -11120503.42248  -8623531.79346  21151420.0164                   21151418.3524
 11  7 30  2 19  0.0000000  0  8G09G12G02G04G17G10G25G05
 -13007313.46945  -9969011.51242  24820352.1884                   24820356.0354
 -18736637.25048 -14559544.43046  20914563.8674                   20914560.9654
 -36109425.64148 -28047277.52346  20727528.8204                   20727525.1024
 -41807533.54347 -32532061.25044  22672842.9844                   22672842.5004
 -59314335.23846 -46145710.58644  23997155.9144                   23997155.0394
 -26372700.39548 -20510066.00046  21128160.0004                   21128157.9344
   8950649.26647   6988930.50045  23023712.5234                   23023714.1684
 -11280974.47748  -8748574.14146  21120883.4384                   21120881.7894
 11  7 30  2 19 30.0000000  0  8G09G12G02G04G17G10G25G05
 -13017399.13315                  24818433.086
 -18854976.48448 -14651756.80546  20892044.6884                   20892041.7384
 -36187102.25448 -28107804.73446  20712747.7814                   20712744.2194
 -41819162.04747 -32541122.45344  22670630.3754                   22670629.7664
 -59341876.17646 -46167171.07043  23991915.7584                   23991914.8674
 -26430029.35948 -20554737.91846  21117250.4144                   21117248.4104
   8775059.94147   6852107.68445  22990299.1804                   22990300.3244
 -11440975.07848  -8873249.89146  21090436.2894                   21090434.7194
 11  7 30  2 20  0.0000000  0  8G09G12G02G04G17G10G25G05
 -13027536.168 5                  24816503.523
 -18972755.27048 -14743532.46946  20869631.9614                   20869629.0234
 -36264554.37148 -28168157.03146  20698008.7504                   20698005.1564
 -41830748.18747 -32550150.59844  22668426.1724                   22668425.4024
 -59369234.41046 -46188489.21943  23986709.3754                   23986709.1334
 -26486759.74648 -20598943.39546  21106454.7504                   21106452.9304
   8599827.46147   6715562.92645  22956952.6174                   22956953.9104
 -11600506.98848  -8997560.44546  21060078.2664                   21060077.0274
 11  7 30  2 20 30.0000000  0  8G09G12G02G04G17G10G25G05
 -13037725.719 5                  24814563.398
 -19089971.05548 -14834869.43046  20847326.1334                   20847324.4454
 -36341781.68748 -28228334.15646  20683312.9774                   20683309.3054
 -41842291.42247 -32559145.33645  22666229.0084                   22666228.3754
 -59396408.17646 -46209663.55944  23981538.5234                   23981538.1254
 -26542891.40247 -20642682.33646  21095773.1644                   21095771.7424
   8424956.02047   6579299.48845  22923675.6884                   22923676.9024
 -11759566.60248  -9121502.96146  21029809.9694                   21029808.6804
 11  7 30  2 21  0.0000000  0  8G09G12G02G04G17G10G25G05
 -13047970.375 5                  24812614.859
 -19206622.26648 -14925766.46946  20825128.3524                   20825126.2704
 -36418784.45348 -28288336.29746  20668659.8524                   20668655.9064
 -41853793.00047 -32568107.60945  22664040.9614                   22664040.2704
 -59423396.60546 -46230693.53144  23976403.5164                   23976402.3014
 -26598425.33648 -20685955.53546  21085205.6564                   21085203.9414
   8250448.88347   6443319.92245  22890468.2734                   22890468.8054
 -11918150.78548  -9245075.02046  20999632.4694                   20999630.6334
 11  7 30  2 21 30.0000000  0  8G09G12G02G04G17G10G25G05
 -13058272.586 6                  24810655.250
 -19322707.29748 -15016222.32046  20803037.9454                   20803035.4924
 -36495563.50848 -28348164.12546  20654049.6724                   20654045.5824
 -41865253.47347 -32577037.86745  22661859.9144                   22661859.5274
 -59450199.21546 -46251578.66843  23971302.3674                   23971301.8054
 -26653362.48848 -20728763.68746  21074751.4064                   21074749.3984
   8076309.06647   6307626.58645  22857330.6254                   22857331.8794
 -12076257.03148  -9368274.66046  20969546.5084                   20969544.3954
 11  7 30  2 22  0.0000000  0  7G12G02G04G17G10G25G05
 -19438226.33648 -15106237.14546  20781055.5234                   20781053.6844
 -36572121.64548 -28407819.79746  20639480.8284                   20639477.0124
 -41876675.53547 -32585938.17245  22659686.4384                   22659685.8134
 -59476817.34446 -46272320.07044  23966238.2664                   23966236.3754
 -26707705.82848 -20771109.13346  21064409.9694                   21064408.2814
   7902537.59847   6172220.28945  22824263.2504                   22824264.5234
 -12233885.02348  -9491101.63346  20939550.4224                   20939548.3244
 11  7 30  2 22 30.0000000  0  7G12G02G04G17G10G25G05
 -19553177.10548 -15195809.16446  20759181.2814                   20759178.9614
 -36648458.41448 -28467302.98846  20624954.1174                   20624950.3674
 -41888059.60547 -32594808.89145  22657519.6564                   22657519.4964
 -59503249.63746 -46292916.66043  23961207.7504                   23961206.0984
 -26761455.95348 -20812992.32846  21054181.5004                   21054180.4224
   7729138.29748   6037104.00445  22791266.7344                   22791267.9924
 -12391031.15648  -9613553.13746  20909646.5314                   20909644.7774
 11  7 30  2 23  0.0000000  0  7G12G02G04G17G10G25G05
 -19667555.79348 -15284935.40246  20737415.6484                   20737413.1604
 -36724572.35948 -28526612.55146  20610470.2814                   20610466.6134
 -41899403.89147 -32603648.60944  22655361.1724                   22655360.1884
 -59529492.85546 -46313365.93044  23956213.7034                   23956212.7274
 -26814610.99648 -20854411.83246  21044066.2894                   21044064.8554
   7556116.62947   5902281.96545  22758341.5474                   22758342.9734
 -12547690.47748  -9735625.30546  20879835.1094                   20879833.4344
 11  7 30  2 23 30.0000000  0  7G12G02G04G17G10G25G05
 -19781359.09848 -15373613.29746  20715759.8134                   20715757.5664
 -36800461.78548 -28585747.16046  20596029.2814                   20596025.5864
 -41910707.24647 -32612456.44544  22653210.2814                   22653209.3204
 -59555544.44546 -46333665.88343  23951255.5864                   23951254.9024
 -26867170.38348 -20895367.18046  21034064.6884                   21034062.6804
   7383477.77747   5767758.22745  22725489.0864                   22725490.5434
 -12703858.25448  -9857314.45346  20850117.3914                   20850115.3554
 11  7 30  2 24  0.0000000  0  7G12G02G04G17G10G25G05
 -19894587.41848 -15461843.15246  20694212.7274                   20694210.4804
 -36876129.39548 -28644708.92246  20581630.2274                   20581625.9844
 -41921972.51647 -32621234.60244  22651065.8914                   22651065.7074
 -59581406.25446 -46353817.93743  23946334.8204                   23946333.6644
 -26919137.27748 -20935860.85546  21024175.6884                   21024174.4144
   7211222.61747   5633533.45745  22692710.6724                   22692711.7344
 -12859534.30148  -9978620.44146  20820493.3914                   20820491.3054
 11  7 30  2 24 30.0000000  0  7G12G02G04G17G10G25G05
 -20007240.87948 -15549625.06646  20672775.7664                   20672773.2034
 -36951578.21148 -28703500.19146  20567272.6094                   20567268.5984
 -41933202.42647 -32629985.19144  22648929.2974                   22648929.0004
 -59607079.05546 -46373822.71943  23941449.1414                   23941448.0664
 -26970514.84048 -20975895.31646  21014398.9614                   21014397.0594
   7039352.44948   5499608.69945  22660004.6414                   22660006.2544
 -13014717.86348 -10099542.66046  20790962.6484                   20790961.6254
 11  7 30  2 25  0.0000000  0  7G12G02G04G17G10G25G05
 -18543896.75848 -14409356.93046  20951240.8204                   20951238.8014
 -35451388.12948 -27534520.89846  20852749.3204                   20852745.3954
 -40368979.55147 -31411110.23444  22946591.8834                   22946590.4804
 -58057143.92646 -45166081.05143  24236392.4534                   24236391.0394
 -25445884.62947 -19787871.75046  21304526.5704                   21304525.0234
   8443293.57848   6593588.83245  22927165.5784                   22927167.2734
 -11593983.68748  -8992477.04346  21061319.6724                   21061317.9654
 11  7 30  2 25 30.0000000  0  7G12G02G04G17G10G25G05
 -18655401.40248 -14496243.66046  20930022.1804                   20930019.8484
 -35526405.01648 -27592975.59846  20838474.4924                   20838470.4694
 -40380145.74247 -31419811.14544  22944466.1334                   22944465.0124
 -58082442.22746 -45185794.04743  24231577.6254                   24231576.7704
 -25496091.16848 -19826993.71546  21294972.9614                   21294970.8914
   8272197.39847   6460267.19945  22894607.0394                   22894608.4184
 -11748179.56248  -9112629.64546  21031976.9144                   21031975.2814
 11  7 30  2 26  0.0000000  0  7G12G02G04G17G10G25G05
 -18766333.07048 -14582683.91446  20908912.5784                   20908910.1214
 -35601210.59448 -27651265.64546  20824239.2034                   20824234.8364
 -40391285.01247 -31428491.07844  22942347.0314                   22942345.3524
 -58107556.14146 -45205363.35543  24226799.2034                   24226797.7734
 -25545717.80947 -19865663.81646  21285528.7584                   21285527.4454
   8101489.10548   6327247.78945  22862122.3914                   22862123.3674
 -11901881.57848  -9232397.42246  21002728.4304                   21002726.9064
 11  7 30  2 26 30.0000000  0  7G12G02G04G17G10G25G05
 -18876689.18048 -14668675.68046  20887912.3984                   20887910.4024
 -35675804.21548 -27709390.53146  20810044.2894                   20810040.4064
 -40402396.54747 -31437149.42244  22940232.8364                   22940230.3674
 -58132483.48046 -45224787.31643  24222055.3984                   24222054.4414
 -25594764.58647 -19903882.07446  21276195.3594                   21276193.6134
   7931173.05947   6194534.02045  22829712.2664                   22829712.3714
 -12055085.82448  -9351777.32046  20973574.4924                   20973573.1054
 11  7 30  2 27  0.0000000  0  7G12G02G04G17G10G25G05
 -18986466.55948 -14754216.50046  20867022.5784                   20867020.7504
 -35750185.18448 -27767349.71146  20795890.0234                   20795885.8834
 -40413479.68047 -31445785.63344  22938124.0474                   22938122.0514
 -58157222.35546 -45244064.32043  24217348.1094                   24217346.4184
 -25643230.90647 -19941648.02346  21266972.4614                   21266970.6334
   7761253.82847   6062129.46945  22797377.2734                   22797378.0394
 -12207788.35248  -9470766.27746  20944516.2194                   20944514.7504
 11  7 30  2 27 30.0000000  0  7G12G02G04G17G10G25G05
 -19095669.65248 -14839309.81246  20846241.9304                   20846239.6054
 -35824359.35248 -27825147.74646  20781775.2894                   20781771.2854
 -40424540.45347 -31454404.41844  22936018.4304                   22936017.1524
 -58181777.50446 -45263198.26643  24212675.4064                   24212674.2464
 -25691123.60947 -19978967.01246  21257858.8594                   21257857.4574
   7591729.05947   5930032.28145  22765117.5784                   22765118.5594
 -12359992.16448  -9589366.61346  20915552.8444                   20915551.1294
 11  7 30  2 28  0.0000000  0  7G12G02G04G17G10G25G05
 -19204297.07848 -14923954.56246  20825570.9224                   20825568.9144
 -35898326.94148 -27882784.81646  20767699.4614                   20767695.8554
 -40435579.46147 -31463006.23844  22933917.7424                   22933916.3134
 -58206148.30946 -45282188.55543  24208038.1024                   24208036.4264
 -25738443.85247 -20015839.91445  21248854.2734                   21248851.9104
   7422601.82447   5798244.84445  22732933.7664                   22732934.2424
 -12511694.76648  -9707576.40646  20886684.7034                   20886682.7774
 11  7 30  2 28 30.0000000  0  7G12G02G04G17G10G25G05
 -19312345.08648 -15008147.80546  20805009.8134                   20805007.7584
 -35972086.82848 -27940260.03146  20753663.6334                   20753659.3244
 -40446595.33647 -31471590.06244  22931821.9694                   22931821.1454
 -58230332.10546 -45301033.05943  24203435.9064                   24203434.4614
 -25785190.85547 -20052266.14146  21239958.5004                   21239957.0864
   7253877.19147   5666771.13345  22700826.7814                   22700827.2774
 -12662891.64848  -9825392.12146  20857912.3834                   20857911.2154
 11  7 30  2 29  0.0000000  0  7G12G02G04G17G10G25G05
 -19419816.71148 -15091891.92646  20784558.9064                   20784556.6804
 -36045643.75848 -27997577.10546  20739665.9694                   20739661.7814
 -40457593.09047 -31480159.74644  22929729.0164                   22929728.4494
 -58254332.65647 -45319734.78144  24198868.8444                   24198867.3364
 -25831370.14847 -20088250.00046  21231171.1564                   21231169.4184
   7085553.94947   5535610.19945  22668795.9694                   22668796.3054
 -12813584.62548  -9942815.19146  20829237.2034                   20829235.1764
 11  7 30  2 29 30.0000000  0  7G12G02G04G17G10G25G05
 -19526709.93748 -15175185.34046  20764217.8444                   20764215.6604
 -36118997.09048 -28054735.53146  20725707.3914                   20725703.3874
 -40468572.27347 -31488714.94144  22927639.7584                   22927638.4024
 -58278148.50446 -45338292.61343  24194336.4384                   24194335.6374
 -25876982.53547 -20123792.11346  21222491.3674                   21222489.6454
   6917635.83247   5404764.94545  22636842.0004                   22636843.4844
 -12963770.52748 -10059843.13746  20800657.4774                   20800656.0164
 11  7 30  2 30  0.0000000  0  7G12G02G04G17G10G25G05
 -19633025.27348 -15258028.45346  20743986.5944                   20743984.3324
 -36192149.23848 -28111737.19546  20711787.2734                   20711782.5904
 -40479535.45747 -31497257.68444  22925554.0864                   22925552.1764
 -58301780.69947 -45356707.33243  24189840.1024                   24189838.2664
 -25922030.66047 -20158894.54346  21213918.9924                   21213916.7194
   6750124.34447   5274236.55945  22604965.7734                   22604966.9924
 -13113448.77748 -10176475.50446  20772174.6094                   20772172.9494
 11  7 30  2 30 30.0000000  0  7G12G02G04G17G10G25G05
 -19738760.43748 -15340419.48846  20723865.6884                   20723863.4964
 -36265099.88748 -28168581.84046  20697905.0784                   20697900.8954
 -40490482.39547 -31505787.77344  22923469.6334                   22923469.5984
 -58325227.58647 -45374977.65244  24185377.8914                   24185377.3674
 -25966514.89848 -20193557.57446  21205453.5234                   21205452.0984
   6583023.31347   5144028.00845  22573167.1564                   22573169.1334
 -13262616.00048 -10292709.66846  20743789.0784                   20743787.3914
 11  7 30  2 31  0.0000000  0  7G12G02G04G17G10G25G05
 -19843914.30148 -15422357.55546  20703855.8594                   20703853.3204
 -36337849.71148 -28225269.99246  20684061.1484                   20684057.0474
 -40501413.49647 -31514305.50844  22921390.3134                   22921389.2584
 -58348488.90247 -45393103.34843  24180951.1644                   24180950.0434
 -26010436.86348 -20227782.48846  21197095.8364                   21197093.4494
   6416335.66047   5014141.56345  22541447.7034                   22541448.9964
 -13411269.86348 -10408543.81646  20715500.9064                   20715499.4774
 11  7 30  2 31 30.0000000  0  8G29G12G02G04G17G10G25G05
  28106577.33256  21938060.87953  24556024.6564                   24556025.6884
 -19948487.74648 -15503843.34846  20683956.2734                   20683953.6484
 -36410401.18748 -28281803.59046  20670255.3524                   20670251.0164
 -40512331.34847 -31522812.94144  22919312.1334                   22919311.3984
 -58371566.12947 -45411085.60244  24176560.3054                   24176558.7774
 -26053800.02748 -20261571.96546  21188844.0634                   21188842.1994
   6250062.34847   4884577.96545  22509806.8834                   22509808.4264
 -13559410.10248 -10523977.73446  20687311.2344                   20687309.5594
 11  7 30  2 32  0.0000000  0  8G29G12G02G04G17G10G25G05
  27932932.58646  21802753.34043  24522981.4304                   24522981.6914
 -20052485.90648 -15584880.87546  20664166.3524                   20664163.8524
 -36482761.33248 -28338188.10246  20656485.3284                   20656481.2894
 -40523242.84447 -31531315.41444  22917236.1644                   22917235.3094
 -58394465.06246 -45428928.91444  24172202.4844                   24172201.6644
 -26096611.90248 -20294931.85546  21180697.2114                   21180695.5124
   6084199.97747   4755334.60545  22478244.2114                   22478246.1454
 -13707040.77748 -10639014.59446  20659217.8134                   20659215.9654
 11  7 30  2 32 30.0000000  0  8G29G12G02G04G17G10G25G05
  27759215.83246  21667389.68443  24489923.5944                   24489924.2114
 -20155906.02348 -15665467.97346  20644485.7344                   20644483.1684
 -36554929.30548 -28394422.87946  20642752.3134                   20642748.3594
 -40534147.53147 -31539812.55944  22915160.9614                   22915160.2814
 -58417183.79346 -45446631.82044  24167879.4454                   24167878.6884
 -26138872.74648 -20327862.39146  21172655.5004                   21172653.8364
   5918752.78547   4626414.76245  22446760.5554                   22446762.5904
 -13854158.40648 -10753651.68446  20631222.1804                   20631220.4734
 11  7 30  2 33  0.0000000  0  8G29G12G02G04G17G10G25G05
  27585426.58246  21531969.56643  24456852.1724                   24456853.3484
 -20258748.87548 -15745605.25046  20624915.5864                   20624913.3054
 -36626906.90248 -28450509.31246  20629055.6804                   20629051.3834
 -40545047.28547 -31548305.87544  22913086.7034                   22913086.5354
 -58439723.18047 -45464194.98044  24163590.4694                   24163589.2774
 -26180585.73048 -20360366.02346  21164717.5864                   21164715.7584
   5753722.39147   4497819.68445  22415356.3674                   22415358.6994
 -14000762.21948 -10867888.40246  20603324.3594                   20603322.8554
 11  7 30  2 33 30.0000000  0  8G29G12G02G04G17G10G25G05
  28986991.41446  22624098.07443  24723561.3834                   24723560.1724
 -18785590.61348 -14597689.71946  20905248.0864                   20905245.7934
 -35123272.94548 -27278846.47746  20915187.8284                   20915183.2194
 -38980522.91447 -30329195.98444  23210805.7664                   23210805.7194
 -56886662.62947 -44254017.89844  24459127.3054                   24459126.9884
 -24646331.19547 -19164843.00445  21456676.5084                   21456674.8204
   7164536.65647   5597155.51245  22683825.0554                   22683826.9224
 -12571425.30948  -9754119.34046  20875317.8134                   20875316.4694
 11  7 30  2 34  0.0000000  0  8G29G12G02G04G17G10G25G05
  28813058.54346  22488566.02743  24690463.3204                   24690463.2734
 -18887277.53148 -14676926.26646  20885897.3444                   20885895.5004
 -35194873.93448 -27334639.43046  20901562.1564                   20901557.7074
 -38991416.78147 -30337684.72744  23208733.0394                   23208732.2624
 -56908844.35946 -44271302.41843  24454906.5634                   24454906.3874
 -24686954.31247 -19196497.38346  21448946.2664                   21448944.6024
   7000346.33647   5469215.03945  22652581.0234                   22652582.8914
 -12716996.55948  -9867551.44946  20847616.6334                   20847615.0744
 11  7 30  2 34 30.0000000  0  8G29G12G02G04G17G10G25G05
  28639057.65646  22352980.99243  24657351.3914                   24657353.1644
 -18988382.89848 -14755709.66846  20866657.7974                   20866655.1254
 -35266285.04748 -27390284.44546  20887972.9224                   20887968.8954
 -39002306.10947 -30346169.92644  23206661.0634                   23206659.6214
 -56930844.03546 -44288445.03544  24450720.4614                   24450719.2894
 -24727032.64847 -19227727.25846  21441319.0474                   21441318.0204
   6836582.71547   5341607.07445  22621417.6484                   22621419.7934
 -12862046.04348  -9980576.99646  20820014.8754                   20820013.0704
 11  7 30  2 35  0.0000000  0  8G29G12G02G04G17G10G25G05
  28464992.74646  22217346.05143  24624227.8984                   24624229.4414
 -19088902.69548 -14834036.77346  20847529.6414                   20847527.1884
 -35337503.91848 -27445779.65646  20874420.4774                   20874416.6884
 -39013188.58247 -30354649.78544  23204590.0164                   23204589.0634
 -56952658.45347 -44305443.28144  24446569.4694                   24446567.8674
 -24766564.82047 -19258531.55545  21433796.5394                   21433795.1254
   6673251.54747   5214336.07845  22590336.6334                   22590338.0784
 -13006569.03948 -10093192.28946  20792513.0474                   20792511.2384
 11  7 30  2 35 30.0000000  0  8G29G12G02G04G17G10G25G05
  28290865.27746  22081662.34843  24591091.8524                   24591094.5824
 -19188835.48848 -14911906.47346  20828513.1484                   20828510.4024
 -35408530.79348 -27501125.25846  20860904.5394                   20860900.4924
 -39024064.32047 -30363124.41044  23202520.3134                   23202520.3984
 -56974286.52747 -44322296.35544  24442453.9144                   24442452.5704
 -24805551.98847 -19288911.16845  21426377.4144                   21426375.9884
   6510356.10547   5087404.58645  22559339.2974                   22559339.8014
 -13150562.96948 -10205395.31646  20765111.5634                   20765110.1484
 11  7 30  2 36  0.0000000  0  8G29G12G02G04G17G10G25G05
  28116670.88346  21945926.47343  24557944.4384                   24557947.4264
 -19288185.75048 -14989322.25846  20809607.1094                   20809604.9964
 -35479371.50448 -27556325.80546  20847423.9064                   20847419.8404
 -39034939.46547 -30371598.55544  23200450.4064                   23200450.6564
 -56995733.51646 -44339008.31244  24438372.7584                   24438371.2194
 -24844001.48447 -19318871.80545  21419060.9774                   21419059.3444
   6347893.86747   4960810.65645  22528423.2894                   22528424.3674
 -13294030.74248 -10317188.35946  20737810.9694                   20737808.9064
 11  7 30  2 36 30.0000000  0  8G29G12G02G04G17G10G25G05
  27942410.43447  21810139.08243  24524784.2894                   24524787.1134
 -19386953.18448 -15066283.88746  20790812.1954                   20790809.6214
 -35550026.71548 -27611381.79746  20833978.9454                   20833974.8984
 -39045814.78947 -30380072.83644  23198381.0164                   23198380.5234
 -57016999.35946 -44355579.11743  24434325.5634                   24434325.0864
 -24881915.27747 -19348415.02345  21411846.1334                   21411844.5204
   6185867.14847   4834556.10945  22497590.7424                   22497591.9534
 -13436970.77048 -10428570.16846  20710610.2194                   20710608.7584
 11  7 30  2 37  0.0000000  0  8G29G12G02G04G17G10G25G05
  27768087.93846  21674303.37543  24491611.8204                   24491615.0084
 -19485133.34448 -15142787.89846  20772129.0784                   20772126.9184
 -35620494.46148 -27666291.71546  20820569.1884                   20820564.9304
 -39056687.62147 -30388545.18744  23196312.2424                   23196310.9924
 -57038080.40646 -44372005.88343  24430314.2664                   24430313.2584
 -24919291.60247 -19377539.41446  21404733.7114                   21404732.4924
   6024282.04747   4708645.68845  22466841.9924                   22466843.8674
 -13579378.20348 -10539536.97346  20683510.8364                   20683508.9384
 11  7 30  2 37 30.0000000  0  8G29G12G02G04G17G10G25G05
  27593705.26646  21538420.73443  24458427.1254                   24458429.7854
 -19582725.37548 -15218833.63746  20753558.3444                   20753556.0044
 -35690774.48048 -27721055.36346  20807195.2814                   20807191.4064
 -39067558.04347 -30397015.64843  23194242.5394                   23194242.6454
 -57058975.73846 -44388287.97343  24426337.6094                   24426337.0274
 -24956131.76248 -19406246.03546  21397723.0084                   21397721.8444
   5863141.79347   4583081.88345  22436178.1804                   22436179.3634
 -13721250.25048 -10650086.58646  20656513.5634                   20656511.8714
 11  7 30  2 38  0.0000000  0  8G29G12G02G04G17G10G25G05
  27419262.32046  21402491.18444  24425231.9384                   24425234.7464
 -19679729.29347 -15294421.09446  20735098.9064                   20735096.3754
 -35760868.21148 -27775673.85246  20793856.7344                   20793852.7584
 -39078427.65247 -30405485.48044  23192175.4774                   23192174.9884
 -57079685.77746 -44404425.61343  24422396.6954                   24422396.2194
 -24992438.42647 -19434536.94145  21390814.4844                   21390813.1484
   5702448.30548   4457866.21145  22405599.0864                   22405600.7074
 -13862585.95348 -10760218.27046  20629618.2114                   20629616.0354
 11  7 30  2 38 30.0000000  0  8G29G12G02G04G17G10G25G05
  27244757.34046  21266513.31643  24392024.9924                   24392026.0824
 -19776147.35248 -15369552.04346  20716751.1174                   20716748.7544
 -35830779.39148 -27830150.08246  20780553.1884                   20780548.9734
 -39089300.07447 -30413957.50444  23190106.3674                   23190104.9654
 -57100213.27046 -44420421.06543  24418490.8984                   24418489.8484
 -25028216.26647 -19462415.78145  21384005.9384                   21384004.6884
   5542201.16048   4332998.35545  22375104.8204                   22375106.4774
 -14003386.44148 -10869932.90246  20602824.6954                   20602823.0004
 11  7 30  2 39  0.0000000  0  8G29G12G02G04G17G10G25G05
  27070190.45346  21130487.22743  24358805.3834                   24358806.0234
 -19871979.35948 -15444226.32846  20698514.7814                   20698512.5634
 -35900509.45748 -27884485.19546  20767283.9844                   20767280.0164
 -39100176.50847 -30422432.64144  23188036.2814                   23188036.1724
 -57120558.86346 -44436274.82843  24414618.6094                   24414618.0354
 -25063467.80147 -19489884.50845  21377297.8834                   21377295.7274
   5382402.29748   4208479.79345  22344696.7584                   22344698.3954
 -14143650.53948 -10979229.57046  20576132.8754                   20576131.4064
 11  7 30  2 39 30.0000000  0  8G29G12G02G04G17G10G25G05
  26895564.28946  20994414.94943  24325575.0164                   24325574.5044
 -19967223.47748 -15518442.51646  20680390.7734                   20680388.4384
 -35970057.13748 -27938678.18046  20754049.4774                   20754045.8364
 -39111055.83647 -30430910.03944  23185966.5474                   23185965.7234
 -57140720.84246 -44451985.42443  24410782.8134                   24410780.9574
 -25098193.22748 -19516943.28145  21370690.0004                   21370688.4064
   5223056.01248   4084313.91046  22314374.1804                   22314374.9734
 -14283375.11748 -11088105.84446  20549544.6484                   20549542.8364
 11  7 30  2 40  0.0000000  0  8G29G12G02G04G17G10G25G05
  26720878.29746  20858296.06343  24292334.3134                   24292333.6684
 -20061880.96148 -15592201.60246  20662377.8914                   20662375.7814
 -36039425.01248 -27992731.06246  20740849.0394                   20740845.2424
 -39121940.48447 -30439391.59044  23183894.8444                   23183894.4224
 -57160700.40646 -44467553.94543  24406981.0944                   24406978.9654
 -25132396.34048 -19543595.04745  21364181.2894                   21364179.3954
   5064163.07448   3960501.25845  22284137.7274                   22284138.6214
 -14422560.01648 -11196561.57846  20523058.4694                   20523056.4654
 11  7 30  2 40 30.0000000  0  7G29G12G02G04G10G25G05
  26546136.70747  20722133.84843  24259082.2504                   24259081.2274
 -20155947.66848 -15665500.32846  20644477.6024                   20644475.6524
 -36108610.46548 -28046641.79346  20727683.4304                   20727680.0394
 -39132827.71946 -30447875.16844  23181823.0314                   23181822.3914
 -25166075.80148 -19569838.77745  21357772.5084                   21357770.6374
   4905729.48848   3837046.56645  22253988.3134                   22253989.6414
 -14561200.06648 -11304592.76246  20496676.2504                   20496674.3284
 11  7 30  2 41  0.0000000  0  7G29G12G02G04G10G25G05
  26371338.17646  20585927.24643  24225819.1644                   24225817.4144
 -20249425.58648 -15738340.25846  20626689.0864                   20626687.0784
 -36177616.58248 -28100412.79346  20714552.4774                   20714548.6134
 -39143720.53946 -30456363.11344  23179750.0234                   23179750.0984
 -25199236.12548 -19595677.99645  21351462.0864                   21351460.8164
   4747755.42248   3713949.93845  22223927.1024                   22223927.9384
 -14699296.07848 -11412200.01246  20470397.0234                   20470395.6564
 11  7 30  2 41 30.0000000  0  7G29G12G02G04G10G25G05
  26196483.60546  20449676.98043  24192544.1024                   24192544.2154
 -20342314.39848 -15810721.14846  20609013.0634                   20609010.7974
 -36246443.97348 -28154044.52346  20701454.9454                   20701451.1884
 -39154619.79347 -30464856.05544  23177677.0004                   23177675.1254
 -25231878.73848 -19621113.80145  21345250.3594                   21345248.5554
   4590243.36747   3591213.28945  22193952.9774                   22193954.1334
 -14836846.19548 -11519381.89146  20444222.5234                   20444220.7584
 11  7 30  2 42  0.0000000  0  7G29G12G02G04G10G25G05
  27597003.73046  21540991.43443  24459054.3364                   24459054.8634
 -18859186.37148 -14655036.96546  20891242.9774                   20891240.5744
 -34739667.20348 -26979932.73846  20988184.8524                   20988181.3444
 -37590101.75447 -29245751.09444  23475394.1954                   23475393.5664
 -23688581.15248 -18418544.26245  21638930.3674                   21638928.7234
   6008624.92648   4696445.72745  22463862.3984                   22463863.1724
 -13398420.55948 -10398530.72346  20717945.6804                   20717943.7384
 11  7 30  2 42 30.0000000  0  7G29G12G02G04G10G25G05
  27422048.31647  21404662.59844  24425762.9454                   24425762.5984
 -18950887.27748 -14726492.21546  20873793.1884                   20873790.7114
 -34808130.84448 -27033281.03146  20975156.4304                   20975152.7774
 -37601007.21947 -29254248.89144  23473319.7424                   23473318.4494
 -23720187.15248 -18443172.32045  21632915.5474                   21632914.1214
   5852052.59047   4574441.33245  22434067.7504                   22434068.3244
 -13534866.21147 -10504851.99246  20691980.6094                   20691979.1334
 11  7 30  2 43  0.0000000  0  7G29G12G02G04G10G25G05
  27247041.67246  21268293.85243  24392459.0004                   24392459.7384
 -19041995.58248 -14797485.70746  20856455.8914                   20856453.3524
 -34876415.94948 -27086490.18446  20962162.4774                   20962158.4304
 -37611918.58247 -29262751.25444  23471243.2814                   23471242.0204
 -23751279.75048 -18467400.30945  21626998.4454                   21626996.9574
   5695951.67247   4452804.28945  22404362.4614                   22404364.0474
 -13670759.37948 -10610742.74246  20666121.3984                   20666119.3524
 11  7 30  2 43 30.0000000  0  7G29G12G02G04G10G25G05
  27071983.49646  21131884.91843  24359146.5394                   24359146.4804
 -19132512.91448 -14868018.68746  20839230.8594                   20839228.5354
 -34944524.78548 -27139562.00046  20949201.8674                   20949197.7034
 -37622838.35246 -29271260.16044  23469165.0864                   23469164.3834
 -23781862.88348 -18491231.34445  21621179.1724                   21621177.7974
   5540322.99648   4331535.23045  22374747.7424                   22374748.8204
 -13806100.13748 -10716203.05146  20640366.7974                   20640364.8914
 11  7 30  2 44  0.0000000  0  7G29G12G02G04G10G25G05
  26896872.73046  20995435.01643  24325824.5784                   24325824.4224
 -19222440.84448 -14938092.40246  20822118.2814                   20822115.7854
 -35012459.72748 -27192498.31246  20936274.2584                   20936270.3484
 -37633768.98046 -29279777.57443  23467084.9924                   23467084.1764
 -23811940.34048 -18514668.33645  21615455.9144                   21615454.4804
   5385167.07847   4210634.53945  22345222.2584                   22345223.3284
 -13940889.06248 -10821233.34846  20614717.4304                   20614715.2734
 11  7 30  2 44 30.0000000  0  7G29G12G02G04G10G25G05
  26721710.28946  20858944.89843  24292491.4144                   24292491.7304
 -19311779.42648 -15007706.88746  20805117.2734                   20805115.1134
 -35080222.14548 -27245300.18046  20923379.6414                   20923375.6524
 -37644711.50446 -29288304.21943  23465001.7274                   23465001.9534
 -23841514.58647 -18537713.19945  21609827.5314                   21609825.6724
   5230486.03548   4090103.89145  22315787.6804                   22315788.2114
 -14075124.54748 -10925832.40246  20589172.8364                   20589171.4264
 11  7 30  2 45  0.0000000  0  7G29G12G02G04G10G25G05
  26546498.21146  20722416.03944  24259149.8134                   24259150.3134
 -19400527.04748 -15076860.87146  20788229.1254                   20788226.5784
 -35147811.40648 -27297967.12946  20910517.6094                   20910514.0394
 -37655665.11746 -29296839.51243  23462918.4454                   23462917.1764
 -23870586.52748 -18560366.66445  21604295.4384                   21604293.8054
   5076283.39148   3969946.02345  22286443.7504                   22286444.5904
 -14208804.25848 -11029998.37546  20563734.6564                   20563733.0084
 11  7 30  2 45 30.0000000  0  7G29G12G02G04G10G25G05
  26371232.54746  20585845.44544  24225798.2584                   24225800.0474
 -19488688.68048 -15145558.25446  20771452.8524                   20771450.5274
 -35215232.98048 -27350503.41046  20897687.5164                   20897683.7734
 -37666635.32046 -29305387.71943  23460830.0944                   23460829.5784
 -23899162.99647 -18582634.04345  21598857.8134                   21598856.0314
   4922556.79348   3850159.09046  22257190.2114                   22257191.8674
 -14341931.57048 -11133733.91846  20538401.3444                   20538399.1804
 11  7 30  2 46  0.0000000  0  7G29G12G02G04G10G25G05
  26195914.96146  20449234.36344  24192436.7734                   24192437.6484
 -19576263.71948 -15213798.54346  20754787.9774                   20754785.5864
 -35282487.11348 -27402909.23446  20884889.2894                   20884886.0124
 -37677622.20046 -29313948.94843  23458739.6254                   23458738.5554
 -23927245.91847 -18604516.84045  21593513.5004                   21593511.9454
   4769309.04748   3730745.30946  22228028.1644                   22228029.6764
 -14474504.44948 -11237037.43447  20513173.8054                   20513171.7384
 11  7 30  2 46 30.0000000  0  7G29G12G02G04G10G25G05
  26020547.50447  20312584.44144  24159065.4924                   24159066.1564
 -19663250.07448 -15281580.12146  20738235.2504                   20738232.8674
 -35349573.09048 -27455184.01646  20872123.4384                   20872119.9534
 -37688625.17646 -29322522.67643  23456645.6484                   23456644.5164
 -23954836.32847 -18626015.86345  21588263.4844                   21588262.4224
   4616543.71948   3611707.42645  22198958.1174                   22198959.5164
 -14606520.31648 -11339906.91447  20488051.7664                   20488049.8014
 11  7 30  2 47  0.0000000  0  7G29G12G02G04G10G25G05
  25845130.64846  20175896.06644  24125684.6564                   24125685.2504
 -19749649.41848 -15348904.29346  20721793.6094                   20721791.5274
 -35416492.88748 -27507329.31246  20859389.0944                   20859385.2774
 -37699645.68747 -29331110.11343  23454549.1254                   23454548.4104
 -23981937.55147 -18647133.70745  21583106.6724                   21583104.2974
   4464261.91447   3493046.31346  22169979.4924                   22169980.3324
 -14737979.07848 -11442342.28946  20463035.8444                   20463033.9414
 11  7 30  2 47 30.0000000  0  7G29G12G02G04G10G25G05
  25669666.48447  20039170.77044  24092294.8524                   24092295.5554
 -19835460.73848 -15415770.25446  20705464.3984                   20705461.8984
 -35483246.30948 -27559344.95346  20846686.6954                   20846682.6334
 -37710683.62947 -29339711.10944  23452448.4064                   23452447.7504
 -24008551.03948 -18667871.48845  21578041.9144                   21578040.1954
   4312466.91448   3374764.52746  22141094.0164                   22141095.0124
 -14868878.60548 -11544341.88346  20438126.4064                   20438124.3204
 11  7 30  2 48  0.0000000  0  7G29G12G02G04G10G25G05
  25494154.12147  19902407.97343  24058895.2974                   24058895.9654
 -19920684.94148 -15482178.72346  20689246.8754                   20689244.5944
 -35549835.21948 -27611232.41846  20834015.4774                   20834011.0514
 -37721740.58247 -29348326.91843  23450344.6804                   23450343.5904
 -24034679.81248 -18688231.56645  21573069.8524                   21573068.3164
   4161159.78148   3256862.90246  22112301.3524                   22112302.5204
 -14999218.37948 -11645905.32446  20413323.9614                   20413321.9104
 11  7 30  2 48 30.0000000  0  7G29G12G02G04G10G25G05
  25318593.94946  19765607.87943  24025487.6024                   24025487.1884
 -20005323.02348 -15548130.48846  20673140.7114                   20673138.6684
 -35616260.95747 -27662992.72746  20821374.7424                   20821370.5784
 -37732818.05547 -29356958.68744  23448236.4534                   23448235.3794
 -24060327.09848 -18708216.46545  21568189.4924                   21568187.5984
   4010341.91448   3139342.53146  22083601.4224                   22083602.7234
 -15128998.45348 -11747032.63747  20388627.4224                   20388625.7114
 11  7 30  2 49  0.0000000  0  7G29G12G02G04G10G25G05
  25142987.41046  19628771.69544  23992069.7504                   23992070.2664
 -20089374.75448 -15613625.33646  20657146.2814                   20657144.1914
 -35682524.21948 -27714626.43746  20808765.0704                   20808760.9104
 -37743916.34047 -29365606.70344  23446125.4774                   23446123.6804
 -24085495.11748 -18727827.90645  21563400.1954                   21563398.1214
   3860015.81348   3022205.34046  22054995.6644                   22054996.0634
 -15258217.15648 -11847722.50847  20364037.7194                   20364036.0004
 11  7 30  2 49 30.0000000  0  7G29G12G02G04G10G25G05
  24967336.48846  19491900.92243  23958644.6254                   23958645.0204
 -20172839.09448 -15678662.48846  20641263.4144                   20641260.7774
 -35748624.69948 -27766133.30146  20796186.6564                   20796181.9924
 -37755035.00047 -29374270.60244  23444008.7664                   23444007.9534
 -24110185.07848 -18747066.84045  21558701.6564                   21558699.5004
   3710184.51248   2905453.72346  22026483.6804                   22026484.1764
 -15386872.31648 -11947973.25846  20339555.4844                   20339553.7934
 11  7 30  2 50  0.0000000  0  7G29G12G02G04G10G25G05
  26367066.57446  20582599.78943  24225004.6884                   24225004.4844
 -18680295.02348 -14515641.13746  20925284.7504                   20925282.7854
 -34239142.25048 -26589913.19546  21083431.6954                   21083427.5234
 -36190755.85947 -28155351.78944  23741682.0004                   23741680.1954
 -22558979.97347 -17538335.58645  21853886.1644                   21853884.3054
   5136273.69148   4016692.07446  22297859.4064                   22297860.1884
 -13939540.41448 -10820182.14547  20614973.6644                   20614971.7624
 11  7 30  2 50 30.0000000  0  7G29G12G02G04G10G25G05
  26191324.35546  20445657.88744  24191561.5634                   24191562.9224
 -18762590.89848 -14579767.78946  20909624.7894                   20909622.3554
 -34304924.82048 -26641172.33646  21070913.6724                   21070909.3674
 -36201922.90647 -28164053.38744  23739556.5864                   23739555.6254
 -22582726.42248 -17556839.30545  21849367.6024                   21849365.5234
   4987432.92248   3900712.27346  22269535.5164                   22269536.1804
 -14067071.19548 -10919556.75447  20590705.1484                   20590703.5354
 11  7 30  2 51  0.0000000  0  7G29G12G02G04G10G25G05
  26015540.16846  20308683.26244  24158111.8444                   24158112.2464
 -18844300.92648 -14643437.94546  20894075.9144                   20894073.8594
 -34370547.77048 -26692307.10246  21058426.2974                   21058421.8324
 -36213112.86346 -28172772.84444  23737427.1414                   23737426.3444
 -22606003.00447 -17574976.90245  21844938.1954                   21844936.0004
   4839092.50848   3785122.37146  22241307.4694                   22241307.6174
 -14194035.98848 -11018490.33646  20566544.7584                   20566542.6024
 11  7 30  2 51 30.0000000  0  7G29G12G02G04G10G25G05
  25839713.99646  20171675.93243  24124652.2664                   24124653.5004
 -18925425.92248 -14706652.21946  20878638.1024                   20878635.8714
 -34436012.36348 -26743318.46146  21045968.4774                   21045964.2774
 -36224327.21147 -28181511.30943  23735292.4844                   23735292.1254
 -22628812.73448 -17592750.71945  21840597.3594                   21840595.2704
   4691253.75848   3669923.36346  22213174.5234                   22213174.8634
 -14320434.76248 -11116982.86346  20542491.8204                   20542490.0984
 11  7 30  2 52  0.0000000  0  7G29G12G02G04G10G25G05
  25663847.09846  20034636.86344  24091186.8134                   24091187.0084
 -19005966.08648 -14769410.79346  20863311.7274                   20863309.7734
 -34501319.27348 -26794206.94946  21033541.2664                   21033536.8484
 -36235566.41046 -28190269.15643  23733153.5944                   23733153.8364
 -22651157.64847 -17610162.35245  21836345.6174                   21836343.7424
   4543918.74248   3555116.89846  22185137.2194                   22185138.1844
 -14446266.27348 -11215033.35947  20518547.2114                   20518545.1914
 11  7 30  2 52 30.0000000  0  7G29G12G02G04G10G25G05
  25487940.59447  19897566.89844  24057712.7894                   24057713.0394
 -19085921.95348 -14831714.07846  20848097.1094                   20848094.3834
 -34566469.30148 -26844973.19146  21021143.3834                   21021139.0314
 -36246830.93046 -28199046.71143  23731010.0944                   23731010.4224
 -22673040.53147 -17627213.94145  21832181.0554                   21832179.5634
   4397089.67248   3440704.66046  22157197.1254                   22157197.1844
 -14571529.44148 -11312641.00847  20494710.3444                   20494708.3324
 11  7 30  2 53  0.0000000  0  7G29G12G02G04G10G25G05
  25311995.73446  19760467.04744  24024231.2814                   24024231.3134
 -19165293.09048 -14893561.71546  20832992.7974                   20832990.8244
 -34631462.90648 -26895617.55546  21008775.0314                   21008771.2274
 -36258121.18446 -28207844.35943  23728861.5474                   23728861.3984
 -22694463.58247 -17643907.22345  21828104.5474                   21828102.8244
   4250768.77348   3326688.39846  22129352.6564                   22129353.5514
 -14696223.21148 -11409804.96547  20470981.6414                   20470979.8244
 11  7 30  2 53 30.0000000  0  7G29G12G02G04G10G25G05
  25136010.68047  19623335.86743  23990742.4384                   23990742.7814
 -19244082.84048 -14954956.32446  20817999.7274                   20817997.6994
 -34696303.68448 -26946142.83246  20996436.5164                   20996432.4774
 -36269440.69546 -28216664.78544  23726707.5084                   23726707.4454
 -22715432.28147 -17660246.47345  21824114.5164                   21824112.3054
   4104954.98848   3213067.30946  22101605.0944                   22101606.0704
 -14820349.57448 -11506526.78147  20447361.0704                   20447359.4264
 11  7 30  2 54  0.0000000  0  7G29G12G02G04G10G25G05
  24959986.14547  19486173.96544  23957245.5084                   23957245.5004
 -19322292.28148 -15015898.74646  20803116.9924                   20803114.6604
 -34760992.58248 -26996549.76246  20984126.8054                   20984122.3634
 -36280790.16846 -28225508.54743  23724547.6804                   23724547.6844
 -22735949.09847 -17676233.60545  21820210.4064                   21820208.5474
   3959650.18448   3099842.79346  22073954.8134                   22073955.8874
 -14943907.74648 -11602805.84847  20423848.4144                   20423846.7584
 11  7 30  2 54 30.0000000  0  7G29G12G02G04G10G25G05
  24783924.51247  19348983.16844  23923742.5004                   23923741.5864
 -19399920.55148 -15076388.31246  20788344.8754                   20788342.0204
 -34825529.06248 -27046837.91446  20971846.1094                   20971841.4344
 -36292168.74646 -28234374.98443  23722381.8834                   23722382.2934
 -22756015.25447 -17691869.57445  21816391.0474                   21816390.1724
   3814857.42248   2987017.30146  22046401.9614                   22046402.7344
 -15066895.65648 -11698640.55147  20400444.8754                   20400442.7774
 11  7 30  2 55  0.0000000  0  7G29G12G02G04G10G25G05
  24607827.66046  19211764.91443  23890232.4144                   23890231.7504
 -19476966.83248 -15136424.37946  20773683.3204                   20773681.5664
 -34889913.09048 -27097007.27346  20959593.8524                   20959589.9184
 -36303576.33646 -28243264.08243  23720212.2664                   23720211.2034
 -22775632.48047 -17707155.73445  21812658.1174                   21812656.9104
   3670579.52348   2874592.99246  22018946.8524                   22018947.1804
 -15189312.12148 -11794029.97747  20377150.0554                   20377148.0354
 11  7 30  2 55 30.0000000  0  7G29G12G02G04G10G25G05
  24431696.58646  19074520.00443  23856715.3284                   23856714.5514
 -19553432.05948 -15196007.67646  20759132.1644                   20759130.5274
 -34954145.53548 -27147058.52746  20947370.7344                   20947366.7854
 -36315013.62947 -28252176.27343  23718035.4774                   23718035.2624
 -22794803.55947 -17722094.23045  21809010.2274                   21809008.6914
   3526818.18448   2762571.19146  21991589.5004                   21991590.4224
 -15311156.07048 -11888973.28947  20353963.6804                   20353961.7304
 11  7 30  2 56  0.0000000  0  7G29G12G02G04G10G25G05
  24255532.00447  18937248.98044  23823192.5314                   23823191.8714
 -19629316.69148 -15255138.56246  20744692.0784                   20744689.9304
 -35018227.66448 -27196992.64146  20935176.5864                   20935172.4104
 -36326481.62547 -28261112.37543  23715854.1414                   23715852.7774
 -22813531.70747 -17736687.59045  21805446.3984                   21805445.2704
   3383574.86348   2650953.04746  21964331.7734                   21964332.4654
 -15432426.90248 -11983470.01647  20330886.5084                   20330884.7584
 11  7 30  2 56 30.0000000  0  7G29G12G02G04G10G25G05
  24079331.96546  18799950.30544  23789662.4694                   23789661.7664
 -19704624.47348 -15313819.95746  20730361.1254                   20730359.3484
 -35082163.24648 -27246812.57446  20923010.0944                   20923006.3094
 -36337983.67647 -28270075.04743  23713665.3204                   23713664.1884
 -22831821.98447 -17750939.75845  21801966.0474                   21801964.2894
   3240848.60548   2539737.79346  21937171.4534                   21937172.5204
 -15553127.03948 -12077522.04347  20307918.3834                   20307916.2584
 11  7 30  2 57  0.0000000  0  7G29G12G02G04G10G25G05
  23903100.15246  18662626.95744  23756126.9694                   23756127.4964
 -19779353.90648 -15372050.68746  20716141.0314                   20716138.8364
 -35145950.35548 -27296516.80946  20910871.8284                   20910867.7974
 -36349518.11347 -28279062.94943  23711470.0394                   23711469.1564
 -22849674.71147 -17764850.96945  21798568.2974                   21798567.1564
   3098643.34848   2428928.52346  21910110.4454                   21910111.4654
 -15673253.82848 -12171127.30547  20285059.1094                   20285056.8054
 11  7 30  2 57 30.0000000  0  7G29G12G02G04G10G25G05
  23726837.94147  18525279.87944  23722586.0314                   23722584.7734
 -19853504.88748 -15429830.66846  20702030.5944                   20702028.1994
 -35209589.00448 -27346105.35246  20898761.6024                   20898757.6374
 -36361084.82047 -28288075.97743  23709269.1094                   23709267.6484
 -22867091.86347 -17778422.77745  21795254.6724                   21795252.7464
   2956961.54348   2318527.15646  21883149.4694                   21883150.9454
 -15792805.60248 -12264284.50047  20262308.9534                   20262306.8834
 11  7 30  2 58  0.0000000  0  7G29G12G02G04G10G25G05
  23550546.42646  18387909.96944  23689038.2194                   23689038.9064
 -19927077.25048 -15487159.78146  20688030.2974                   20688027.9264
 -35273080.25448 -27395579.04346  20886679.7344                   20886675.5354
 -36372684.42647 -28297114.64844  23707062.3444                   23707060.5594
 -22884076.43447 -17791657.50445  21792022.1094                   21792020.8874
   2815804.88748   2208534.99246  21856288.2424                   21856289.4924
 -15911781.86348 -12356993.25447  20239668.5314                   20239666.1174
 11  7 30  2 58 30.0000000  0  7G29G12G02G04G10G25G05
  24949651.43847  19478121.75444  23955279.0234                   23955278.6374
 -18424651.88348 -14316438.71546  20973932.3754                   20973929.9804
 -33761004.01648 -26217337.80946  21174418.3444                   21174414.4104
 -34808897.97347 -27078579.74643  24004640.4844                   24004639.2034
 -21325211.52047 -16576957.57445  22088664.7114                   22088663.5514
   4250598.69548   3326556.16446  22129320.1954                   22129321.0784
 -14454759.08648 -11221650.80547  20516930.6174                   20516928.6174
 11  7 30  2 59  0.0000000  0  7G29G12G02G04G10G25G05
  24773301.68847  19340706.44944  23921720.1334                   23921720.1954
 -18497074.28148 -14372871.76246  20960150.7734                   20960148.4574
 -33824205.46948 -26266585.68446  21162391.5394                   21162387.6054
 -34820567.40647 -27087672.86344  24002419.6024                   24002419.1484
 -21341341.39547 -16589526.33245  22085595.3284                   22085593.5394
   4110494.80548   3217384.33246  22102659.1564                   22102661.3834
 -14572585.22348 -11313463.34847  20494508.8674                   20494506.7034
 11  7 30  2 59 30.0000000  0  7G29G12G02G04G10G25G05
  24596923.52347  19203269.00044  23888156.1484                   23888156.1914
 -18568923.39848 -14428858.09046  20946478.3134                   20946476.2584
 -33887264.02348 -26315722.20346  21150391.8054                   21150388.0044
 -34832273.77347 -27096794.69943  24000191.2344                   24000190.9454
 -21357048.59047 -16601765.69945  22082605.5234                   22082604.5164
   3970918.82448   3108623.85546  22076099.0784                   22076100.7234
 -14689836.70748 -11404828.11747  20472196.8984                   20472194.3284
 11  7 30  3  0  0.0000000  0  7G29G12G02G04G10G25G05
  24420520.22747  19065811.95744  23854587.8984                   23854587.6414
 -18640197.82448 -14484396.59846  20932915.2194                   20932912.7584
 -33950178.52348 -26364746.48446  21138419.5084                   21138415.5004
 -34844015.29746 -27105944.00843  23997958.1174                   23997957.1724
 -21372334.04747 -16613676.43445  22079697.4614                   22079695.7894
   3831874.42648   3000277.61746  22049639.7664                   22049641.3554
 -14806510.66048 -11495742.86747  20449994.4384                   20449992.2934
 11  7 30  3  0 30.0000000  0  7G29G12G02G04G10G25G05
  24244094.38747  18928337.34044  23821016.0634                   23821014.8674
 -18710896.62548 -14539486.57446  20919461.8204                   20919459.0784
 -34012947.96148 -26413657.72746  21126474.9454                   21126471.1844
 -34855791.05946 -27115119.91043  23995717.0864                   23995716.1254
 -21387198.88347 -16625259.43045  22076868.5634                   22076867.1644
   3693364.93848   2892348.17646  22023282.4144                   22023283.8984
 -14922605.37948 -11586206.25847  20427902.3834                   20427900.2974
 11  7 30  3  1  0.0000000  0  7G29G12G02G04G10G25G05
  24067644.00847  18790843.59844  23787438.6094                   23787437.6254
 -18781023.82848 -14594131.15646  20906116.9694                   20906114.8014
 -34075576.26648 -26462458.98846  21114557.0554                   21114553.4104
 -34867604.50446 -27124325.26243  23993468.6804                   23993468.1994
 -21401648.86347 -16636519.16445  22074119.1724                   22074117.1334
   3555388.78948   2784834.30946  21997026.2034                   21997026.9344
 -15038123.41848 -11676220.29347  20405919.6484                   20405917.9804
 11  7 30  3  1 30.0000000  0  7G29G12G02G04G10G25G05
  23891169.74247  18653331.28144  23753856.5234                   23753855.4144
 -18850580.57848 -14648331.23046  20892881.0004                   20892878.4224
 -34138064.25848 -26511150.91446  21102666.4774                   21102662.0124
 -34879456.53946 -27133560.64543  23991213.7194                   23991212.7304
 -21415686.62147 -16647457.66445  22071447.4844                   22071445.3954
   3417947.34448   2677737.09846  21970872.0314                   21970873.3244
 -15153064.34448 -11765784.62147  20384047.4304                   20384045.3204
 11  7 30  3  2  0.0000000  0  7G29G12G02G04G10G25G05
  23714672.29747  18515800.89544  23720270.0474                   23720268.8834
 -18919568.73048 -14702088.24246  20879752.7194                   20879750.1564
 -34200413.41448 -26559734.67246  21090801.3914                   21090797.6294
 -34891348.50046 -27142827.14143  23988950.3524                   23988950.0124
 -21429315.95747 -16658077.92645  22068853.9774                   22068852.2774
   3281041.37548   2571057.15246  21944819.5944                   21944820.6174
 -15267428.62548 -11854899.62947  20362284.4144                   20362282.4494
 11  7 30  3  2 30.0000000  0  7G29G12G02G04G10G25G05
  23538153.49247  18378253.82844  23686679.2734                   23686678.2274
 -18987988.19148 -14755402.11746  20866732.8914                   20866730.8284
 -34262623.75848 -26608210.25846  21078963.2344                   21078959.1994
 -34903279.89846 -27152124.32043  23986680.3204                   23986679.7934
 -21442538.69947 -16668381.37545  22066337.6414                   22066336.4344
   3144673.32448   2464796.35546  21918869.3914                   21918870.2544
 -15381215.10948 -11943564.39847  20340631.9224                   20340629.6994
 11  7 30  3  3  0.0000000  0  7G29G12G02G04G10G25G05
  23361614.55147  18240691.08244  23653085.4534                   23653084.5164
 -19055839.71948 -14808273.43746  20853821.3204                   20853819.0864
 -34324695.84848 -26656578.11346  21067151.0314                   21067146.9654
 -34915251.19146 -27161452.59443  23984402.2734                   23984401.6054
 -21455357.51647 -16678370.05145  22063898.7114                   22063896.3954
   3008844.66848   2358955.85946  21893022.1414                   21893022.6564
 -15494423.55548 -12031778.74647  20319088.7504                   20319086.7734
 11  7 30  3  3 30.0000000  0  7G29G12G02G04G10G25G05
  23185058.92247  18103115.31644  23619487.7734                   23619487.0984
 -19123122.66848 -14860701.71946  20841017.6564                   20841015.4064
 -34386628.41848 -26704837.25846  21055365.7114                   21055361.8954
 -34927260.85247 -27170810.84043  23982116.5704                   23982115.9774
 -21467773.39147 -16688044.77345  22061535.3364                   22061534.1024
   2873558.93448   2253538.42646  21867278.1174                   21867278.9614
 -15607051.63348 -12119540.86747  20297656.3834                   20297654.3094
 11  7 30  3  4  0.0000000  0  7G29G12G02G04G10G25G05
  23008484.49647  17965524.87544  23585886.9304                   23585886.7774
 -19189840.24648 -14912689.44946  20828321.8054                   20828319.5784
 -34448425.37548 -26752990.71946  21043606.1094                   21043602.7504
 -34939312.22746 -27180201.49643  23979823.2734                   23979822.9494
 -21479791.75847 -16697409.75045  22059248.7114                   22059247.1564
   2738814.70348   2148542.92646  21841636.9454                   21841637.8484
 -15719101.96548 -12206852.78947  20276333.7194                   20276331.5274
 11  7 30  3  4 30.0000000  0  7G29G12G02G04G10G25G05
  22831889.49647  17827918.41444  23552281.7974                   23552281.8204
 -19255997.16448 -14964240.30546  20815732.6564                   20815730.6214
 -34510090.34048 -26801041.34446  21031871.7344                   21031867.3554
 -34951408.89146 -27189627.47743  23977521.8444                   23977521.1684
 -21491418.50847 -16706469.55145  22057036.4224                   22057034.8054
   2604610.40248   2043968.18046  21816099.1644                   21816099.7774
 -15830576.97348 -12293716.41047  20255121.1174                   20255119.0514
 11  7 30  3  5  0.0000000  0  7G29G12G02G04G10G25G05
  22655279.26647  17690300.10544  23518673.9224                   23518674.0204
 -19321590.16048 -15015351.73446  20803250.7504                   20803248.2464
 -34571619.41847 -26848986.07446  21020162.9774                   21020159.1994
 -34963547.10946 -27199085.90243  23975212.1884                   23975210.6644
 -21502651.91447 -16715222.84845  22054899.0864                   22054897.0784
   2470951.57448   1939818.47346  21790664.4534                   21790665.4924
 -15941472.34448 -12380128.37147  20234018.5394                   20234016.4574
 11  7 30  3  5 30.0000000  0  7G29G12G02G04G10G25G05
  22478655.33247  17552671.09044  23485063.1024                   23485063.8324
 -19386619.69548 -15066024.11346  20790876.0784                   20790874.0664
 -34633012.93448 -26896825.17646  21008480.0234                   21008476.3244
 -34975727.02346 -27208576.75043  23972893.8364                   23972893.8164
 -21513494.75047 -16723671.82045  22052835.5084                   22052834.1484
   2337840.02748   1836095.20346  21765333.8364                   21765335.0164
 -16051787.99648 -12466088.59447  20213025.7424                   20213023.5944
 11  7 30  3  6  0.0000000  0  7G29G12G02G04G10G25G05
  22302015.89147  17415030.05544  23451450.3054                   23451450.1334
 -19451090.12148 -15116260.81246  20778607.8284                   20778605.6024
 -34694275.11348 -26944561.93446  20996822.2664                   20996818.1804
 -34987952.06246 -27218102.78143  23970567.8594                   23970567.1914
 -21523952.57447 -16731820.78945  22050845.2814                   22050844.4654
   2205274.07848   1732797.08246  21740107.8364                   21740108.7704
 -16161526.32848 -12551598.96547  20192143.5004                   20192141.2154
 11  7 30  3  6 30.0000000  0  7G29G12G02G04G10G25G05
  22125366.52347  17277381.27344  23417835.4224                   23417834.0354
 -19514997.96148 -15166059.14546  20766446.4304                   20766444.3834
 -34755402.15648 -26992193.37946  20985189.8984                   20985186.2974
 -35000218.34046 -27227660.91843  23968233.0944                   23968233.0554
 -21534024.02047 -16739668.67645  22048928.6094                   22048927.4454
   2073259.46148   1629928.56346  21714986.0944                   21714986.7584
 -16270683.10948 -12636656.17247  20171371.3524                   20171369.3554
 11  7 30  3  7  0.0000000  0  7G29G12G02G04G10G25G05
  23524132.57047  18367328.91844  23684010.9064                   23684010.0944
 -18002924.37948 -13987819.99646  21054184.2424                   21054182.3674
 -33240974.58647 -25812119.94146  21273376.5784                   21273372.1644
 -33437107.60546 -26009652.59843  24265683.4614                   24265683.1644
 -19968293.35547 -15519618.82445  22346877.7504                   22346875.8984
   3517220.01248   2755092.64546  21989762.8674                   21989763.2464
 -14803836.12148 -11493658.50447  20450503.2274                   20450501.4184
 11  7 30  3  7 30.0000000  0  7G29G12G02G04G10G25G05
  23347464.90647  18229665.89544  23650392.8674                   23650391.5664
 -18065713.03948 -14036746.23846  21042236.0394                   21042233.8324
 -33301835.11747 -25859543.73046  21261794.8674                   21261791.0044
 -33449459.46546 -26019277.43043  24263332.5634                   24263331.9104
 -19977602.44947 -15526872.64545  22345106.4144                   22345104.3914
   3386309.99248   2653084.86346  21964850.9774                   21964852.0634
 -14911831.28948 -11577810.55547  20429952.2584                   20429950.1724
 11  7 30  3  8  0.0000000  0  7G29G12G02G04G10G25G05
  23170788.73847  18091996.25444  23616771.4534                   23616771.7234
 -18127945.07848 -14085238.75046  21030393.9694                   21030391.4924
 -33362564.69148 -25906865.46546  21250238.3594                   21250234.8754
 -33461856.17646 -26028937.24243  24260973.9694                   24260973.6024
 -19986535.92647 -15533833.79745  22343406.4224                   22343404.4734
   3255952.85248   2551507.89146  21940045.1724                   21940045.7854
 -15019246.80148 -11661510.93047  20409511.8364                   20409509.8554
 11  7 30  3  8 30.0000000  0  7G29G12G02G04G10G25G05
  22994105.96547  17954321.42244  23583150.0554                   23583148.8054
 -18189620.66448 -14133297.64846  21018657.7664                   21018654.9304
 -33423163.10947 -25954085.00846  21238706.9064                   21238703.3014
 -33474297.36346 -26038631.66443  24258605.9384                   24258606.4224
 -19995095.53147 -15540503.60945  22341777.4064                   22341775.5664
   3126150.79348   2450363.44946  21915345.0314                   21915345.2734
 -15126081.82048 -11744758.98047  20389181.7814                   20389179.6334
 11  7 30  3  9  0.0000000  0  7G29G12G02G04G10G25G05
  22817416.02747  17816641.00444  23549526.2814                   23549526.7194
 -18250743.28548 -14180925.67246  21007025.9924                   21007023.8674
 -33483633.12148 -26001204.48846  21227199.5784                   21227195.8984
 -33486785.22746 -26048362.47743  24256231.0234                   24256229.8984
 -20003286.14847 -15546885.91445  22340218.0314                   22340217.0474
   2996903.05948   2349650.94146  21890749.3524                   21890750.1094
 -15232338.06648 -11827556.03147  20368961.7814                   20368959.6604
 11  7 30  3  9 30.0000000  0  7G29G12G02G04G10G25G05
  22640720.90247  17678956.54345  23515902.5554                   23515902.8834
 -18311313.78148 -14228123.47746  20995500.1414                   20995497.3954
 -33543974.67248 -26048223.87146  21215716.7584                   21215713.5084
 -33499319.45746 -26058129.43043  24253845.2274                   24253844.3014
 -20011109.88747 -15552982.36344  22338729.7814                   22338728.1604
   2868211.54348   2249371.84446  21866260.6644                   21866261.2504
 -15338015.21948 -11909901.84447  20348851.9064                   20348849.9964
 11  7 30  3 10  0.0000000  0  7G29G12G02G04G10G25G05
  22464022.72347  17541269.71544  23482277.7734                   23482278.4574
 -18371332.21548 -14274891.08246  20984079.1644                   20984076.4344
 -33604187.43747 -26095142.91046  21204259.0004                   21204254.9384
 -33511899.65246 -26067932.22343  24251451.2584                   24251451.0084
 -20018568.49247 -15558794.25845  22337310.2814                   22337308.9064
   2740078.36348   2149527.82846  21841877.7344                   21841878.4574
 -15443112.33648 -11991795.68047  20328852.6024                   20328850.4804
 11  7 30  3 10 30.0000000  0  7G29G12G02G04G10G25G05
  22287320.14846  17403579.44544  23448652.6884                   23448652.8594
 -18430802.40248 -14321231.50046  20972762.0164                   20972759.6254
 -33664274.52747 -26141964.01246  21192824.9694                   21192820.9264
 -33524528.64546 -26077773.03943  24249047.5084                   24249047.3874
 -20025667.73047 -15564326.12945  22335959.7664                   22335957.6454
   2612502.05948   2050117.73446  21817600.6024                   21817601.3714
 -15547631.84448 -12073239.43447  20308963.4304                   20308961.3134
 11  7 30  3 11  0.0000000  0  7G29G12G02G04G10G25G05
  22110615.72747  17265887.75844  23415027.4534                   23415027.1914
 -18489724.51248 -14367144.84846  20961549.4144                   20961547.1644
 -33724235.64848 -26188686.95346  21181414.6884                   21181411.0434
 -33537205.74646 -26087651.30543  24246635.5634                   24246635.0274
 -20032409.03147 -15569579.10545  22334676.7814                   22334674.9414
   2485485.03148   1951143.43046  21793430.1804                   21793431.2974
 -15651572.59848 -12154232.20747  20289184.0084                   20289181.8404
 11  7 30  3 11 30.0000000  0  7G29G12G02G04G10G25G05
  21933912.73447  17128197.17644  23381401.6484                   23381401.5234
 -18548097.46948 -14412630.27346  20950441.4064                   20950439.6414
 -33784068.93748 -26235310.27746  21170028.9224                   21170024.8014
 -33549928.98046 -26097565.55943  24244214.2034                   24244213.7074
 -20038793.28547 -15574553.85545  22333461.9694                   22333460.1054
   2359030.57448   1852607.50846  21769366.5234                   21769367.2734
 -15754933.11348 -12234772.84047  20269515.0704                   20269513.2624
 11  7 30  3 12  0.0000000  0  7G29G12G02G04G10G25G05
  21757210.24247  16990506.99244  23347775.9614                   23347776.2584
 -18605925.76248 -14457691.28546  20939437.1174                   20939435.1134
 -33843777.31648 -26281836.28946  21158666.8134                   21158662.7074
 -33562701.10946 -26107517.87543  24241784.1174                   24241783.3014
 -20044825.43447 -15579254.23844  22332314.1334                   22332311.8754
   2233137.39548   1754508.93046  21745409.5314                   21745410.4654
 -15857715.29348 -12314862.83247  20249956.5394                   20249954.5864
 11  7 30  3 12 30.0000000  0  7G29G12G02G04G10G25G05
  21580508.18847  16852817.13744  23314151.0394                   23314150.0554
 -18663211.96148 -14502329.88746  20928535.8594                   20928533.5634
 -33903363.21548 -26328266.85246  21147327.6884                   21147323.9964
 -33575524.09447 -26117509.84443  24239344.5864                   24239343.0354
 -20050510.00447 -15583683.78544  22331232.6484                   22331230.7974
   2107805.11748   1656847.43846  21721559.4694                   21721560.9304
 -15959920.85548 -12394503.51247  20230507.3674                   20230505.1294
 11  7 30  3 13  0.0000000  0  7G29G12G02G04G10G25G05
  21403809.00047  16715129.55144  23280526.1174                   23280524.9184
 -18719956.08248 -14546546.09046  20917737.8054                   20917735.8284
 -33962825.71148 -26374601.25846  21136012.6094                   21136008.3874
 -33588396.84846 -26127540.59843  24236893.3914                   24236893.4384
 -20055848.39547 -15587843.57445  22330216.6724                   22330214.9224
   1983036.18048   1559624.90246  21697817.2974                   21697818.0784
 -16061548.85548 -12473694.14547  20211168.3524                   20211166.0314
 11  7 30  3 13 30.0000000  0  7G29G12G02G04G10G25G05
  21227117.42647  16577447.84444  23246903.0004                   23246901.5864
 -18776156.19148 -14590338.39546  20907043.7734                   20907040.9924
 -34022162.35948 -26420837.60546  21124721.2344                   21124717.3484
 -33601316.50446 -26137607.88743  24234436.5234                   24234435.1884
 -20060840.48047 -15591733.52044  22329266.7664                   22329264.7424
   1858834.71548   1462844.55546  21674182.6644                   21674183.4104
 -16162596.26648 -12552432.36347  20191939.3364                   20191937.3794
 11  7 30  3 14  0.0000000  0  8G29G12G02G04G26G10G25G05
  21050430.20347  16439769.55544  23213280.2424                   23213278.3404
 -18831818.50848 -14633711.63746  20896451.2344                   20896448.7384
 -34081378.16048 -26466979.78546  21113452.9454                   21113448.8914
 -33614287.94146 -26147715.53543  24231967.8754                   24231966.5434
  35960344.00856  28059076.52352  24683404.0004                   24683405.1564
 -20065493.28147 -15595359.07044  22328380.9224                   22328379.2464
   1735197.20748   1366503.65646  21650655.0634                   21650656.0044
 -16263067.79348 -12630721.84047  20172820.4144                   20172818.1254
 11  7 30  3 14 30.0000000  0  8G29G12G02G04G26G10G25G05
  20873750.12947  16302096.80144  23179658.8594                   23179657.2774
 -18886943.09848 -14676665.87146  20885961.5864                   20885959.0864
 -34140472.22348 -26513027.09846  21102207.5864                   21102203.6174
 -33627310.16446 -26157862.76643  24229489.3834                   24229489.0904
  35772395.91046  27912623.56343  24647639.6564                   24647639.8324
 -20069808.42247 -15598721.52344  22327559.7584                   22327557.7624
   1612125.99648   1270604.01646  21627235.0314                   21627236.1914
 -16362962.39548 -12708561.77747  20153810.9694                   20153808.9104
 11  7 30  3 15  0.0000000  0  8G29G12G02G04G26G10G25G05
  20697072.09446  16164425.68444  23146037.9304                   23146037.0124
 -18941538.11748 -14719207.45746  20875572.5314                   20875570.1294
 -34199451.71948 -26558985.14546  21090984.3524                   21090980.3484
 -33640389.66046 -26168054.63743  24227000.4224                   24227000.1564
  35584322.86746  27766073.27343  24611849.9454                   24611849.8484
 -20073795.06647 -15601827.99244  22326800.9774                   22326799.2734
   1489615.62948   1175141.42246  21603922.2734                   21603923.0124
 -16462286.45348 -12785957.12147  20134910.1024                   20134907.9694
 11  7 30  3 15 30.0000000  0  8G29G12G02G04G26G10G25G05
  22095822.81646  17254361.37944  23412211.4774                   23412210.6294
 -17420183.07848 -13533736.00846  21165076.6094                   21165074.3834
 -32682895.32048 -25377252.86746  21379575.1884                   21379571.2734
 -32078106.73446 -24950691.35243  24524292.5704                   24524292.4844
  36971553.77746  28847032.53543  24875831.4534                   24875830.8634
 -18502036.40647 -14377080.96144  22625896.7664                   22625894.7274
   2943090.89848   2307719.57446  21880509.6724                   21880510.2424
 -14985617.77748 -11635306.18447  20415910.9454                   20415908.4614
 11  7 30  3 16  0.0000000  0  8G29G12G02G04G26G10G25G05
  21919156.26246  17116699.18844  23378593.1804                   23378592.2664
 -17473720.12548 -13575453.20346  21154888.7114                   21154887.0084
 -32741643.76648 -25423030.87146  21368395.5394                   21368392.1454
 -32091298.83646 -24960970.94143  24521782.6644                   24521782.2854
  36783242.80946  28700296.81643  24839996.4454                   24839996.8444
 -18505371.68047 -14379679.88744  22625262.1334                   22625260.2234
   2821708.34048   2213135.77746  21857411.2344                   21857411.7814
 -15083799.33648 -11711811.27747  20397227.5004                   20397225.7704
 11  7 30  3 16 30.0000000  0  8G29G12G02G04G26G10G25G05
  21742500.69547  16979045.55945  23344975.8444                   23344975.5704
 -17526727.78548 -13616757.88746  21144801.8674                   21144799.7034
 -32800274.61748 -25468717.25046  21357238.6334                   21357235.0234
 -32104544.58647 -24971292.39143  24519262.6484                   24519261.9734
  36594820.21146  28553474.09843  24804141.6174                   24804140.9534
 -18508382.53147 -14382026.02044  22624688.9924                   22624687.8484
   2700893.94548   2118994.71546  21834420.6414                   21834421.5394
 -15181407.11748 -11787869.26247  20378653.2974                   20378651.5704
 11  7 30  3 17  0.0000000  0  8G29G12G02G04G26G10G25G05
  21565857.37547  16841401.50845  23311362.7114                   23311361.8204
 -17579207.07448 -13657650.85946  21134815.5084                   21134812.9534
 -32858788.48448 -25514312.47346  21346103.7734                   21346100.3164
 -32117844.23846 -24981655.75843  24516731.2584                   24516731.0084
  36406289.06646  28406566.82443  24768265.0704                   24768264.7504
 -18511071.73047 -14384121.50844  22624177.3594                   22624175.6214
   2580648.75848   2025297.19546  21811538.7034                   21811539.7304
 -15278441.00848 -11863480.07047  20360188.4534                   20360186.5394
 11  7 30  3 17 30.0000000  0  8G29G12G02G04G26G10G25G05
  21389230.11747  16703769.95345  23277751.2274                   23277751.8094
 -17631157.38748 -13698131.62946  21124929.5004                   21124927.3014
 -32917183.07448 -25559814.73846  21334991.9454                   21334988.0514
 -32131195.50846 -24992059.40643  24514190.8284                   24514190.9574
  36217654.88346  28259579.27043  24732368.1564                   24732369.7034
 -18513439.66046 -14385966.67244  22623726.5394                   22623725.0904
   2460976.04348   1932045.73046  21788766.0474                   21788766.3014
 -15374899.71548 -11938642.68047  20341832.8674                   20341831.0704
 11  7 30  3 18  0.0000000  0  8G29G12G02G04G26G10G25G05
  21212617.20347  16566149.55945  23244142.7584                   23244142.3134
 -17682584.10548 -13738204.41446  21115143.2894                   21115141.2384
 -32975462.57848 -25605227.33246  21323901.4924                   21323897.7154
 -32144602.28546 -25002506.32443  24511638.9304                   24511639.1414
  36028916.94946  28112510.78143  24696453.7504                   24696453.5944
 -18515492.91846 -14387566.62944  22623335.9144                   22623334.0634
   2341873.05548   1839238.21946  21766101.4534                   21766101.8054
 -15470786.57048 -12013359.68747  20323586.6024                   20323584.3874
 11  7 30  3 18 30.0000000  0  8G29G12G02G04G26G10G25G05
  21036020.03547  16428541.45345  23210538.0394                   23210536.7384
 -17733488.35548 -13777870.06646  21105456.6254                   21105454.3164
 -33033627.41448 -25650550.58246  21312832.9454                   21312828.8554
 -32158064.47346 -25012996.29343  24509077.2344                   24509077.8594
  35840078.68446  27965364.21143  24660518.6094                   24660519.0984
 -18517233.83647 -14388923.22744  22623004.7274                   22623003.3134
   2223340.89848   1746875.50846  21743545.6804                   21743546.5394
 -15566101.96948 -12087631.40647  20305448.3524                   20305446.4844
 11  7 30  3 19  0.0000000  0  8G29G12G02G04G26G10G25G05
  20859445.29747  16290950.82845  23176936.2424                   23176935.1024
 -17783866.84448 -13817126.04746  21095869.8674                   21095867.8834
 -33091672.72348 -25695780.68446  21301787.2194                   21301783.5124
 -32171577.25046 -25023525.80943  24506506.1484                   24506506.1804
  35651148.20346  27818145.76243  24624566.1254                   24624566.3054
 -18518660.32047 -14390034.76244  22622733.7734                   22622731.8324
   2105385.42248   1654962.16846  21721099.2734                   21721100.0354
 -15660841.24248 -12161454.19947  20287420.0394                   20287417.9304
 11  7 30  3 19 30.0000000  0  8G29G12G02G04G26G10G25G05
  20682894.43447  16153378.81345  23143339.7274                   23143339.0314
 -17833721.46948 -13855973.80946  21086382.7114                   21086380.2854
 -33149599.16448 -25740918.17246  21290764.4144                   21290760.7344
 -32185140.79746 -25034094.86343  24503925.2114                   24503924.7464
  35462128.57846  27670857.79743  24588596.0234                   24588597.1414
 -18519775.22347 -14390903.51644  22622521.4534                   22622519.3484
   1988007.40248   1563498.78946  21698763.3364                   21698763.9144
 -15755004.71548 -12234828.31647  20269501.3834                   20269499.3134
 11  7 30  3 20  0.0000000  0  8G29G12G02G04G26G10G25G05
  20506366.07847  16015824.32844  23109747.3674                   23109746.3714
 -17883056.53148 -13894416.73046  21076995.1174                   21076992.7074
 -33207410.32048 -25785965.83646  21279763.5314                   21279759.7154
 -32198758.02746 -25044705.71943  24501334.0634                   24501333.9534
  35273020.03946  27523500.59043  24552611.0004                   24552610.5664
 -18520584.02047 -14391533.74644  22622367.3284                   22622365.8014
   1871204.75448   1472483.73846  21676536.4304                   21676537.0744
 -15848595.89548 -12307756.48447  20251691.6724                   20251689.0314
 11  7 30  3 20 30.0000000  0  8G29G12G02G04G26G10G25G05
  20329863.75447  15878290.12944  23076160.0234                   23076159.3444
 -17931871.85248 -13932454.66046  21067705.5314                   21067703.8524
 -33265104.19148 -25830922.09446  21268784.9614                   21268780.9454
 -32212427.38346 -25055357.21543  24498733.7814                   24498732.6214
  35083827.44946  27376077.91043  24516607.7344                   24516608.5704
 -18521087.62147 -14391926.18044  22622271.9304                   22622270.4844
   1754980.03148   1381919.03146  21654419.3594                   21654420.1724
 -15941613.59848 -12380237.80547  20233990.8364                   20233988.5474
 11  7 30  3 21  0.0000000  0  8G29G12G02G04G26G10G25G05
  20153384.66047  15740774.04344  23042577.4924                   23042575.9344
 -17980173.48048 -13970092.29746  21058514.3134                   21058512.0634
 -33322685.77347 -25875790.85246  21257827.3984                   21257823.4184
 -32226153.28146 -25066052.75443  24496121.8674                   24496121.1844
  34894549.72346  27228588.84842  24480589.3834                   24480589.7894
 -18521293.21547 -14392086.38344  22622232.2814                   22622231.0204
   1639329.79348   1291801.95746  21632412.2894                   21632412.8364
 -16034062.39848 -12452275.80547  20216398.1804                   20216396.0554
 11  7 30  3 21 30.0000000  0  8G29G12G02G04G26G10G25G05
  19976932.59447  15603278.98844  23008999.3524                   23008998.8524
 -18027960.20348 -14007328.71946  21049420.1884                   21049418.5004
 -33380153.01248 -25920570.50846  21246891.5164                   21246887.4184
 -32239933.55146 -25076790.64543  24493499.0234                   24493499.4184
  34705192.40646  27081037.77743  24444556.4924                   24444555.5944
 -18521201.07447 -14392014.61744  22622249.9224                   22622248.1954
   1524257.10948   1202134.94546  21610514.0314                   21610515.2814
 -16125940.47348 -12523869.09847  20198914.6024                   20198912.0554
 11  7 30  3 22  0.0000000  0  8G29G12G02G04G26G10G25G05
  19800509.23447  15465806.32044  22975427.4454                   22975426.1054
 -18075234.80548 -14044166.07446  21040424.7424                   21040422.3054
 -33437505.93748 -25965261.09846  21235977.6414                   21235973.4184
 -32253767.77746 -25087570.59843  24490865.9614                   24490866.2854
  34515758.98846  26933427.41443  24408507.9064                   24408508.0124
 -18520813.93747 -14391712.94944  22622323.5234                   22622322.5664
   1409762.87148   1112918.65246  21588726.8204                   21588727.2544
 -16217248.05948 -12595017.84847  20181539.2344                   20181537.1334
 11  7 30  3 22 30.0000000  0  8G29G12G02G04G26G10G25G05
  19624116.27347  15328357.32444  22941860.7894                   22941860.0354
 -18121998.87948 -14080605.62946  21031525.6024                   21031523.3554
 -33494745.84848 -26009863.61746  21225085.5784                   21225081.1684
 -32267656.98046 -25098393.34843  24488222.5704                   24488222.5314
  34326251.89846  26785759.63343  24372445.7504                   24372446.0354
 -18520135.13747 -14391184.04344  22622453.5554                   22622451.1484
   1295847.21948   1024153.22746  21567049.2584                   21567050.0594
 -16307986.37948 -12665723.01247  20164272.1484                   20164270.2074
 11  7 30  3 23  0.0000000  0  8G29G12G02G04G26G10G25G05
  19447757.52747  15190935.00444  22908300.2974                   22908299.4574
 -18168251.50448 -14116646.64546  21022723.9534                   21022722.7544
 -33551870.45748 -26054376.30546  21214214.4614                   21214210.7974
 -32281598.60546 -25109256.97743  24485570.4614                   24485570.5554
  34136676.87146  26638038.91843  24336371.2034                   24336370.9884
 -18519164.85247 -14390427.96544  22622638.1414                   22622635.9614
   1182513.22348    935841.03146  21545482.2814                   21545483.1024
 -16398153.51648 -12735983.10947  20147113.9064                   20147111.7234
 11  7 30  3 23 30.0000000  0  8G29G12G02G04G26G10G25G05
  19271430.44547  15053537.37545  22874746.7114                   22874745.7504
 -18213999.26648 -14152294.26646  21014018.4774                   21014016.5314
 -33608884.15648 -26098802.55946  21203365.0474                   21203361.8484
 -32295596.79746 -25120164.67243  24482905.7504                   24482906.6644
  33947033.04347  26490264.54743  24300283.8364                   24300283.0744
 -18517909.92247 -14389450.08644  22622876.6954                   22622875.1684
   1069757.46148    847979.41446  21524025.5634                   21524026.7974
 -16487754.28548 -12805801.87147  20130063.4694                   20130061.3914
 11  7 30  3 24  0.0000000  0  8G29G12G02G04G26G10G25G05
  20670562.29747  16143770.05144  23140992.6484                   23140990.9304
 -16683822.64848 -12959948.86346  21305201.3834                   21305199.2934
 -32090365.78948 -24915541.48846  21492329.5864                   21492325.9804
 -30734231.38746 -23903516.34443  24780024.1024                   24780024.1644
  35332749.66447  27570043.80143  24563976.5704                   24563976.3554
 -16940953.63747 -13160653.01244  22922961.2664                   22922959.5434
   2533003.95748   1988171.50046  21802472.1564                   21802473.2854
 -15001366.45348 -11647577.57047  20412913.9064                   20412911.7544
 11  7 30  3 24 30.0000000  0  8G29G12G02G04G26G10G25G05
  20494303.87947  16006425.88745  23107452.1094                   23107451.1174
 -16728564.36748 -12994812.54346  21296687.4844                   21296685.4924
 -32147158.53548 -24959795.57446  21481522.3834                   21481518.4184
 -30748342.69147 -23914512.15643  24777339.7894                   24777339.7424
  35142978.05946  27422169.87143  24527864.5164                   24527864.1374
 -16939137.54747 -13159237.88344  22923306.7194                   22923305.5784
   2421406.68048   1901212.59046  21781235.9224                   21781236.8714
 -15089835.89148 -11716514.77747  20396078.2664                   20396076.3714
 11  7 30  3 25  0.0000000  0  8G29G12G02G04G26G10G25G05
  20318083.16047  15869111.10945  23073918.2814                   23073916.5984
 -16772805.77048 -13029286.38346  21288268.4064                   21288266.7034
 -32203840.28548 -25003963.16046  21470736.5314                   21470732.0824
 -30762509.76246 -23925551.37943  24774643.6724                   24774642.7584
  34953148.36346  27274250.69943  24491740.5634                   24491739.7194
 -16937044.08247 -13157606.61344  22923705.5944                   22923703.5984
   2310390.36348   1814706.40246  21760110.2894                   21760111.2034
 -15177739.76248 -11785011.28547  20379350.7194                   20379348.5704
 11  7 30  3 25 30.0000000  0  8G29G12G02G04G26G10G25G05
  20141902.06347  15731827.20745  23040391.6564                   23040390.4964
 -16816548.00848 -13063371.25046  21279944.4694                   21279942.4064
 -32260411.38348 -25048044.51646  21459971.7424                   21459967.7234
 -30776732.64546 -23936634.09043  24771937.0314                   24771936.6764
  34763264.05147  27126288.96943  24455606.8524                   24455606.3914
 -16934676.16047 -13155761.49644  22924155.7734                   22924154.1914
   2199955.87948   1728653.56346  21739094.8444                   21739095.8954
 -15265078.64548 -11853067.53547  20362730.8834                   20362728.4694
 11  7 30  3 26  0.0000000  0  7G29G12G02G26G10G25G05
  19965759.94947  15594573.66445  23006873.0944                   23006872.0084
 -16859795.20748 -13097070.38346  21271715.0634                   21271712.9924
 -32316874.51648 -25092041.74646  21449226.6644                   21449222.5824
  34573326.00046  26978285.37143  24419462.1334                   24419462.1604
 -16932038.61347 -13153706.27044  22924658.1024                   22924656.4384
   2090101.19548   1643052.53146  21718190.5164                   21718191.2584
 -15351855.33648 -11920685.72747  20346217.6174                   20346215.0044
 11  7 30  3 26 30.0000000  0  7G29G12G02G26G10G25G05
  19789660.47747  15457353.37545  22973362.2424                   22973361.3984
 -16902547.32848 -13130383.74246  21263579.5394                   21263577.6174
 -32373227.75448 -25135953.35546  21438502.9774                   21438498.9024
  34383339.47746  26830243.99643  24383309.1884                   24383309.2234
 -16929132.00047 -13151441.35944  22925211.3594                   22925208.9694
   1980828.99648   1557905.36746  21697396.4774                   21697397.3524
 -15438068.75048 -11987864.98447  20329812.1414                   20329809.8444
 11  7 30  3 27  0.0000000  0  7G29G12G02G26G10G25G05
  19613606.87947  15320168.84445  22939860.0944                   22939860.1214
 -16944804.64548 -13163311.54346  21255538.1414                   21255536.4304
 -32429469.91048 -25179778.41446  21427800.1564                   21427796.3164
  34193309.41446  26682168.69543  24347147.4384                   24347147.4304
 -16925957.33246 -13148967.59844  22925814.5164                   22925813.3524
   1872141.30948   1473213.67246  21676714.0944                   21676715.2424
 -15523717.87548 -12054604.55147  20313513.4844                   20313511.2584
 11  7 30  3 27 30.0000000  0  7G29G12G02G26G10G25G05
  19437606.18047  15183025.51245  22906367.8754                   22906367.6334
 -16986564.00848 -13195851.32046  21247591.7114                   21247589.5164
 -32485595.83648 -25223512.89846  21417119.9534                   21417116.2304
  34003244.39846  26534066.14543  24310979.4534                   24310978.7154
 -16922512.21147 -13146283.09444  22926470.5634                   22926469.5004
   1764043.81648   1388981.87546  21656143.9304                   21656144.5234
 -15608798.52748 -12120901.14547  20297323.0784                   20297321.2304
 11  7 30  3 28  0.0000000  0  7G29G12G02G26G10G25G05
  19261654.73847  15045920.57445  22872886.3204                   22872885.1374
 -17027832.45348 -13228008.57446  21239738.8284                   21239736.2774
 -32541611.37548 -25267161.35546  21406460.2114                   21406456.7504
  33813142.42246  26385934.81643  24274804.9454                   24274804.1134
 -16918804.90647 -13143394.30944  22927175.9144                   22927174.6374
   1656531.52348   1305206.05946  21635685.0314                   21635685.9694
 -15693316.95348 -12186759.64147  20281239.7664                   20281237.5044
 11  7 30  3 28 30.0000000  0  7G29G12G02G26G10G25G05
  19085756.95747  14908857.47745  22839413.4694                   22839413.1174
 -17068609.58648 -13259782.98846  21231978.8834                   21231976.9454
 -32597514.33648 -25310722.09846  21395822.8984                   21395818.5634
  33623008.94546  26237778.96143  24238622.6334                   24238622.8914
 -16914835.93047 -13140301.60944  22927931.6564                   22927929.5904
   1549607.22348   1221888.44146  21615337.7974                   21615338.5904
 -15777271.03148 -12252178.39147  20265264.0864                   20265261.4694
 11  7 30  3 29  0.0000000  0  7G29G12G02G26G10G25G05
  18909908.49647  14771832.78145  22805951.1414                   22805950.0984
 -17108903.30948 -13291180.71146  21224311.4534                   21224309.1684
 -32653310.63748 -25354199.72346  21385204.6484                   21385201.0474
  33432841.87947  26089596.92643  24202435.3204                   24202434.0864
 -16910613.89847 -13137011.72745  22928734.9924                   22928733.8484
   1443265.49648   1139024.75046  21595102.0634                   21595102.4924
 -15860667.68048 -12317162.78147  20249394.2584                   20249391.8094
 11  7 30  3 29 30.0000000  0  7G29G12G02G26G10G25G05
  18734113.05947  14634849.40645  22772498.4384                   22772496.6524
 -17148714.21548 -13322202.21946  21216735.5704                   21216733.4734
 -32708998.72348 -25397593.02046  21374608.1484                   21374603.4344
  33242646.09446  25941392.48043  24166242.4924                   24166242.2584
 -16906139.37947 -13133525.09444  22929586.3914                   22929584.9384
   1337508.42248   1056616.64146  21574976.7034                   21574977.6954
 -15943506.12148 -12381712.19947  20233630.4384                   20233628.0744
 11  7 30  3 30  0.0000000  0  7G29G12G02G26G10G25G05
  18558370.52047  14497907.25045  22739055.5864                   22739053.6254
 -17188045.64548 -13352850.10546  21209251.0864                   21209249.0664
 -32764581.26248 -25440904.07046  21364031.1094                   21364026.3594
  33052422.98446  25793166.79743  24130044.7194                   24130043.6414
 -16901417.02747 -13129845.35544  22930485.2194                   22930483.7114
   1232334.44148    974662.89546  21554962.6094                   21554963.6644
 -16025788.95748 -12445828.68447  20217972.5634                   20217970.2154
 11  7 30  3 30 30.0000000  0  7G29G12G02G26G10G25G05
  18382686.73447  14361010.85545  22705623.6724                   22705621.8364
 -17226895.84048 -13383123.01646  21201858.3364                   21201856.2704
 -32820054.30948 -25484129.80546  21353474.9304                   21353470.7544
  32862180.16846  25644925.71943  24093842.0634                   24093841.2234
 -16896445.55947 -13125971.50044  22931431.6254                   22931429.3484
   1127747.91848    893166.91046  21535060.5084                   21535061.6994
 -16107513.19548 -12509509.89147  20202421.2114                   20202418.4184
